[[[{"header":{"parameterUnit":"kt","parameterCategory":2,"dx":1,"dy":1,"la1":29.587661999999998,"la2":31.0,"lo1":-88.76705300000003,"lo2":-86.6583820000003,"nx":115,"ny":88,"refTime":"2022-09-24T18:00:00:Z","depth":0,"parameterNumber":1,"parameterNumberName":"U-component_of_WINDS"},"data":[-2.5587,-2.5332,-2.4861,-2.4832,-2.5283,-2.5692,-2.5919,-2.5978,-2.6103,-2.6208,-2.6198,-2.6208,-2.6419,-2.6734,-2.684,-2.6734,-2.6534,-2.6429,-2.6208,-2.6198,-2.6429,-2.6313,-2.6313,-2.6409,-2.6524,-2.6734,-2.705,-2.748,-2.7165,-2.7375,-2.748,-2.7375,-2.5882,-2.5461,-2.5345,-2.4818,-2.4078,-2.4183,-2.4078,-2.3654,-2.376,-2.4298,-2.5355,-2.5144,-2.4298,-2.4616,-2.5038,-2.5461,-2.5566,-2.5998,-2.6524,-2.6945,-2.684,-2.6734,-2.6724,-2.6619,-2.6924,-2.6504,-2.6284,-2.6073,-2.5863,-2.4914,-2.4914,-2.4703,-2.4386,-2.4068,-2.3963,-2.4068,-2.4808,-2.5978,-2.6399,-2.7973,-2.8507,-2.8611,-2.8716,-2.8924,-2.9029,-2.9029,-2.9029,-2.882,-2.8683,-2.8225,-2.746,-2.6804,-2.6262,-2.5644,-2.5275,-2.4875,-2.4424,-2.4613,-2.4707,-2.4812,-2.4906,-2.5283,-2.5566,-2.5964,-2.6263,-2.6216,-2.6287,-2.7069,-2.7266,-2.6862,-2.6916,-2.7353,-2.727,-2.683,-2.6986,-2.7221,-2.7199,-2.7328,-2.6968,-2.6772,-2.7123,-2.73,-2.7583,-2.5509,-2.5715,-2.5371,-2.5214,-2.5336,-2.5807,-2.6255,-2.6579,-2.7165,-2.7375,-2.7229,-2.7249,-2.7375,-2.748,-2.748,-2.7386,-2.7208,-2.6824,-2.7031,-2.7156,-2.7167,-2.6896,-2.701,-2.7218,-2.7239,-2.7344,-2.748,-2.7585,-2.7596,-2.7596,-2.7596,-2.7596,-2.7375,-2.727,-2.727,-2.6955,-2.6524,-2.6313,-2.6093,-2.5787,-2.5998,-2.6323,-2.685,-2.7165,-2.706,-2.706,-2.7165,-2.727,-2.727,-2.748,-2.748,-2.7805,-2.7805,-2.7795,-2.7795,-2.79,-2.8099,-2.8088,-2.7868,-2.7973,-2.7962,-2.8067,-2.8391,-2.8182,-2.7753,-2.7438,-2.7114,-2.7323,-2.7962,-2.8496,-2.8496,-2.9029,-2.9029,-2.9133,-2.9122,-2.9226,-2.9226,-2.9238,-2.9238,-2.9133,-2.9023,-2.8879,-2.8156,-2.7473,-2.6763,-2.6106,-2.5667,-2.5159,-2.4896,-2.5189,-2.5283,-2.5378,-2.579,-2.6063,-2.6186,-2.6546,-2.6869,-2.6908,-2.7206,-2.803,-2.848,-2.8215,-2.8176,-2.8543,-2.8353,-2.7978,-2.8027,-2.811,-2.8594,-2.8892,-2.8618,-2.8463,-2.8558,-2.8321,-2.8518,-2.6296,-2.5894,-2.5807,-2.5699,-2.5913,-2.665,-2.6794,-2.6929,-2.7365,-2.7449,-2.7229,-2.7418,-2.7282,-2.6821,-2.7093,-2.698,-2.679,-2.6853,-2.6926,-2.6863,-2.6667,-2.6989,-2.7114,-2.7053,-2.7303,-2.7554,-2.7575,-2.7575,-2.7596,-2.7596,-2.7596,-2.7596,-2.7596,-2.748,-2.748,-2.7596,-2.748,-2.7596,-2.7375,-2.706,-2.685,-2.706,-2.748,-2.7596,-2.7585,-2.748,-2.769,-2.7889,-2.7994,-2.8099,-2.8308,-2.8413,-2.8413,-2.8413,-2.8413,-2.8517,-2.8622,-2.882,-2.8809,-2.8809,-2.8914,-2.8809,-2.9018,-2.9122,-2.8914,-2.9226,-2.8914,-2.8809,-2.9446,-2.9435,-2.9435,-2.9655,-2.9655,-2.9759,-2.9852,-2.984,-2.9852,-2.9852,-2.9852,-2.9863,-2.9702,-2.9533,-2.8945,-2.8239,-2.7321,-2.6741,-2.6143,-2.5765,-2.566,-2.5848,-2.5765,-2.5914,-2.6673,-2.7026,-2.7187,-2.7422,-2.7635,-2.7964,-2.8233,-2.8655,-2.8772,-2.9028,-2.9284,-2.9298,-2.9237,-2.8982,-2.8849,-2.8906,-2.924,-2.9575,-2.9657,-2.9821,-2.9485,-2.9138,-2.9437,-2.7157,-2.6413,-2.629,-2.6268,-2.6476,-2.7114,-2.725,-2.7072,-2.7448,-2.7405,-2.7081,-2.7394,-2.7196,-2.6902,-2.7072,-2.6926,-2.658,-2.6643,-2.634,-2.6319,-2.6308,-2.6549,-2.6664,-2.6727,-2.6968,-2.7271,-2.7439,-2.7428,-2.7554,-2.7596,-2.7596,-2.7596,-2.7596,-2.7596,-2.7596,-2.7596,-2.7596,-2.7596,-2.79,-2.8099,-2.7889,-2.7889,-2.8005,-2.8005,-2.8005,-2.8109,-2.8203,-2.8402,-2.8496,-2.8589,-2.9018,-2.9122,-2.9238,-2.9133,-2.9133,-2.9238,-2.9238,-2.9342,-2.9446,-2.9643,-2.9747,-2.9747,-2.9643,-2.9643,-2.9643,-3.0071,-3.0186,-3.0082,-2.9978,-2.9863,-2.9747,-3.0071,-3.0291,-3.0487,-3.0579,-3.0683,-3.0775,-3.0775,-3.0775,-3.0683,-3.0498,-3.0141,-2.9602,-2.892,-2.798,-2.7389,-2.6824,-2.6352,-2.6269,-2.6808,-2.6864,-2.7296,-2.793,-2.8114,-2.8259,-2.8487,-2.8535,-2.8795,-2.9045,-2.9069,-2.9022,-2.9513,-3.0007,-3.0094,-3.0022,-2.9903,-2.974,-2.9703,-2.9703,-2.9871,-2.9989,-3.0145,-2.9951,-2.9833,-3.0259,-2.7554,-2.7459,-2.6948,-2.6832,-2.6719,-2.6926,-2.7187,-2.747,-2.764,-2.7631,-2.761,-2.7642,-2.7505,-2.7392,-2.7436,-2.7165,-2.6703,-2.6455,-2.6287,-2.6282,-2.5994,-2.6078,-2.6193,-2.6287,-2.658,-2.68,-2.701,-2.725,-2.748,-2.7596,-2.7596,-2.7596,-2.7596,-2.769,-2.769,-2.769,-2.7795,-2.8005,-2.8413,-2.882,-2.8924,-2.8924,-2.9018,-2.8924,-2.8924,-2.8924,-2.8914,-2.9018,-2.9122,-2.9122,-2.9226,-2.9226,-2.9331,-2.9342,-2.9331,-2.9446,-2.9759,-2.9978,-3.0071,-3.0268,-3.0475,-3.0579,-3.0775,-3.0568,-3.0464,-3.0579,-3.0683,-3.0579,-3.0487,-3.0371,-3.0268,-3.0487,-3.0591,-3.0683,-3.0787,-3.089,-3.0879,-3.0879,-3.0879,-3.089,-3.0695,-3.0648,-3.0161,-2.9287,-2.8427,-2.8083,-2.7556,-2.6707,-2.6892,-2.793,-2.8369,-2.8811,-2.8972,-2.9023,-2.919,-2.9284,-2.9383,-2.9585,-2.9803,-2.984,-2.9766,-3.0203,-3.0777,-3.0537,-3.0446,-3.0415,-3.0405,-3.0405,-3.0326,-3.0313,-3.0313,-3.0498,-3.0498,-3.051,-3.0669,-2.9115,-2.8533,-2.8357,-2.7852,-2.7375,-2.7303,-2.7803,-2.8398,-2.8214,-2.8109,-2.8211,-2.8065,-2.7931,-2.7749,-2.7728,-2.7299,-2.6528,-2.6298,-2.5967,-2.5642,-2.54,-2.5673,-2.5722,-2.5817,-2.6235,-2.6643,-2.6936,-2.7217,-2.747,-2.7596,-2.7585,-2.769,-2.7596,-2.7784,-2.7994,-2.8099,-2.8193,-2.8611,-2.8924,-2.9133,-2.9133,-2.9122,-2.9122,-2.9133,-2.9133,-2.9133,-2.9133,-2.9562,-2.977,-2.977,-3.0175,-3.0164,-3.0164,-3.0164,-3.0164,-3.0164,-3.0487,-3.0487,-3.0591,-3.0787,-3.0879,-3.0879,-3.0879,-3.0879,-3.0879,-3.0879,-3.0879,-3.0879,-3.0879,-3.0879,-3.0879,-3.0879,-3.0879,-3.0879,-3.0879,-3.0879,-3.0879,-3.0879,-3.0879,-3.0879,-3.0879,-3.0879,-3.0503,-2.9599,-2.9011,-2.8762,-2.821,-2.7632,-2.8079,-2.8934,-2.9379,-2.9694,-2.9731,-2.9811,-2.999,-3.0119,-3.0146,-3.0291,-3.0424,-3.0418,-3.0536,-3.0623,-3.0697,-3.07,-3.0745,-3.068,-3.0577,-3.0669,-3.0761,-3.0669,-3.0577,-3.0854,-3.1038,-3.1038,-3.0959,-3.0565,-2.9657,-2.9569,-2.9182,-2.8599,-2.9156,-2.9546,-2.9691,-2.9256,-2.8884,-2.8695,-2.8684,-2.8249,-2.7783,-2.7815,-2.7244,-2.6547,-2.5902,-2.555,-2.5275,-2.5232,-2.5358,-2.5644,-2.6037,-2.6602,-2.7038,-2.7448,-2.7732,-2.8013,-2.8109,-2.8109,-2.7994,-2.8203,-2.8297,-2.8611,-2.882,-2.9226,-2.9539,-2.9747,-2.9852,-2.9747,-2.9852,-2.9852,-2.9852,-2.9852,-2.9852,-2.9852,-3.0175,-3.0291,-3.0395,-3.0695,-3.089,-3.0879,-3.0879,-3.0879,-3.0879,-3.0879,-3.0879,-3.0879,-3.0879,-3.0879,-3.0879,-3.0879,-3.0879,-3.0879,-3.0879,-3.0879,-3.0879,-3.0879,-3.0879,-3.0879,-3.0879,-3.0879,-3.0879,-3.0879,-3.0879,-3.0879,-3.0879,-3.0879,-3.0879,-3.0879,-3.0855,-3.0806,-3.0022,-2.9499,-2.9432,-2.9196,-2.8985,-2.9154,-2.9635,-3.0034,-3.0117,-3.0221,-3.0326,-3.0491,-3.0751,-3.0858,-3.0914,-3.0755,-3.0682,-3.0787,-3.0787,-3.0774,-3.0695,-3.0747,-3.0721,-3.0761,-3.0761,-3.0761,-3.0761,-3.1077,-3.1288,-3.1498,-3.1406,-3.1419,-3.1755,-3.0754,-3.0644,-3.0803,-3.0976,-3.2666,-3.2774,-3.1514,-3.0986,-3.0246,-2.9358,-2.9599,-2.945,-2.8234,-2.7905,-2.7736,-2.7311,-2.6739,-2.6145,-2.5676,-2.574,-2.5891,-2.6235,-2.671,-2.7474,-2.8092,-2.8583,-2.8658,-2.9089,-2.9133,-2.9133,-2.9018,-2.8924,-2.9133,-2.9446,-2.9759,-3.0175,-3.0371,-3.0464,-3.0475,-3.0475,-3.0579,-3.0579,-3.0475,-3.0568,-3.0579,-3.0579,-3.0683,-3.0787,-3.0787,-3.089,-3.089,-3.0879,-3.0879,-3.0879,-3.0879,-3.0879,-3.0879,-3.0879,-3.0879,-3.0879,-3.0879,-3.0879,-3.0879,-3.0879,-3.0879,-3.0879,-3.0879,-3.0879,-3.0879,-3.0879,-3.0879,-3.0879,-3.0879,-3.0879,-3.0867,-3.0867,-3.0867,-3.0867,-3.0879,-3.0879,-3.0947,-3.0921,-3.0615,-3.0112,-3.0018,-2.9973,-2.9876,-3.0317,-3.0708,-3.0428,-3.0496,-3.0714,-3.0809,-3.1034,-3.1218,-3.1551,-3.2294,-3.1919,-3.1865,-3.1222,-3.1143,-3.1314,-3.1406,-3.1038,-3.0761,-3.0854,-3.0854,-3.092,-3.1313,-3.1781,-3.2132,-3.3261,-3.2894,-3.2415,-3.5519,-3.3917,-3.4674,-3.4152,-3.3304,-3.5467,-3.635,-3.5632,-3.4057,-3.3423,-3.3209,-3.2944,-3.2799,-3.28,-3.2187,-3.1184,-2.9453,-2.8831,-2.8108,-2.6113,-2.6613,-2.7071,-2.7199,-2.7423,-2.8789,-2.8922,-2.9375,-2.9989,-3.0544,-3.0371,-3.0256,-2.9944,-2.9435,-3.006,-3.0683,-3.0787,-3.0994,-3.1086,-3.1293,-3.1293,-3.1293,-3.119,-3.1086,-3.119,-3.1086,-3.0982,-3.0982,-3.0879,-3.0879,-3.0879,-3.0879,-3.0879,-3.0879,-3.0879,-3.0879,-3.0879,-3.0879,-3.0994,-3.0982,-3.0982,-3.119,-3.1086,-3.0879,-3.0879,-3.0879,-3.0982,-3.0982,-3.0982,-3.0879,-3.0879,-3.0867,-3.0879,-3.0879,-3.0867,-3.0855,-3.0832,-3.082,-3.0888,-3.0888,-3.0855,-3.0971,-3.1201,-3.1313,-3.0895,-3.0765,-3.073,-3.0703,-3.1227,-3.1653,-3.1247,-3.0789,-3.0931,-3.106,-3.1485,-3.1764,-3.2051,-3.2758,-3.3524,-3.3874,-3.4056,-3.3419,-3.2676,-3.2401,-3.2218,-3.1862,-3.1456,-3.1248,-3.1601,-3.2314,-3.2685,-3.2816,-3.3645,-3.4756,-3.4459,-3.3817,-3.8003,-3.6287,-3.7316,-3.7312,-3.6914,-3.8636,-3.922,-3.8792,-3.7316,-3.6237,-3.6079,-3.5851,-3.6005,-3.5802,-3.4688,-3.3708,-3.2517,-3.1852,-3.0821,-2.9018,-2.999,-2.9633,-2.9791,-3.0581,-3.1433,-3.1806,-3.2243,-3.3052,-3.2919,-3.2611,-3.2199,-3.1476,-3.1373,-3.1591,-3.2829,-3.2726,-3.2314,-3.2314,-3.2314,-3.2508,-3.301,-3.3022,-3.3138,-3.3318,-3.2817,-3.2417,-3.2326,-3.1707,-3.15,-3.1201,-3.1201,-3.1293,-3.15,-3.1488,-3.15,-3.15,-3.15,-3.1408,-3.1201,-3.1889,-3.1901,-3.1822,-3.1926,-3.1822,-3.15,-3.1397,-3.1397,-3.15,-3.1603,-3.1253,-3.0976,-3.0929,-3.0696,-3.0708,-3.0582,-3.057,-3.0787,-3.0787,-3.096,-3.0996,-3.1158,-3.143,-3.1744,-3.1623,-3.179,-3.1789,-3.1637,-3.2047,-3.2337,-3.1802,-3.1349,-3.1499,-3.1889,-3.2269,-3.2767,-3.3356,-3.407,-3.4647,-3.5188,-3.5578,-3.5444,-3.4752,-3.4437,-3.4154,-3.3165,-3.2331,-3.2723,-3.3176,-3.3765,-3.4165,-3.425,-3.4806,-3.4893,-3.4587,-3.4609,-3.9422,-3.7941,-3.8639,-4.0071,-4.1476,-4.191,-4.1637,-4.1011,-3.9881,-3.8649,-3.7772,-3.7632,-3.7219,-3.663,-3.6665,-3.6093,-3.548,-3.507,-3.4083,-3.3171,-3.3454,-3.3728,-3.3821,-3.4409,-3.508,-3.624,-3.6322,-3.6414,-3.6871,-3.5668,-3.5057,-3.4444,-3.3933,-3.424,-3.677,-3.5769,-3.5057,-3.4968,-3.4853,-3.5552,-3.606,-3.5972,-3.606,-3.5959,-3.5247,-3.456,-3.4151,-3.3536,-3.3125,-3.2829,-3.2739,-3.2829,-3.3022,-3.2919,-3.2817,-3.2623,-3.252,-3.2235,-3.2017,-3.3497,-3.3778,-3.3471,-3.3229,-3.2912,-3.2564,-3.2397,-3.2375,-3.1986,-3.2121,-3.1795,-3.1421,-3.0912,-3.0559,-3.0239,-3.008,-3.0057,-3.049,-3.0701,-3.1132,-3.1266,-3.1528,-3.1828,-3.2216,-3.2445,-3.2598,-3.2755,-3.2548,-3.2604,-3.2832,-3.2575,-3.2205,-3.2427,-3.3109,-3.3721,-3.4693,-3.5008,-3.5324,-3.5773,-3.6218,-3.6623,-3.6576,-3.5907,-3.5865,-3.6154,-3.5081,-3.3533,-3.3954,-3.4648,-3.5411,-3.5927,-3.5941,-3.5604,-3.4844,-3.459,-3.5146,-4.1228,-4.0297,-4.1683,-4.2444,-4.2552,-4.3095,-4.3213,-4.2886,-4.1765,-4.0883,-4.0611,-4.0595,-4.058,-4.0468,-3.9941,-3.9084,-3.8063,-3.7592,-3.6557,-3.6154,-3.6179,-3.6087,-3.6039,-3.6634,-3.7816,-3.7749,-3.8153,-3.8699,-3.8699,-3.8125,-3.7693,-3.7376,-3.7174,-3.7174,-3.7981,-3.7073,-3.6567,-3.6567,-3.6668,-3.7073,-3.7275,-3.7275,-3.7477,-3.7477,-3.7174,-3.6581,-3.6263,-3.5857,-3.5451,-3.5362,-3.5451,-3.5552,-3.5552,-3.5261,-3.484,-3.4444,-3.3946,-3.3253,-3.393,-3.5044,-3.5789,-3.5075,-3.485,-3.4147,-3.3265,-3.287,-3.3038,-3.2676,-3.2426,-3.22,-3.2,-3.1555,-3.1171,-3.085,-3.0581,-3.0435,-3.0738,-3.1101,-3.1437,-3.1787,-3.2035,-3.2394,-3.2659,-3.2982,-3.341,-3.426,-3.4097,-3.4084,-3.4118,-3.3876,-3.3449,-3.3691,-3.4268,-3.5379,-3.6544,-3.68,-3.7066,-3.7401,-3.7643,-3.7859,-3.7544,-3.6609,-3.6289,-3.6748,-3.6272,-3.4914,-3.4737,-3.5025,-3.6088,-3.7397,-3.7577,-3.7336,-3.6534,-3.5706,-3.6096,-4.1703,-4.0988,-4.2775,-4.3368,-4.3076,-4.3688,-4.4138,-4.4095,-4.3355,-4.3172,-4.3269,-4.3075,-4.3075,-4.2979,-4.2429,-4.1589,-4.0851,-4.0643,-3.9671,-3.9019,-3.9034,-3.9061,-3.893,-3.9333,-3.9928,-4.0165,-4.0604,-4.0926,-4.0727,-4.013,-3.9999,-4.0383,-4.0696,-4.0597,-3.9999,-3.9585,-3.91,-3.8899,-3.8899,-3.94,-3.9485,-3.9685,-3.9585,-3.9685,-3.95,-3.8799,-3.8569,-3.8282,-3.788,-3.7678,-3.765,-3.7865,-3.7981,-3.7865,-3.7621,-3.7177,-3.655,-3.5911,-3.5987,-3.6869,-3.7722,-3.6961,-3.6756,-3.6351,-3.5573,-3.4621,-3.4194,-3.389,-3.3694,-3.32,-3.2891,-3.2414,-3.206,-3.177,-3.1653,-3.1411,-3.1644,-3.1945,-3.2292,-3.2745,-3.2921,-3.2974,-3.3177,-3.3463,-3.4657,-3.5697,-3.5603,-3.556,-3.5591,-3.5489,-3.4819,-3.4811,-3.5263,-3.6195,-3.6517,-3.7646,-3.8774,-3.898,-3.918,-3.9059,-3.8821,-3.7762,-3.7129,-3.7279,-3.7081,-3.6633,-3.6188,-3.5778,-3.6137,-3.7396,-3.8049,-3.8368,-3.7959,-3.7095,-3.6858,-4.1234,-4.0831,-4.2379,-4.3062,-4.3248,-4.3875,-4.4371,-4.4497,-4.4616,-4.4811,-4.5085,-4.4959,-4.4307,-4.4146,-4.3981,-4.3867,-4.3819,-4.4,-4.2934,-4.2592,-4.3064,-4.2395,-4.2055,-4.23,-4.331,-4.2802,-4.3034,-4.3412,-4.3429,-4.2132,-4.2822,-4.3804,-4.3396,-4.3804,-4.3216,-4.2017,-4.1522,-4.1339,-4.1339,-4.2132,-4.2707,-4.2904,-4.2806,-4.3019,-4.2329,-4.1324,-4.0895,-4.0076,-3.9504,-3.9061,-3.9406,-3.974,-4.0072,-4.0005,-3.9774,-3.9287,-3.871,-3.822,-3.8196,-3.8967,-3.9466,-3.9733,-3.9357,-3.8531,-3.7489,-3.6774,-3.6484,-3.6243,-3.5341,-3.4661,-3.4045,-3.3476,-3.3044,-3.2735,-3.2495,-3.2402,-3.2681,-3.2956,-3.3399,-3.3663,-3.3722,-3.3616,-3.3712,-3.4562,-3.5672,-3.6743,-3.6739,-3.7127,-3.7121,-3.6731,-3.6176,-3.6005,-3.6331,-3.6581,-3.6864,-3.7464,-3.86,-3.9178,-3.9198,-3.9239,-3.929,-3.9219,-3.8336,-3.8238,-3.7718,-3.8174,-3.8192,-3.7258,-3.6854,-3.7603,-3.8025,-3.8113,-3.7864,-3.8174,-3.8049,-4.1473,-4.1845,-4.2848,-4.309,-4.2881,-4.4154,-4.4538,-4.4416,-4.501,-4.5365,-4.5382,-4.5382,-4.5285,-4.5091,-4.5091,-4.501,-4.4993,-4.4718,-4.4273,-4.4223,-4.4256,-4.3927,-4.3793,-4.4197,-4.4485,-4.3588,-4.4243,-4.4294,-4.4213,-4.4196,-4.4408,-4.5108,-4.4896,-4.4782,-4.4506,-4.3902,-4.3461,-4.3166,-4.3183,-4.3527,-4.3919,-4.3821,-4.3821,-4.3723,-4.351,-4.3232,-4.3035,-4.235,-4.2122,-4.1782,-4.1793,-4.1676,-4.1849,-4.1597,-4.129,-4.0889,-3.9942,-3.9759,-4.0493,-4.086,-4.1418,-4.1312,-4.0851,-3.989,-3.8981,-3.8386,-3.7967,-3.7337,-3.6683,-3.6196,-3.5501,-3.4954,-3.4488,-3.4065,-3.3587,-3.3601,-3.3735,-3.4185,-3.4526,-3.4763,-3.4729,-3.4524,-3.4844,-3.5644,-3.6561,-3.7571,-3.8245,-3.8671,-3.8361,-3.7909,-3.7564,-3.7411,-3.7585,-3.7752,-3.8255,-3.8661,-3.876,-3.9077,-3.8882,-3.8732,-3.8306,-3.8242,-3.8499,-3.8268,-3.7695,-3.7911,-3.8107,-3.7893,-3.7733,-3.8143,-3.8464,-3.8244,-3.8535,-3.9378,-3.9595,-4.2214,-4.2556,-4.3161,-4.3345,-4.3294,-4.4146,-4.4724,-4.5078,-4.5474,-4.6034,-4.6606,-4.6351,-4.6061,-4.5947,-4.5577,-4.5497,-4.5382,-4.5188,-4.5091,-4.4976,-4.4976,-4.4879,-4.4799,-4.5108,-4.5285,-4.4748,-4.4816,-4.4816,-4.4799,-4.5188,-4.5497,-4.5497,-4.5497,-4.5199,-4.435,-4.4805,-4.4577,-4.4282,-4.4337,-4.457,-4.4603,-4.4603,-4.462,-4.4603,-4.4265,-4.3919,-4.3717,-4.3513,-4.3233,-4.3208,-4.3359,-4.3326,-4.3125,-4.2998,-4.2516,-4.2202,-4.1058,-4.1029,-4.1898,-4.2053,-4.2071,-4.1931,-4.1652,-4.099,-4.0377,-3.9725,-3.9019,-3.8543,-3.8099,-3.7508,-3.6913,-3.6418,-3.6239,-3.6044,-3.5579,-3.5594,-3.5684,-3.5789,-3.5789,-3.5774,-3.5894,-3.5925,-3.6181,-3.6664,-3.7307,-3.8188,-3.8809,-3.9482,-3.9553,-3.8979,-3.8661,-3.8545,-3.8492,-3.8535,-3.8909,-3.9123,-3.8652,-3.8474,-3.8278,-3.81,-3.7626,-3.7501,-3.7733,-3.7662,-3.765,-3.7632,-3.7555,-3.778,-3.8132,-3.8516,-3.8979,-3.9069,-3.922,-4.0066,-4.0162,-4.3641,-4.3708,-4.4137,-4.4164,-4.4228,-4.4536,-4.536,-4.6285,-4.6017,-4.6861,-4.8081,-4.7411,-4.7008,-4.6912,-4.6255,-4.5964,-4.5868,-4.5964,-4.5868,-4.5753,-4.5674,-4.5559,-4.548,-4.5594,-4.5691,-4.5302,-4.5497,-4.5577,-4.5868,-4.5868,-4.5868,-4.5788,-4.5833,-4.523,-4.4633,-4.4944,-4.4944,-4.4271,-4.4752,-4.5141,-4.5021,-4.489,-4.4969,-4.4831,-4.4374,-4.3841,-4.3738,-4.3232,-4.2912,-4.2969,-4.3267,-4.3472,-4.3616,-4.3981,-4.3828,-4.3223,-4.2618,-4.2156,-4.2191,-4.2156,-4.2156,-4.2156,-4.2069,-4.2156,-4.1617,-4.0902,-4.0394,-4.0324,-3.9444,-3.8648,-3.8398,-3.7954,-3.767,-3.7476,-3.7387,-3.7476,-3.7476,-3.7492,-3.7565,-3.7639,-3.8083,-3.8011,-3.7833,-3.7922,-3.8011,-3.8737,-3.9444,-4.0341,-4.0678,-3.9938,-3.9488,-3.8758,-3.8588,-3.8185,-3.8293,-3.8185,-3.7893,-3.7769,-3.7697,-3.7644,-3.7501,-3.7501,-3.7501,-3.7655,-3.775,-3.7827,-3.7903,-3.8201,-3.855,-3.8892,-3.9242,-3.9618,-3.9992,-4.0026,-4.0168,-4.7807,-4.7807,-4.789,-4.7053,-4.6022,-4.6506,-4.6616,-4.6273,-4.6677,-4.7484,-4.8313,-4.8177,-4.8081,-4.8081,-4.789,-4.7794,-4.7794,-4.7315,-4.6912,-4.6623,-4.6623,-4.614,-4.5964,-4.6079,-4.6351,-4.5982,-4.6079,-4.6466,-4.693,-4.7105,-4.7026,-4.6851,-4.6755,-4.606,-4.5047,-4.5211,-4.4123,-4.3814,-4.3961,-4.4013,-4.3634,-4.3497,-4.3497,-4.3428,-4.3376,-4.3273,-4.328,-4.2881,-4.2697,-4.2595,-4.2566,-4.2531,-4.2584,-4.2636,-4.2565,-4.2422,-4.228,-4.2173,-4.2156,-4.2156,-4.2156,-4.2156,-4.2156,-4.2156,-4.1982,-4.1808,-4.1547,-4.1391,-4.0867,-4.0429,-3.9708,-3.962,-3.9427,-3.9074,-3.9002,-3.9002,-3.9002,-3.8986,-3.9074,-3.9604,-4.0324,-4.0429,-4.0236,-4.0236,-3.9662,-4.0275,-4.0209,-4.1025,-4.0726,-4.0122,-3.9659,-3.8936,-3.846,-3.806,-3.7845,-3.7845,-3.7827,-3.7827,-3.7809,-3.7809,-3.7732,-3.7655,-3.7732,-3.7903,-3.8057,-3.8439,-3.8458,-3.8607,-3.8966,-3.9291,-3.9618,-3.9978,-4.0529,-4.0641,-4.075,-4.9047,-4.9251,-4.9272,-4.8841,-4.8222,-4.8188,-4.7848,-4.7487,-4.7851,-4.8228,-4.8645,-4.898,-4.9053,-4.8863,-4.8768,-4.8654,-4.8368,-4.8081,-4.789,-4.768,-4.7585,-4.7297,-4.7122,-4.7429,-4.7219,-4.7122,-4.7122,-4.7603,-4.7986,-4.7986,-4.789,-4.7698,-4.7698,-4.6988,-4.5877,-4.5691,-4.5112,-4.4126,-4.448,-4.4838,-4.4225,-4.419,-4.4006,-4.3682,-4.3381,-4.3136,-4.3052,-4.2707,-4.2426,-4.2338,-4.2212,-4.2209,-4.2191,-4.2209,-4.2191,-4.2191,-4.2173,-4.2156,-4.2156,-4.2156,-4.2242,-4.2156,-4.2156,-4.2156,-4.2156,-4.2173,-4.2087,-4.1826,-4.1757,-4.1303,-4.057,-4.0482,-4.0394,-4.0131,-4.0131,-4.0131,-4.0114,-4.0114,-4.0465,-4.1094,-4.132,-4.1424,-4.1789,-4.1579,-4.1371,-4.1248,-4.1072,-4.0841,-4.0556,-4.0132,-3.9622,-3.916,-3.8923,-3.8564,-3.8305,-3.8305,-3.8305,-3.821,-3.821,-3.821,-3.821,-3.821,-3.821,-3.8439,-3.8745,-3.9201,-3.922,-3.922,-3.9448,-3.9694,-4.0148,-4.0525,-4.1031,-4.1479,-4.1648,-5.0008,-5.0393,-5.0371,-5.0371,-5.035,-4.9802,-4.9461,-4.929,-4.9251,-4.9376,-4.981,-5.0343,-5.0617,-5.0263,-4.9981,-4.9472,-4.9208,-4.8589,-4.8307,-4.8214,-4.812,-4.8134,-4.7964,-4.8019,-4.8264,-4.8545,-4.8471,-4.8469,-4.8503,-4.8559,-4.8368,-4.8331,-4.8203,-4.7413,-4.6439,-4.631,-4.5471,-4.4131,-4.4889,-4.5144,-4.4746,-4.4764,-4.4692,-4.4098,-4.3561,-4.3418,-4.3221,-4.2686,-4.2347,-4.2433,-4.226,-4.226,-4.2433,-4.252,-4.2607,-4.2693,-4.2675,-4.2675,-4.2675,-4.2589,-4.2416,-4.2416,-4.252,-4.252,-4.2329,-4.2347,-4.2347,-4.2173,-4.1826,-4.1565,-4.1094,-4.1094,-4.1094,-4.1077,-4.1077,-4.1094,-4.1095,-4.1024,-4.1173,-4.1597,-4.1825,-4.1946,-4.1731,-4.157,-4.1342,-4.1163,-4.1157,-4.0924,-4.0702,-4.0262,-3.9785,-3.9467,-3.9319,-3.9042,-3.8782,-3.8763,-3.8763,-3.8763,-3.8763,-3.8763,-3.8916,-3.8916,-3.922,-3.9675,-4.0053,-4.0129,-4.0072,-3.9997,-4.0148,-4.0374,-4.075,-4.1144,-4.1871,-4.2592,-4.2739,-5.3465,-5.3544,-5.3521,-5.2843,-5.1879,-5.1639,-5.1373,-5.1087,-5.1087,-5.1642,-5.3191,-5.3524,-5.3236,-5.3535,-5.238,-5.1554,-5.087,-4.9842,-4.9097,-4.8786,-4.8676,-4.8485,-4.8418,-4.8418,-4.8694,-4.9158,-4.9342,-4.9186,-4.9114,-4.9034,-4.8907,-4.8374,-4.7913,-4.7157,-4.6215,-4.5537,-4.4962,-4.4175,-4.4741,-4.4782,-4.4253,-4.4551,-4.4459,-4.39,-4.3498,-4.3393,-4.3234,-4.3129,-4.2952,-4.326,-4.2589,-4.2675,-4.3106,-4.3365,-4.3537,-4.388,-4.3537,-4.3451,-4.3622,-4.3451,-4.3279,-4.3365,-4.326,-4.3156,-4.2916,-4.2725,-4.2621,-4.238,-4.226,-4.2156,-4.1982,-4.1894,-4.1894,-4.1911,-4.1947,-4.2156,-4.2269,-4.1702,-4.1332,-4.1599,-4.1589,-4.1597,-4.1552,-4.1589,-4.138,-4.1142,-4.1206,-4.1078,-4.0858,-4.0561,-4.0088,-3.9747,-3.9688,-3.9447,-3.9239,-3.9144,-3.9296,-3.9296,-3.9391,-3.9543,-3.9827,-4.0129,-4.0561,-4.0956,-4.1275,-4.1125,-4.1125,-4.1125,-4.1125,-4.107,-4.1424,-4.2168,-4.2887,-4.362,-4.4203,-5.433,-5.4588,-5.4588,-5.4284,-5.3869,-5.3634,-5.3067,-5.2382,-5.243,-5.2708,-5.2863,-5.3284,-5.3895,-5.4367,-5.3149,-5.2739,-5.266,-5.1813,-5.1231,-5.1134,-5.0296,-4.9964,-4.9895,-5.0049,-5.0281,-5.0682,-5.0791,-5.0436,-5.005,-4.9785,-4.9483,-4.8963,-4.8456,-4.7628,-4.69,-4.6558,-4.5681,-4.5017,-4.5044,-4.4977,-4.4382,-4.4595,-4.439,-4.3502,-4.3063,-4.2894,-4.307,-4.3109,-4.3328,-4.3537,-4.3622,-4.3965,-4.4564,-4.4478,-4.4374,-4.4564,-4.4393,-4.4374,-4.4203,-4.4051,-4.391,-4.3965,-4.3284,-4.3121,-4.3218,-4.2859,-4.2706,-4.2807,-4.2812,-4.2916,-4.2898,-4.2644,-4.2336,-4.2264,-4.1938,-4.1768,-4.1826,-4.1581,-4.1248,-4.141,-4.1219,-4.1237,-4.1454,-4.1595,-4.1454,-4.0942,-4.0905,-4.0798,-4.0594,-4.0412,-4.008,-4.0085,-4.0054,-3.994,-3.9694,-3.977,-3.9846,-3.9997,-4.0148,-4.0449,-4.0709,-4.1306,-4.1905,-4.2444,-4.2887,-4.2686,-4.2316,-4.239,-4.237,-4.2316,-4.2518,-4.3181,-4.3912,-4.4638,-4.5359,-5.4954,-5.5164,-5.5164,-5.5396,-5.5551,-5.5296,-5.4597,-5.3724,-5.3946,-5.3701,-5.3173,-5.347,-5.4231,-5.4988,-5.3953,-5.3482,-5.3996,-5.3179,-5.3249,-5.3566,-5.2194,-5.1854,-5.2241,-5.1888,-5.1992,-5.1948,-5.2051,-5.1767,-5.1172,-5.0762,-5.0289,-4.9849,-4.918,-4.8473,-4.7711,-4.7351,-4.6902,-4.5972,-4.5559,-4.5379,-4.5237,-4.5147,-4.466,-4.3894,-4.3471,-4.3135,-4.3084,-4.3372,-4.3687,-4.3942,-4.4517,-4.4996,-4.546,-4.5329,-4.5195,-4.523,-4.5153,-4.4908,-4.4504,-4.4454,-4.442,-4.4082,-4.3398,-4.2843,-4.3184,-4.2565,-4.2518,-4.282,-4.3022,-4.2772,-4.2699,-4.2398,-4.2094,-4.1929,-4.1544,-4.1248,-4.0985,-4.0997,-4.1027,-4.1143,-4.1064,-4.1096,-4.1279,-4.1227,-4.11,-4.0824,-4.0542,-4.0412,-4.0281,-4.0149,-4.0243,-4.051,-4.0544,-4.0563,-4.0449,-4.0525,-4.0619,-4.0694,-4.107,-4.1424,-4.172,-4.2154,-4.2931,-4.3599,-4.4234,-4.4058,-4.3641,-4.362,-4.3526,-4.3547,-4.3693,-4.4276,-4.4927,-4.5646,-4.6381,-5.632,-5.6396,-5.6396,-5.6396,-5.642,-5.6396,-5.6166,-5.6013,-5.5692,-5.5949,-5.6342,-5.6484,-5.6403,-5.7212,-5.5285,-5.4539,-5.424,-5.3081,-5.2365,-5.2348,-5.2374,-5.2686,-5.3766,-5.3096,-5.2594,-5.2464,-5.2177,-5.231,-5.2332,-5.1791,-5.1417,-5.1042,-4.9756,-4.8832,-4.8512,-4.7659,-4.6816,-4.6481,-4.5891,-4.5843,-4.6192,-4.5891,-4.5488,-4.5029,-4.4831,-4.4672,-4.4394,-4.4124,-4.4118,-4.4899,-4.5063,-4.5604,-4.6083,-4.62,-4.6182,-4.6106,-4.5988,-4.5648,-4.535,-4.5011,-4.4632,-4.397,-4.3693,-4.3195,-4.2395,-4.2076,-4.1876,-4.1946,-4.1442,-4.179,-4.1772,-4.1543,-4.1514,-4.1484,-4.1348,-4.0873,-4.041,-4.0168,-4.0168,-4.0244,-4.0282,-4.0186,-4.0168,-4.0225,-4.0358,-4.0643,-4.0681,-4.0642,-4.0678,-4.0525,-4.0675,-4.092,-4.107,-4.1164,-4.1294,-4.131,-4.1306,-4.1356,-4.1774,-4.1759,-4.2032,-4.2902,-4.3741,-4.4541,-4.5021,-4.5021,-4.4972,-4.4834,-4.4545,-4.4689,-4.5316,-4.5624,-4.6003,-4.6997,-4.7559,-5.6573,-5.6573,-5.6573,-5.6573,-5.6573,-5.6573,-5.6573,-5.6549,-5.6372,-5.6581,-5.6866,-5.6752,-5.7085,-5.7487,-5.6156,-5.5621,-5.5728,-5.4698,-5.4151,-5.4241,-5.4449,-5.4915,-5.5196,-5.5108,-5.4601,-5.4359,-5.4382,-5.4174,-5.3819,-5.3272,-5.272,-5.214,-5.1242,-5.0578,-4.9916,-4.9225,-4.8663,-4.8174,-4.731,-4.6814,-4.7285,-4.6966,-4.6568,-4.574,-4.5338,-4.4903,-4.4569,-4.4074,-4.4489,-4.5807,-4.6657,-4.688,-4.6734,-4.7133,-4.7572,-4.7717,-4.7465,-4.6951,-4.6561,-4.5935,-4.5163,-4.4257,-4.3253,-4.2858,-4.2613,-4.2028,-4.1926,-4.1907,-4.1977,-4.1977,-4.1977,-4.1977,-4.1752,-4.1321,-4.1207,-4.1102,-4.0829,-4.0544,-4.0393,-4.0318,-4.0223,-4.0072,-4.0072,-4.0261,-4.0432,-4.0638,-4.0939,-4.1144,-4.1294,-4.1219,-4.1219,-4.1518,-4.1667,-4.2039,-4.2168,-4.196,-4.1843,-4.1765,-4.1899,-4.1546,-4.2104,-4.3158,-4.418,-4.5215,-4.5785,-4.6263,-4.6849,-4.7141,-4.6329,-4.6034,-4.6978,-4.7514,-4.7887,-4.8605,-4.8881,-5.6954,-5.6954,-5.6954,-5.6954,-5.6954,-5.6954,-5.6954,-5.6954,-5.6778,-5.6702,-5.6725,-5.6625,-5.6795,-5.7162,-5.6344,-5.6236,-5.6308,-5.6053,-5.5964,-5.6024,-5.6521,-5.6467,-5.6427,-5.6473,-5.632,-5.6037,-5.5906,-5.5694,-5.4845,-5.415,-5.3447,-5.2708,-5.1895,-5.1447,-5.1133,-5.0319,-4.9991,-4.9529,-4.8322,-4.7771,-4.7977,-4.7888,-4.7284,-4.6393,-4.5951,-4.5285,-4.4472,-4.4586,-4.54,-4.6627,-4.7545,-4.7782,-4.7402,-4.7939,-4.8247,-4.8324,-4.821,-4.792,-4.7219,-4.6677,-4.5851,-4.478,-4.4094,-4.3276,-4.3194,-4.251,-4.222,-4.206,-4.2192,-4.2135,-4.2154,-4.2135,-4.1886,-4.137,-4.1216,-4.1242,-4.1219,-4.1089,-4.0939,-4.092,-4.0825,-4.0731,-4.0731,-4.09,-4.1219,-4.1369,-4.1593,-4.1797,-4.2094,-4.2094,-4.2242,-4.239,-4.2404,-4.2793,-4.2935,-4.2616,-4.227,-4.2161,-4.199,-4.1763,-4.2616,-4.3365,-4.434,-4.5547,-4.5862,-4.6155,-4.7223,-4.8162,-4.7751,-4.6703,-4.736,-4.7602,-4.8399,-4.9065,-4.9214,-5.7835,-5.7859,-5.7835,-5.7886,-5.7886,-5.7662,-5.7662,-5.7735,-5.7237,-5.7037,-5.7058,-5.6854,-5.6721,-5.6544,-5.6238,-5.606,-5.6007,-5.5684,-5.5521,-5.5599,-5.5646,-5.5825,-5.6113,-5.6473,-5.6477,-5.633,-5.643,-5.5877,-5.487,-5.4224,-5.3232,-5.2432,-5.1741,-5.0841,-5.0729,-5.0332,-4.992,-4.9359,-4.8349,-4.8156,-4.8715,-4.814,-4.7692,-4.7647,-4.7343,-4.6656,-4.5733,-4.6371,-4.67,-4.6195,-4.6906,-4.7537,-4.8095,-4.8377,-4.8219,-4.8076,-4.7856,-4.7656,-4.7229,-4.6965,-4.6606,-4.576,-4.532,-4.4983,-4.3496,-4.3105,-4.2712,-4.1801,-4.163,-4.1457,-4.142,-4.144,-4.1476,-4.1262,-4.1672,-4.1742,-4.1797,-4.1891,-4.1945,-4.1945,-4.202,-4.2168,-4.1871,-4.2168,-4.2464,-4.2686,-4.2759,-4.2887,-4.3034,-4.3034,-4.3348,-4.3339,-4.3215,-4.3517,-4.3628,-4.3205,-4.2486,-4.24,-4.2377,-4.2586,-4.3359,-4.3473,-4.4006,-4.5009,-4.5748,-4.604,-4.6603,-4.7256,-4.7304,-4.7356,-4.7475,-4.7363,-4.7778,-4.8395,-4.8635,-5.9473,-6.0229,-5.9351,-5.903,-5.9128,-5.7451,-5.7227,-5.7764,-5.6906,-5.7003,-5.7487,-5.7485,-5.7233,-5.6906,-5.6525,-5.6219,-5.5989,-5.5527,-5.5574,-5.5782,-5.5782,-5.5836,-5.5989,-5.6396,-5.6263,-5.5765,-5.5846,-5.5418,-5.4456,-5.4336,-5.4023,-5.3423,-5.3062,-5.2579,-5.2241,-5.1608,-5.1162,-5.0713,-4.9808,-4.9508,-4.9624,-4.9505,-4.9386,-4.9226,-4.8351,-4.7632,-4.7234,-4.8135,-4.8601,-4.8234,-4.7081,-4.6681,-4.6971,-4.7554,-4.8159,-4.8459,-4.8644,-4.8319,-4.7557,-4.7489,-4.6997,-4.6075,-4.5861,-4.5338,-4.4689,-4.4421,-4.3766,-4.2612,-4.2316,-4.202,-4.1444,-4.1239,-4.1945,-4.3181,-4.3327,-4.3474,-4.3547,-4.3401,-4.3401,-4.3839,-4.387,-4.3777,-4.3797,-4.3943,-4.4058,-4.3766,-4.3912,-4.4058,-4.3599,-4.3558,-4.3891,-4.4047,-4.3792,-4.3769,-4.4066,-4.3576,-4.281,-4.2788,-4.2898,-4.3389,-4.3756,-4.3689,-4.3735,-4.4823,-4.5644,-4.5935,-4.6822,-4.721,-4.7096,-4.7796,-4.8141,-4.8002,-4.7858,-4.829,-4.8093,-6.0098,-6.1161,-5.9834,-5.936,-5.9229,-5.7661,-5.723,-5.7764,-5.7129,-5.7203,-5.7813,-5.7886,-5.7735,-5.7385,-5.6906,-5.6601,-5.6372,-5.5936,-5.5936,-5.6166,-5.6143,-5.6143,-5.6219,-5.6525,-5.6203,-5.5367,-5.5301,-5.4793,-5.3945,-5.3987,-5.3792,-5.3363,-5.322,-5.3104,-5.2654,-5.2171,-5.1717,-5.1507,-5.0884,-5.0457,-5.0365,-5.0389,-5.0321,-5.023,-4.9339,-4.8835,-4.888,-4.9568,-4.9768,-4.9345,-4.7855,-4.6719,-4.6669,-4.7406,-4.8278,-4.9027,-4.9357,-4.9133,-4.8582,-4.8397,-4.8049,-4.7489,-4.7186,-4.6855,-4.6244,-4.6266,-4.5624,-4.4203,-4.3766,-4.3327,-4.2538,-4.2114,-4.3034,-4.5338,-4.5266,-4.5071,-4.546,-4.5122,-4.5143,-4.5503,-4.5553,-4.5366,-4.5273,-4.512,-4.5006,-4.4629,-4.4237,-4.3995,-4.3472,-4.3345,-4.3606,-4.389,-4.3997,-4.3782,-4.4023,-4.3853,-4.3392,-4.3433,-4.3686,-4.4165,-4.4094,-4.4058,-4.413,-4.4715,-4.5412,-4.6126,-4.7196,-4.749,-4.7014,-4.7221,-4.7587,-4.788,-4.8232,-4.8153,-4.7768,-5.9427,-6.0379,-5.9176,-5.881,-5.8731,-5.8353,-5.8153,-5.8264,-5.8065,-5.8091,-5.814,-5.8013,-5.8015,-5.7713,-5.7191,-5.7288,-5.7439,-5.7312,-5.7133,-5.6906,-5.673,-5.673,-5.6601,-5.6906,-5.648,-5.5518,-5.4962,-5.4082,-5.3034,-5.303,-5.259,-5.1803,-5.1761,-5.1858,-5.1541,-5.1596,-5.1364,-5.1119,-5.1027,-5.0796,-5.0433,-5.0433,-5.0433,-5.0433,-5.0342,-5.0318,-5.0699,-5.0429,-4.9768,-4.8932,-4.8538,-4.815,-4.7107,-4.7901,-4.8723,-4.8871,-4.9749,-5.025,-5.023,-4.9774,-4.9729,-4.9729,-4.9797,-4.8927,-4.8142,-4.8212,-4.7724,-4.6195,-4.5574,-4.5143,-4.4617,-4.4037,-4.4647,-4.693,-4.6395,-4.6188,-4.6844,-4.6767,-4.6408,-4.6303,-4.6544,-4.6811,-4.6422,-4.5966,-4.5591,-4.5276,-4.4583,-4.3783,-4.3465,-4.3441,-4.298,-4.2958,-4.3452,-4.3941,-4.4064,-4.4211,-4.4147,-4.408,-4.4415,-4.459,-4.4448,-4.4448,-4.4531,-4.4711,-4.5454,-4.5852,-4.6842,-4.6753,-4.6379,-4.6541,-4.6511,-4.6852,-4.7194,-4.7429,-4.721,-6.0446,-6.1567,-6.045,-6.011,-6.0246,-5.9498,-5.9585,-6.0343,-6.0439,-5.9974,-5.9177,-5.9273,-5.8536,-5.7254,-5.6984,-5.833,-6.1152,-6.0917,-6.0222,-5.9299,-5.8783,-5.8164,-5.7388,-5.6906,-5.6353,-5.5567,-5.4408,-5.3058,-5.1811,-5.1888,-5.1852,-5.1535,-5.1486,-5.1486,-5.1486,-5.1486,-5.151,-5.1376,-5.1309,-5.1242,-5.1175,-5.1175,-5.1108,-5.1108,-5.1151,-5.0811,-5.0148,-4.973,-4.9051,-4.8042,-4.7171,-4.6519,-4.6304,-4.714,-4.8048,-4.8789,-4.9792,-5.0389,-5.0365,-5.023,-5.0206,-5.0365,-5.0206,-5.007,-4.9705,-4.9705,-4.9065,-4.8142,-4.7584,-4.7,-4.6293,-4.6151,-4.6522,-4.6908,-4.6726,-4.634,-4.5976,-4.6197,-4.6087,-4.5864,-4.6289,-4.6686,-4.6614,-4.6556,-4.6286,-4.5912,-4.5551,-4.4906,-4.4447,-4.4272,-4.4249,-4.4445,-4.414,-4.412,-4.4358,-4.4502,-4.4512,-4.4522,-4.4742,-4.4801,-4.4801,-4.4801,-4.4884,-4.5088,-4.5352,-4.5676,-4.5803,-4.5731,-4.5914,-4.6252,-4.6407,-4.6554,-4.6668,-4.6839,-4.6934,-6.0837,-6.1512,-6.0746,-6.0842,-6.1468,-6.0726,-6.1031,-6.2066,-6.2323,-6.1778,-6.1021,-6.1143,-6.0543,-5.9105,-5.9032,-6.0517,-6.3191,-6.3079,-6.2548,-6.1605,-6.0316,-5.9576,-5.9223,-5.8115,-5.7303,-5.6733,-5.5626,-5.3978,-5.2107,-5.1952,-5.2018,-5.1885,-5.1843,-5.1777,-5.171,-5.1843,-5.1777,-5.171,-5.1644,-5.1619,-5.151,-5.1486,-5.129,-5.0924,-5.0875,-5.0321,-4.9247,-4.899,-4.8353,-4.7336,-4.6474,-4.5858,-4.5508,-4.6014,-4.7024,-4.8419,-4.9525,-5.0338,-5.0699,-5.0636,-5.0636,-5.0704,-5.066,-5.0569,-5.0521,-5.0276,-4.9768,-4.8912,-4.855,-4.8046,-4.7249,-4.7338,-4.7398,-4.7041,-4.6835,-4.6471,-4.5873,-4.6099,-4.6292,-4.5947,-4.6292,-4.6805,-4.6789,-4.6664,-4.6363,-4.5937,-4.5441,-4.4829,-4.441,-4.4243,-4.4105,-4.4312,-4.4209,-4.4159,-4.4611,-4.481,-4.4918,-4.4918,-4.4893,-4.4893,-4.4976,-4.5035,-4.5078,-4.5234,-4.568,-4.5979,-4.5839,-4.579,-4.5955,-4.6267,-4.6554,-4.6725,-4.6839,-4.6839,-4.6839,-6.0669,-6.0025,-6.0286,-6.0977,-6.1863,-6.1919,-6.2567,-6.365,-6.3757,-6.3551,-6.3347,-6.3443,-6.3509,-6.3593,-6.3226,-6.3308,-6.3688,-6.3865,-6.3796,-6.3318,-6.1499,-6.1136,-6.2284,-6.0569,-5.9491,-5.9056,-5.8045,-5.6249,-5.369,-5.3252,-5.2915,-5.2587,-5.2546,-5.2307,-5.2084,-5.2307,-5.2283,-5.1927,-5.1738,-5.1679,-5.1552,-5.157,-5.0999,-5.0042,-4.9815,-4.9286,-4.832,-4.8173,-4.7685,-4.6611,-4.6453,-4.599,-4.5088,-4.4932,-4.593,-4.7891,-4.9085,-5.015,-5.0938,-5.0793,-5.0775,-5.1133,-5.072,-5.0713,-5.0447,-4.9961,-4.937,-4.8782,-4.8335,-4.7949,-4.7443,-4.7514,-4.7379,-4.6782,-4.6798,-4.6623,-4.6105,-4.6292,-4.6679,-4.6457,-4.6442,-4.6536,-4.6742,-4.616,-4.572,-4.542,-4.4509,-4.371,-4.3671,-4.3456,-4.3396,-4.3349,-4.3747,-4.4367,-4.4766,-4.4918,-4.4918,-4.4976,-4.5035,-4.4952,-4.5035,-4.5127,-4.5228,-4.5426,-4.5657,-4.5773,-4.5855,-4.5995,-4.6135,-4.6414,-4.67,-4.6984,-4.7184,-4.6984,-4.7184,-6.0543,-6.0314,-6.0429,-6.1288,-6.2597,-6.3482,-6.4766,-6.6067,-6.7064,-6.6405,-6.4744,-6.4828,-6.588,-6.732,-6.7314,-6.7407,-6.7434,-6.7463,-6.6857,-6.5756,-6.4851,-6.4206,-6.3796,-6.2785,-6.188,-6.092,-5.9243,-5.7386,-5.5602,-5.4128,-5.3331,-5.3241,-5.3176,-5.3045,-5.2809,-5.2809,-5.2546,-5.1944,-5.1138,-5.1056,-5.1531,-5.1917,-5.1609,-5.0543,-4.9753,-4.8685,-4.7429,-4.7356,-4.6744,-4.5454,-4.5381,-4.5235,-4.4918,-4.4893,-4.5551,-4.7002,-4.8076,-4.8808,-4.9101,-4.8997,-4.8997,-4.9061,-4.9061,-4.8957,-4.8884,-4.8729,-4.8559,-4.8296,-4.7603,-4.7032,-4.6988,-4.7322,-4.7183,-4.6347,-4.6089,-4.5669,-4.4927,-4.4821,-4.499,-4.4821,-4.5133,-4.4978,-4.5136,-4.5231,-4.5133,-4.5157,-4.4783,-4.4448,-4.4448,-4.4389,-4.4389,-4.4306,-4.4448,-4.4766,-4.4859,-4.4918,-4.5035,-4.5151,-4.5219,-4.5228,-4.5558,-4.4906,-4.4647,-4.4678,-4.4902,-4.5014,-4.507,-4.5968,-4.6542,-4.6706,-4.6933,-4.7195,-4.7552,-4.7943,-4.822,-6.0831,-6.1348,-6.083,-6.1838,-6.3776,-6.5139,-6.6566,-6.7851,-6.8695,-6.8137,-6.6704,-6.5768,-6.614,-6.7415,-6.7415,-6.7415,-6.7415,-6.7415,-6.6924,-6.6028,-6.4822,-6.4368,-6.4215,-6.312,-6.236,-6.1901,-6.0397,-5.9028,-5.783,-5.6359,-5.5337,-5.5086,-5.5086,-5.4661,-5.3956,-5.4398,-5.4092,-5.2994,-5.2752,-5.237,-5.1951,-5.1793,-5.122,-5.0151,-4.9505,-4.8392,-4.6789,-4.6547,-4.6192,-4.54,-4.5268,-4.5326,-4.5268,-4.5268,-4.5621,-4.631,-4.7282,-4.8031,-4.8323,-4.8385,-4.8347,-4.8246,-4.8309,-4.8309,-4.8222,-4.7832,-4.7392,-4.6892,-4.6343,-4.5893,-4.5966,-4.6271,-4.6234,-4.5642,-4.5413,-4.5076,-4.4213,-4.4319,-4.4354,-4.4319,-4.4354,-4.4496,-4.4649,-4.4801,-4.4893,-4.4893,-4.4893,-4.4859,-4.4893,-4.4893,-4.4893,-4.4893,-4.4893,-4.4893,-4.4893,-4.5035,-4.5234,-4.5335,-4.5237,-4.5054,-4.5026,-4.4416,-4.3832,-4.3861,-4.4079,-4.4241,-4.4374,-4.5143,-4.5524,-4.5689,-4.5985,-4.6925,-4.7891,-4.833,-4.835,-6.1377,-6.2358,-6.1347,-6.2416,-6.4681,-6.599,-6.727,-6.8433,-6.8637,-6.8666,-6.8138,-6.6165,-6.5176,-6.5089,-6.471,-6.4507,-6.4448,-6.4157,-6.4099,-6.4126,-6.2494,-6.2543,-6.4036,-6.2524,-6.1953,-6.2427,-6.1658,-6.082,-6.013,-5.8939,-5.8067,-5.7532,-5.733,-5.6462,-5.5322,-5.602,-5.5873,-5.4345,-5.5449,-5.5001,-5.2974,-5.1761,-5.0663,-4.9743,-4.9472,-4.8272,-4.6576,-4.621,-4.6077,-4.5962,-4.6045,-4.5987,-4.5987,-4.5962,-4.5987,-4.6037,-4.691,-4.7703,-4.829,-4.8414,-4.8216,-4.814,-4.8117,-4.8117,-4.7869,-4.7209,-4.6289,-4.5578,-4.52,-4.5225,-4.5093,-4.5132,-4.5113,-4.4912,-4.4946,-4.4742,-4.4378,-4.4624,-4.4801,-4.4614,-4.4742,-4.4976,-4.4976,-4.5035,-4.5035,-4.5035,-4.4976,-4.4893,-4.4893,-4.4893,-4.4918,-4.5127,-4.498,-4.5038,-4.5219,-4.5418,-4.5443,-4.5657,-4.5051,-4.4852,-4.4588,-4.397,-4.3099,-4.3413,-4.3419,-4.3523,-4.3627,-4.3805,-4.3881,-4.4527,-4.5121,-4.6001,-4.7364,-4.8362,-4.8538,-6.1257,-6.1574,-6.1226,-6.1515,-6.2181,-6.3518,-6.4798,-6.5932,-6.599,-6.599,-6.5932,-6.5379,-6.5118,-6.4798,-6.1806,-6.0445,-6.0011,-5.7214,-5.7557,-6.0213,-5.9933,-6.1578,-6.456,-6.4469,-6.4201,-6.3925,-6.2417,-6.1461,-6.0838,-5.9299,-5.842,-5.8131,-5.7214,-5.6431,-5.581,-5.5064,-5.4254,-5.3548,-5.5422,-5.6257,-5.591,-5.3941,-5.3204,-5.3563,-5.1316,-4.9655,-4.903,-4.8557,-4.7754,-4.6712,-4.6851,-4.6825,-4.6598,-4.6769,-4.6851,-4.6681,-4.7023,-4.7277,-4.7242,-4.7086,-4.6936,-4.6844,-4.6618,-4.6383,-4.6207,-4.6842,-4.7193,-4.6763,-4.651,-4.6282,-4.6102,-4.5847,-4.5583,-4.5317,-4.5351,-4.5161,-4.4801,-4.4801,-4.4893,-4.4859,-4.5118,-4.5326,-4.5351,-4.5525,-4.5525,-4.5293,-4.5118,-4.4918,-4.4893,-4.4893,-4.5384,-4.5845,-4.5609,-4.5358,-4.6478,-4.5691,-4.5483,-4.6692,-4.6351,-4.5667,-4.5045,-4.4498,-4.3836,-4.291,-4.278,-4.283,-4.2908,-4.3424,-4.4043,-4.4198,-4.4406,-4.521,-4.673,-4.8378,-4.9553,-6.1571,-6.2036,-6.1484,-6.1571,-6.2152,-6.2821,-6.3925,-6.4885,-6.256,-6.1429,-6.1602,-6.2993,-6.3633,-6.3429,-6.1415,-6.0506,-6.0419,-5.8239,-5.8414,-6.0393,-6.04,-6.1536,-6.343,-6.3431,-6.3256,-6.3024,-6.1982,-6.1462,-6.1201,-6.0283,-5.9455,-5.8803,-5.8207,-5.7103,-5.5864,-5.553,-5.4946,-5.4003,-5.4215,-5.439,-5.452,-5.3919,-5.3581,-5.3705,-5.2636,-5.1586,-5.0893,-5.0014,-4.9153,-4.8417,-4.8472,-4.8527,-4.8336,-4.8527,-4.8417,-4.8005,-4.8362,-4.8336,-4.7891,-4.7694,-4.7328,-4.6731,-4.682,-4.7077,-4.7419,-4.7724,-4.8002,-4.8197,-4.7501,-4.702,-4.6989,-4.6137,-4.5409,-4.5126,-4.5239,-4.5214,-4.5044,-4.4963,-4.5129,-4.5492,-4.5335,-4.5211,-4.5476,-4.5608,-4.5583,-4.5293,-4.5059,-4.5035,-4.5326,-4.4743,-4.4497,-4.5164,-4.4841,-4.4819,-4.5339,-4.4736,-4.474,-4.5769,-4.5322,-4.4679,-4.4404,-4.3321,-4.2617,-4.2191,-4.1986,-4.206,-4.2303,-4.2755,-4.3118,-4.3397,-4.3613,-4.4503,-4.5863,-4.7499,-4.9018,-6.1571,-6.2501,-6.1252,-6.1223,-6.2008,-6.2065,-6.2531,-6.3111,-5.9646,-5.7992,-5.8031,-6.0707,-6.1839,-6.181,-6.1527,-6.137,-6.1286,-6.0726,-6.0815,-6.137,-6.1127,-6.1311,-6.1839,-6.1532,-6.1364,-6.1335,-6.1308,-6.1308,-6.1308,-6.1252,-6.0554,-5.9392,-5.9272,-5.8026,-5.5869,-5.6192,-5.592,-5.4816,-5.2951,-5.2194,-5.2495,-5.3475,-5.3503,-5.2712,-5.359,-5.3455,-5.216,-5.1117,-5.0325,-4.9759,-4.9812,-4.9702,-4.9486,-4.9404,-4.9411,-4.9125,-4.9522,-4.9469,-4.8806,-4.8779,-4.8188,-4.701,-4.7579,-4.848,-4.9285,-4.8672,-4.8484,-4.902,-4.792,-4.7286,-4.7234,-4.6024,-4.4997,-4.4641,-4.4751,-4.4914,-4.478,-4.4805,-4.5025,-4.5716,-4.5111,-4.4744,-4.5051,-4.5136,-4.4997,-4.4752,-4.44,-4.4678,-4.4927,-4.436,-4.3779,-4.3938,-4.3705,-4.3654,-4.4353,-4.3834,-4.3965,-4.4534,-4.3809,-4.3343,-4.333,-4.2546,-4.1888,-4.1722,-4.1681,-4.1675,-4.1978,-4.1851,-4.2063,-4.2337,-4.3045,-4.403,-4.5477,-4.6647,-4.7924,-5.9712,-5.9854,-5.8661,-5.7596,-5.6602,-5.6573,-5.6035,-5.5406,-6.0398,0.0,0.0,-6.188,-6.2141,-6.1935,-5.8729,-5.7235,-5.7029,-5.3813,-5.4078,-5.7205,-5.7213,-5.8971,-6.2082,-6.2086,-6.2031,-6.2031,-6.1839,-6.1757,-6.1672,-6.1393,-6.0554,-5.9417,-5.9272,-5.805,-5.5695,-5.4685,-5.4133,-5.3871,-5.3533,-5.4348,-5.6415,-5.5666,-5.5548,-5.6061,-5.5602,-5.4263,-5.1999,-5.2236,-5.0961,-4.8012,-4.8049,-4.7605,-4.6286,-4.6449,-4.692,-4.7566,-4.8027,-4.8027,-4.755,-4.755,-4.7351,-4.6901,-4.7279,-4.7596,-4.7682,-4.8021,-4.8147,-4.8076,-4.7577,-4.6928,-4.6089,-4.5545,-4.4873,-4.4036,-4.3957,-4.3904,-4.3718,-4.3665,-4.3794,-4.384,-4.4002,-4.3953,-4.4127,-4.4017,-4.3783,-4.3618,-4.3419,-4.3136,-4.3439,-4.4118,-4.4658,-4.5036,-4.4348,-4.4364,-4.5178,-4.456,-4.4248,-4.5134,-4.5036,-4.4592,-4.3897,-4.354,-4.3199,-4.2364,-4.2204,-4.2204,-4.2297,-4.2297,-4.2343,-4.2574,-4.3376,-4.4386,-4.5791,-4.7256,-4.8627,-5.8795,-5.9284,-5.9477,-5.8474,0.0,-5.9318,-5.7027,-5.1957,-5.5539,-5.7801,-5.9147,-6.0739,-6.1764,-6.2267,-6.0448,-5.964,-5.9521,-5.7571,-5.7719,-5.961,-5.9484,-6.0497,-6.2386,-6.2306,-6.2226,-6.2196,-6.2086,-6.2005,-6.2005,-6.181,-6.0729,-5.8825,-5.8825,-5.7214,-5.4089,-5.3894,-5.3894,-5.402,-5.3106,-5.3349,-5.4701,-5.4689,-5.483,-5.5258,-5.5622,0.0,0.0,0.0,0.0,0.0,0.0,0.0,0.0,0.0,0.0,-4.5116,-4.3804,-4.2827,-4.2379,-4.2337,-4.3078,-4.4808,-4.4703,-4.4171,-4.3475,-4.6377,-4.786,-4.6991,-4.7287,-4.7363,-4.6863,-4.5948,-4.5114,-4.4351,-4.4151,-4.4001,-4.375,-4.3523,-4.3578,-4.3888,-4.3759,-4.3655,-4.3913,-4.3964,-4.3964,-4.3756,-4.3493,-4.3413,-4.36,-4.4046,-4.4273,-4.447,-4.3949,-4.3868,-4.4281,-4.3502,-4.3231,-4.4117,-4.4065,-4.3605,-4.3288,-4.3275,-4.3134,-4.2736,-4.2712,-4.2776,-4.2776,-4.2895,-4.3032,-4.3232,-4.3966,-4.5116,-4.683,-4.8139,-4.9401,-5.8164,-5.9263,-6.0159,-5.9362,-5.799,-6.3077,-6.0148,-5.1979,-5.2622,-5.4148,-5.6542,-5.9298,-6.1114,-6.2122,-6.244,-6.2567,-6.262,-6.2724,-6.2845,-6.3011,-6.2694,-6.263,-6.282,-6.2495,-6.2331,-6.2331,-6.2276,-6.2276,-6.2276,-6.2251,-6.0986,-5.8715,-5.8685,-5.6974,-5.3817,0.0,0.0,0.0,-5.3376,-5.2724,-5.2925,-5.3718,-5.401,-5.3777,-5.5201,0.0,-5.4901,-5.4362,-5.3572,-5.2602,-5.163,0.0,0.0,0.0,0.0,0.0,0.0,0.0,0.0,0.0,0.0,0.0,-4.0351,-3.9822,-3.9642,-4.3958,-4.6013,-4.4317,-4.6153,-4.726,-4.6743,-4.5832,-4.5167,-4.4637,-4.4355,-4.4193,-4.4003,-4.345,-4.3433,-4.4159,-4.3625,-4.3315,-4.3649,-4.3883,-4.3831,-4.3652,-4.3731,-4.3833,-4.4082,-4.4063,-4.3826,-4.353,-4.3577,-4.3349,-4.3005,-4.2766,-4.2866,-4.305,-4.2776,-4.2693,-4.2995,-4.2831,-4.262,-4.2895,-4.3005,-4.3168,-4.3304,-4.3394,-4.353,-4.3592,-4.443,-4.5727,-4.7464,-4.8565,-4.9712,-5.7938,-5.8635,-5.7667,-5.6227,-5.5256,-6.2076,-6.1968,-5.7152,-5.9972,-5.9989,-5.7913,-5.9342,-6.0178,-6.0578,-6.0959,-6.1219,-6.1508,-6.1779,-6.24,-6.3097,-6.2612,-6.2909,-6.3735,-6.3167,-6.2868,-6.2868,-6.2658,-6.252,-6.252,-6.2276,-6.1459,-6.0072,-6.0013,-5.9187,-5.7636,-5.681,-5.6434,-5.6434,-5.5991,-5.5783,-5.5833,-5.596,-5.539,-5.4138,-5.528,-5.4771,-5.2398,-5.3397,-5.2326,-4.886,-4.8674,-4.7577,-4.5249,-4.448,-4.2578,0.0,-3.8805,0.0,0.0,0.0,0.0,0.0,0.0,0.0,0.0,-4.0486,-4.0434,-3.7808,-4.2769,-4.4954,-4.216,-4.3776,-4.4703,-4.3965,-4.3541,-4.3296,-4.325,-4.2836,-4.2565,-4.2679,-4.2572,-4.2518,-4.2618,-4.2234,-4.2092,-4.2414,-4.2488,-4.3034,-4.4124,-4.4483,-4.4422,-4.4362,-4.4318,-4.423,-4.3904,-4.3815,-4.3832,-4.3921,-4.3787,-4.3921,-4.3876,-4.3412,-4.3095,-4.3349,-4.3304,-4.3349,-4.3781,-4.3664,-4.3619,-4.3871,-4.4759,-4.5897,-4.7053,-4.8204,-4.8983,-5.784,-5.8838,-5.8996,-5.8442,-5.7709,-6.0857,-6.0744,-5.8527,-5.9903,-5.9587,-5.8116,-5.9343,-6.0318,-6.1093,-6.1282,-6.1422,-6.1562,-6.1716,-6.1982,-6.2405,-6.2168,-6.2333,-6.2757,-6.2233,-6.1964,-6.1814,-6.1439,-6.1132,-6.0904,-6.0748,-5.9988,-5.8533,-5.8533,-5.7543,-5.561,-5.6529,-5.7045,-5.7191,-5.6442,-5.5957,-5.5862,-5.5487,-5.5007,-5.4273,-5.4997,-5.4683,-5.3277,-5.3545,-5.2766,-5.0793,-4.9476,-4.8174,-4.6978,-4.2668,-4.003,0.0,0.0,0.0,0.0,0.0,0.0,0.0,0.0,0.0,0.0,0.0,-3.5916,-3.7518,-4.2772,-4.4014,-3.8914,-4.0784,-4.212,-4.1649,-3.9955,-4.0081,-4.3243,-4.186,-4.1118,-4.2248,-4.2528,-4.262,-4.262,-4.2501,-4.2593,-4.3032,-4.3277,-4.3654,-4.4406,-4.51,-4.5357,-4.5172,-4.5257,-4.5186,-4.5086,-4.4537,-4.3982,-4.3698,-4.3726,-4.3771,-4.3637,-4.3574,-4.3574,-4.353,-4.3692,-4.3854,-4.3915,-4.3915,-4.4032,-4.4298,-4.4913,-4.589,-4.7137,-4.783,-4.8537,-5.8221,-5.9177,-5.8526,-5.8196,-5.8035,-5.8002,-5.8009,-5.7948,-5.8012,-5.7632,-5.7147,-5.7012,-5.7546,-5.8358,-5.744,-5.7893,-5.9295,-5.9381,-6.0354,-6.1938,-6.1759,-6.1722,-6.1808,-6.1453,-6.1077,-6.0744,-6.0163,-5.9775,-5.9705,-5.9255,-5.8143,-5.6388,-5.598,-5.4987,-5.3546,-5.5259,-5.6986,-5.842,-5.7299,-5.6597,-5.6321,-5.5492,-5.5026,-5.4837,-5.5138,-5.5185,-5.4949,-5.4262,-5.3565,-5.2773,-4.9969,-4.7957,-4.7086,-4.0546,0.0,0.0,0.0,0.0,0.0,0.0,0.0,0.0,0.0,-3.1937,-2.4418,0.0,-3.213,0.0,-4.1572,-4.2683,-3.8192,-3.9305,0.0,0.0,-3.7077,-3.685,-4.113,-4.0084,-3.9608,-4.1251,-4.2288,-4.2849,-4.2895,-4.3005,-4.3485,-4.4258,-4.4624,-4.4856,-4.5014,-4.5809,-4.6216,-4.5994,-4.6007,-4.6019,-4.578,-4.4971,-4.4098,-4.3547,-4.3664,-4.3726,-4.3592,-4.3826,-4.3915,-4.3781,-4.4016,-4.4149,-4.4093,-4.421,-4.4431,-4.4681,-4.5043,-4.5774,-4.6898,-4.7202,-4.7507,-5.9282,-5.9579,-5.3051,-5.1062,-5.2173,-5.2173,-5.3568,-5.5822,-5.5822,-5.5454,-5.4601,-5.0573,-4.87,-4.8386,-4.4953,0.0,-5.2018,-5.2463,-5.612,-6.2328,-6.1612,-6.156,-6.1977,-6.1469,-6.0982,-6.046,-5.92,-5.9261,-6.0224,-5.8676,-5.656,-5.4139,-5.2678,-5.2581,-5.3743,-5.3722,-5.617,-6.0971,-5.9984,-5.9345,-5.8939,-5.7624,-5.6663,-5.6049,-5.6532,-5.6666,-5.635,-5.566,-5.4244,-5.1994,-4.825,-4.4578,-4.1285,0.0,0.0,0.0,0.0,0.0,0.0,0.0,0.0,0.0,0.0,0.0,0.0,0.0,0.0,-3.1859,-3.6569,0.0,-4.1569,-4.1043,0.0,0.0,0.0,-3.4528,-3.5113,-3.6966,-3.8295,-3.858,0.0,0.0,-4.3123,-4.3123,-4.3771,-4.5513,-4.5767,-4.5906,-4.6423,-4.6535,-4.6618,-4.6618,-4.6618,-4.6423,-4.6074,-4.5257,-4.4626,-4.445,-4.4406,-4.4478,-4.4609,-4.4302,-4.4049,-4.4221,-4.4105,-4.4093,-4.4431,-4.4506,-4.4624,-4.5129,-4.5457,-4.5698,-4.6042,-4.6113,-4.6171,-5.4874,-5.0867,-4.7963,-4.7115,-4.7537,-4.6691,-4.7902,-5.0343,-4.8588,-4.765,-4.7168,-4.4535,-4.2872,-4.1954,-4.0369,0.0,0.0,0.0,-4.8548,-5.4765,-5.5261,-5.7119,-5.9919,-6.0355,-6.0317,-5.9942,-5.8873,-5.8234,-5.7878,-5.7685,-5.2442,-4.2561,0.0,0.0,-4.2871,-4.7833,-5.2043,-5.5266,-5.781,-5.9096,-5.8925,-5.8388,-5.7817,-5.7298,-5.7429,-5.7109,-5.6138,-5.4798,-5.2074,-4.7738,-4.4809,-4.1526,0.0,0.0,0.0,0.0,0.0,0.0,0.0,0.0,0.0,0.0,0.0,-2.621,-2.2159,0.0,0.0,0.0,-2.9689,-3.0587,-3.204,-3.3961,0.0,0.0,0.0,0.0,0.0,0.0,0.0,-3.6432,-3.9087,-4.1037,-4.1889,-4.362,-4.5057,-4.578,-4.5864,-4.6061,-4.6576,0.0,-4.7027,-4.756,-4.728,-4.7048,-4.731,-4.5455,-4.4256,-4.5,-4.4724,-4.4446,-4.4406,-4.4506,-4.449,-4.449,-4.4519,-4.4519,-4.449,-4.4927,-4.5286,-4.5486,-4.5669,-4.5809,-4.5864,-4.5864,-4.5906,-4.8249,0.0,0.0,0.0,0.0,-4.0256,-4.1172,-4.331,-4.1232,-4.0333,-4.0117,-3.7745,0.0,0.0,0.0,0.0,0.0,0.0,-4.3105,-4.9308,-5.1522,-5.4448,-5.7947,-5.8625,-5.8506,-5.7737,-5.6724,-5.515,-5.3391,-5.3106,-4.6627,-3.4454,0.0,0.0,0.0,0.0,-4.8841,-5.1751,-5.6724,-5.9257,-5.9127,-5.9095,-5.8899,-5.8535,-5.8081,-5.7341,-5.6316,-5.3128,-4.9359,-4.4998,-4.0956,0.0,0.0,0.0,0.0,0.0,0.0,0.0,0.0,0.0,0.0,0.0,0.0,0.0,0.0,0.0,0.0,0.0,0.0,0.0,-2.5899,-2.9066,-3.0972,0.0,0.0,0.0,0.0,0.0,0.0,0.0,0.0,0.0,-4.0124,-4.2801,-4.502,0.0,0.0,-4.6435,-4.6864,-4.7269,-4.7669,-4.7994,-4.7837,0.0,-4.7533,-4.5747,-4.4549,-4.5113,-4.5099,-4.4584,-4.369,-4.4314,-4.4641,-4.3705,-4.4286,-4.4912,-4.487,-4.4812,-4.4661,-4.4949,-4.4968,-4.5069,-4.5324,-4.5815,-4.6145,0.0,0.0,0.0,0.0,0.0,0.0,0.0,0.0,-3.4728,-3.452,0.0,-2.9798,0.0,0.0,0.0,0.0,-3.042,-3.4829,0.0,0.0,-5.2265,-5.5084,-5.6087,-5.6141,-5.5099,-5.3237,-5.174,-4.9413,-4.6396,-4.362,0.0,0.0,0.0,0.0,0.0,0.0,-4.7552,-5.2288,-5.7864,-6.0525,-6.0048,-5.9977,-6.0009,-5.9977,-5.8533,-5.7606,-5.72,-5.0722,-4.6461,-4.4959,-3.6856,0.0,0.0,0.0,0.0,0.0,0.0,0.0,0.0,0.0,0.0,0.0,0.0,0.0,0.0,0.0,0.0,0.0,0.0,0.0,0.0,-2.8887,0.0,0.0,0.0,0.0,0.0,0.0,0.0,0.0,0.0,0.0,-3.7734,-4.0117,-4.3054,-4.6631,0.0,0.0,0.0,0.0,-4.846,-4.7779,-4.8267,-4.7931,-4.5865,-4.6114,-4.616,-4.4778,0.0,0.0,-4.2733,-4.368,-4.4116,-4.1971,-4.3431,-4.51,-4.5422,-4.3251,-4.2013,-4.2889,-4.2763,-4.3092,-4.393,-4.4726,-4.5917,0.0,0.0,0.0,0.0,0.0,0.0,0.0,0.0,0.0,-2.5096,-2.3935,-2.1429,0.0,0.0,0.0,0.0,0.0,0.0,0.0,0.0,-4.3392,-4.7039,-4.8541,-5.1974,-5.1718,0.0,-4.7446,-4.2306,0.0,0.0,0.0,0.0,0.0,0.0,0.0,0.0,-4.4371,-4.7392,-5.635,-6.1007,-6.0819,-6.0819,-6.0711,-6.0569,-5.9183,-5.5804,-5.0494,-4.7419,-4.375,0.0,0.0,0.0,0.0,0.0,0.0,0.0,0.0,0.0,0.0,0.0,0.0,0.0,0.0,0.0,0.0,0.0,0.0,0.0,0.0,0.0,0.0,0.0,-2.7857,0.0,0.0,0.0,0.0,0.0,0.0,0.0,0.0,0.0,-3.3242,-3.8455,-4.2458,-4.3457,-4.5672,-4.7269,-4.735,0.0,0.0,0.0,0.0,0.0,0.0,0.0,-4.4503,-4.3993,-4.2489,-4.0999,-3.9968,-4.1232,-4.2419,-4.2542,0.0,0.0,-3.7023,-3.5281,-3.4786,-3.5255,-3.5986,-3.6688,-3.7064,-3.8187,-3.9404,0.0,0.0,0.0,0.0,0.0,0.0,0.0,0.0,0.0,-1.8745,-1.8105,0.0,0.0,0.0,0.0,0.0,0.0,0.0,0.0,0.0,0.0,0.0,-4.2129,-4.561,0.0,0.0,0.0,0.0,0.0,0.0,0.0,0.0,0.0,0.0,0.0,0.0,-4.2712,-4.4663,-5.5471,-6.1268,-6.1194,-6.1194,-6.1157,-6.1012,-5.9515,-5.5135,-4.7618,0.0,0.0,0.0,0.0,0.0,0.0,0.0,0.0,0.0,0.0,0.0,0.0,0.0,0.0,0.0,0.0,0.0,0.0,0.0,0.0,0.0,0.0,0.0,0.0,0.0,-2.5137,0.0,0.0,0.0,0.0,0.0,0.0,0.0,0.0,0.0,0.0,0.0,-3.9253,-4.0629,-4.3571,-4.595,-4.6972,-4.8115,-4.8962,0.0,0.0,0.0,0.0,0.0,0.0,0.0,0.0,0.0,0.0,0.0,0.0,0.0,0.0,-3.8394,-3.2634,-3.0522,-2.9788,-3.017,0.0,0.0,0.0,0.0,0.0,0.0,0.0,0.0,0.0,0.0,0.0,0.0,0.0,0.0,0.0,-1.7042,0.0,0.0,-1.6716,0.0,0.0,0.0,0.0,0.0,0.0,0.0,0.0,0.0,0.0,0.0,0.0,0.0,0.0,0.0,0.0,0.0,0.0,0.0,0.0,0.0,0.0,-4.2848,-4.4061,-5.5412,-6.1315,-6.1264,-6.1231,-6.1231,-6.1127,-5.9519,-5.5667,-4.9205,0.0,0.0,0.0,0.0,0.0,0.0,0.0,0.0,0.0,0.0,0.0,0.0,0.0,0.0,0.0,0.0,0.0,0.0,0.0,0.0,0.0,0.0,0.0,0.0,0.0,0.0,-2.3789,-2.4321,-2.4375,0.0,0.0,0.0,0.0,0.0,0.0,0.0,0.0,0.0,-3.8547,-4.1082,-4.3506,-4.6368,-4.8001,-4.8626,-4.7942,-4.8452,-4.8135,-4.5942,-4.6704,-4.6375,0.0,0.0,0.0,0.0,0.0,0.0,0.0,0.0,0.0,0.0,0.0,0.0,0.0,0.0,0.0,0.0,0.0,0.0,0.0,0.0,0.0,0.0,0.0,0.0,0.0,0.0,0.0,0.0,0.0,0.0,0.0,0.0,0.0,0.0,0.0,0.0,0.0,0.0,0.0,0.0,0.0,0.0,0.0,0.0,0.0,0.0,0.0,0.0,0.0,0.0,0.0,0.0,0.0,0.0,-4.1829,-4.2912,-5.4648,-6.1022,-6.167,-6.1634,-6.1024,-5.9773,-5.8274,-5.4321,0.0,0.0,0.0,0.0,0.0,0.0,0.0,0.0,0.0,0.0,0.0,0.0,0.0,0.0,0.0,0.0,0.0,0.0,0.0,0.0,0.0,0.0,0.0,0.0,0.0,0.0,0.0,0.0,-2.8242,-2.66,-2.3895,0.0,0.0,0.0,0.0,0.0,0.0,0.0,0.0,0.0,0.0,-4.3643,-4.525,-4.6216,-4.6913,-4.7349,-4.7934,-4.8297,-4.8175,-4.6416,-4.4116,-4.13,0.0,0.0,0.0,0.0,0.0,0.0,0.0,0.0,0.0,0.0,0.0,0.0,0.0,0.0,0.0,0.0,0.0,0.0,0.0,0.0,0.0,0.0,0.0,0.0,0.0,0.0,0.0,0.0,0.0,0.0,0.0,0.0,0.0,0.0,0.0,0.0,0.0,0.0,0.0,0.0,0.0,0.0,0.0,0.0,0.0,0.0,0.0,0.0,0.0,0.0,0.0,0.0,0.0,-4.1616,-4.3028,-5.4601,-6.1156,-6.2138,-6.2065,-6.1181,-5.9321,-5.7785,-5.2903,0.0,0.0,0.0,0.0,0.0,0.0,0.0,0.0,0.0,0.0,0.0,0.0,0.0,0.0,0.0,0.0,0.0,0.0,0.0,0.0,0.0,0.0,0.0,0.0,0.0,0.0,0.0,0.0,-2.6565,-2.5577,-2.4008,0.0,0.0,0.0,0.0,0.0,0.0,0.0,0.0,0.0,0.0,-4.1414,-4.2774,-4.4195,0.0,0.0,-4.6665,-4.7017,-4.7225,-4.5528,-4.2848,-3.8739,-3.5075,0.0,0.0,0.0,0.0,0.0,0.0,0.0,0.0,0.0,0.0,0.0,0.0,0.0,0.0,0.0,0.0,0.0,0.0,0.0,0.0,0.0,0.0,0.0,0.0,0.0,0.0,0.0,0.0,0.0,0.0,0.0,0.0,0.0,0.0,0.0,0.0,0.0,0.0,0.0,0.0,0.0,0.0,0.0,0.0,0.0,0.0,0.0,0.0,0.0,0.0,0.0,0.0,0.0,-4.3852,-5.5036,-6.1502,-6.2649,-6.2483,-6.143,-5.9638,-5.7959,-5.1577,0.0,0.0,0.0,0.0,0.0,0.0,0.0,0.0,0.0,0.0,0.0,0.0,0.0,0.0,0.0,0.0,0.0,0.0,0.0,0.0,0.0,0.0,0.0,0.0,0.0,0.0,0.0,0.0,0.0,0.0,0.0,0.0,0.0,0.0,0.0,0.0,0.0,0.0,0.0,0.0,0.0,-3.776,-3.9763,-4.1964,-4.3625,0.0,-4.4696,-4.4569,-4.3653,-4.3903,-4.2008,-3.5462,0.0,0.0,0.0,0.0,0.0,0.0,0.0,0.0,0.0,0.0,0.0,0.0,0.0,0.0,0.0,0.0,0.0,0.0,0.0,0.0,0.0,0.0,0.0,0.0,0.0,0.0,0.0,0.0,0.0,0.0,0.0,0.0,0.0,0.0,0.0,0.0,0.0,0.0,0.0,0.0,0.0,0.0,0.0,0.0,0.0,0.0,0.0,0.0,0.0,0.0,0.0,0.0,0.0,0.0,-4.1747,-5.3917,-6.0796,-6.1678,-6.15,-6.0464,-5.8582,-5.7152,0.0,0.0,0.0,0.0,0.0,0.0,0.0,0.0,0.0,0.0,0.0,0.0,0.0,0.0,0.0,0.0,0.0,0.0,0.0,0.0,0.0,0.0,0.0,0.0,0.0,0.0,0.0,-1.9484,0.0,0.0,0.0,0.0,0.0,0.0,0.0,0.0,0.0,0.0,0.0,0.0,0.0,0.0,-3.8716,-4.1622,-4.0678,-4.0208,0.0,0.0,-4.0865,-4.1088,-4.0233,-3.819,0.0,0.0,0.0,0.0,0.0,0.0,0.0,0.0,0.0,0.0,0.0,0.0,0.0,0.0,0.0,0.0,0.0,0.0,0.0,0.0,0.0,0.0,0.0,0.0,0.0,0.0,0.0,0.0,0.0,0.0,0.0,0.0,0.0,0.0,0.0,0.0,0.0,0.0,0.0,0.0,0.0,0.0,0.0,0.0,0.0,0.0,0.0,0.0,0.0,0.0,0.0,0.0,0.0,0.0,-3.7724,-4.1586,-5.0791,-5.7367,-6.0809,-6.0761,-5.9559,-5.7449,-5.6594,-5.061,0.0,0.0,0.0,0.0,0.0,0.0,0.0,0.0,0.0,0.0,0.0,0.0,0.0,0.0,0.0,0.0,0.0,0.0,0.0,0.0,0.0,0.0,0.0,0.0,0.0,0.0,0.0,0.0,0.0,0.0,0.0,0.0,0.0,0.0,0.0,0.0,0.0,0.0,0.0,0.0,0.0,0.0,-4.0139,-3.8921,0.0,0.0,0.0,-3.8916,-3.8547,0.0,0.0,0.0,0.0,0.0,0.0,0.0,0.0,0.0,0.0,0.0,0.0,0.0,0.0,0.0,0.0,0.0,0.0,0.0,0.0,0.0,0.0,0.0,0.0,0.0,0.0,0.0,0.0,0.0,0.0,0.0,0.0,0.0,0.0,0.0,0.0,0.0,0.0,0.0,0.0,0.0,0.0,0.0,0.0,0.0,0.0,0.0,0.0,0.0,0.0,0.0,0.0,0.0,0.0,0.0,0.0,0.0,-4.1799,-4.7794,-5.3901,-5.9921,-6.0017,-5.8871,-5.6698,-5.6327,-5.0944,0.0,0.0,0.0,0.0,0.0,0.0,0.0,0.0,0.0,0.0,0.0,0.0,0.0,0.0,0.0,0.0,0.0,0.0,0.0,0.0,0.0,0.0,0.0,0.0,0.0,0.0,0.0,0.0,0.0,0.0,0.0,0.0,0.0,0.0,0.0,0.0,0.0,0.0,0.0,0.0,0.0,-3.8049,-3.7446,-3.7036,-3.6481,0.0,0.0,-3.7194,-3.5702,-3.6076,0.0,0.0,0.0,0.0,0.0,0.0,0.0,0.0,0.0,0.0,0.0,0.0,0.0,0.0,0.0,0.0,0.0,0.0,0.0,0.0,0.0,0.0,0.0,0.0,0.0,0.0,0.0,0.0,0.0,0.0,0.0,0.0,0.0,0.0,0.0,0.0,0.0,0.0,0.0,0.0,0.0,0.0,0.0,0.0,0.0,0.0,0.0,0.0,0.0,0.0,0.0,0.0,0.0,0.0,0.0,0.0,-4.0219,-5.15,-5.8074,-5.9114,-5.9092,-5.8613,-5.7912,-5.6563,-5.0514,0.0,0.0,0.0,0.0,0.0,0.0,0.0,0.0,0.0,0.0,0.0,0.0,0.0,0.0,0.0,0.0,0.0,0.0,0.0,0.0,0.0,0.0,0.0,0.0,0.0,0.0,0.0,0.0,0.0,0.0,0.0,0.0,0.0,0.0,0.0,0.0,0.0,0.0,0.0,0.0,0.0,-3.568,-3.8263,-3.5753,0.0,0.0,0.0,0.0,-3.1538,-3.1131,0.0,0.0,0.0,0.0,0.0,0.0,0.0,0.0,0.0,0.0,0.0,0.0,0.0,0.0,0.0,0.0,0.0,0.0,0.0,0.0,0.0,0.0,0.0,0.0,0.0,0.0,0.0,0.0,0.0,0.0,0.0,0.0,0.0,0.0,0.0,0.0,0.0,0.0,0.0,0.0,0.0,0.0,0.0,0.0,0.0,0.0,0.0,0.0,0.0,0.0,0.0,0.0,0.0,0.0,0.0,0.0,-4.0692,-4.7476,-5.3257,-5.7671,-5.7842,-5.7604,-5.7183,-5.6272,-5.0656,0.0,0.0,0.0,0.0,0.0,0.0,0.0,0.0,0.0,0.0,0.0,0.0,0.0,0.0,0.0,0.0,0.0,0.0,0.0,0.0,0.0,0.0,0.0,0.0,0.0,0.0,0.0,0.0,0.0,0.0,0.0,0.0,0.0,0.0,0.0,0.0,0.0,0.0,0.0,0.0,-3.4778,-3.4853,-3.6935,0.0,0.0,0.0,0.0,0.0,0.0,-2.9415,-2.8794,0.0,0.0,0.0,0.0,0.0,0.0,0.0,0.0,0.0,0.0,0.0,0.0,0.0,0.0,0.0,0.0,0.0,0.0,0.0,0.0,0.0,0.0,0.0,0.0,0.0,0.0,0.0,0.0,0.0,0.0,0.0,0.0,0.0,0.0,0.0,0.0,0.0,0.0,0.0,0.0,0.0,0.0,0.0,0.0,0.0,0.0,0.0,0.0,0.0,0.0,0.0,0.0,0.0,0.0,0.0,-4.1606,-4.266,-4.7524,-5.6466,-5.6718,-5.6501,-5.6082,-5.5872,-5.0815,-4.0591,0.0,0.0,0.0,0.0,0.0,0.0,0.0,0.0,0.0,0.0,0.0,0.0,0.0,0.0,0.0,0.0,0.0,0.0,0.0,0.0,0.0,0.0,0.0,0.0,0.0,0.0,0.0,0.0,0.0,0.0,0.0,0.0,0.0,0.0,0.0,0.0,0.0,0.0,0.0,-3.335,-3.3884,0.0,0.0,0.0,0.0,0.0,0.0,0.0,0.0,-2.8108,0.0,0.0,0.0,0.0,0.0,0.0,0.0,0.0,0.0,0.0,0.0,0.0,0.0,0.0,0.0,0.0,0.0,0.0,0.0,0.0,0.0,0.0,0.0,0.0,0.0,0.0,0.0,0.0,0.0,0.0,0.0,0.0,0.0,0.0,0.0,0.0,0.0,0.0,0.0,0.0,0.0,0.0,0.0,0.0,0.0,0.0,0.0,0.0,0.0,0.0,0.0,0.0,0.0,0.0,0.0,0.0,-4.5137,-5.0701,-5.643,-5.6559,-5.6368,-5.6301,-5.5978,-5.0391,-3.9115,0.0,0.0,0.0,0.0,0.0,0.0,0.0,0.0,0.0,0.0,0.0,0.0,0.0,0.0,0.0,0.0,0.0,0.0,0.0,0.0,0.0,0.0,0.0,0.0,0.0,0.0,0.0,0.0,0.0,0.0,0.0,0.0,0.0,0.0,0.0,0.0,0.0,0.0,-2.53,-2.8063,0.0,0.0,0.0,0.0,0.0,0.0,0.0,0.0,-2.5827,0.0,0.0,0.0,0.0,0.0,0.0,0.0,0.0,0.0,0.0,0.0,0.0,0.0,0.0,0.0,0.0,0.0,0.0,0.0,0.0,0.0,0.0,0.0,0.0,0.0,0.0,0.0,0.0,0.0,0.0,0.0,0.0,0.0,0.0,0.0,0.0,0.0,0.0,0.0,0.0,0.0,0.0,0.0,0.0,0.0,0.0,0.0,0.0,0.0,0.0,0.0,0.0,0.0,0.0,0.0,0.0,0.0,0.0,-4.8903,-5.6337,-5.6509,-5.6404,-5.6011,-5.2695,-4.6906,0.0,0.0,0.0,0.0,0.0,0.0,0.0,0.0,0.0,0.0,0.0,0.0,0.0,0.0,0.0,0.0,0.0,0.0,0.0,0.0,0.0,0.0,0.0,0.0,0.0,0.0,0.0,0.0,0.0,0.0,0.0,0.0,0.0,0.0,0.0,0.0,0.0,0.0,0.0,0.0,0.0,0.0,0.0,0.0,0.0,0.0,0.0,0.0,0.0,0.0,0.0,0.0,0.0,0.0,0.0,0.0,0.0,0.0,0.0,0.0,0.0,0.0,0.0,0.0,0.0,0.0,0.0,0.0,0.0,0.0,0.0,0.0,0.0,0.0,0.0,0.0,0.0,0.0,0.0,0.0,0.0,0.0,0.0,0.0,0.0,0.0,0.0,0.0,0.0,0.0,0.0,0.0,0.0,0.0,0.0,0.0,0.0,0.0,0.0,0.0,0.0,0.0,0.0,0.0,0.0,0.0,0.0,0.0,-4.634,-5.5868,-5.6395,-5.6301,-5.5895,-4.9767,-4.3859,0.0,0.0,0.0,0.0,0.0,0.0,0.0,0.0,0.0,0.0,0.0,0.0,0.0,0.0,0.0,0.0,0.0,0.0,0.0,0.0,0.0,0.0,0.0,0.0,0.0,0.0,0.0,0.0,0.0,0.0,0.0,0.0,0.0,0.0,0.0,0.0,0.0,0.0,0.0,0.0,0.0,0.0,0.0,0.0,0.0,0.0,0.0,0.0,-2.499,0.0,0.0,0.0,0.0,0.0,0.0,0.0,0.0,0.0,0.0,0.0,0.0,0.0,0.0,0.0,0.0,0.0,0.0,0.0,0.0,0.0,0.0,0.0,0.0,0.0,0.0,0.0,0.0,0.0,0.0,0.0,0.0,0.0,0.0,0.0,0.0,0.0,0.0,0.0,0.0,0.0,0.0,0.0,0.0,0.0,0.0,0.0,0.0,0.0,0.0,0.0,0.0,0.0,0.0,0.0,0.0,0.0,0.0,0.0,-4.5072,-5.4709,-5.5801,-5.6059,-5.5635,-4.9605,-4.3712,0.0,0.0,0.0,0.0,0.0,0.0,0.0,0.0,0.0,0.0,0.0,0.0,0.0,0.0,0.0,0.0,0.0,0.0,0.0,0.0,0.0,0.0,0.0,0.0,0.0,0.0,0.0,0.0,0.0,0.0,0.0,0.0,0.0,0.0,0.0,0.0,0.0,0.0,0.0,0.0,0.0,0.0,0.0,0.0,0.0,0.0,0.0,0.0,0.0,0.0,0.0,0.0,0.0,0.0,0.0,0.0,0.0,0.0,0.0,0.0,0.0,0.0,0.0,0.0,0.0,0.0,0.0,0.0,0.0,0.0,0.0,0.0,0.0,0.0,0.0,0.0,0.0,0.0,0.0,0.0,0.0,0.0,0.0,0.0,0.0,0.0,0.0,0.0,0.0,0.0,0.0,0.0,0.0,0.0,0.0,0.0,0.0,0.0,0.0,0.0,0.0,0.0,0.0,0.0,0.0,0.0,0.0,0.0,-4.3524,-5.104,-5.4513,-5.5352,-5.3365,-4.5389,-3.9324,0.0,0.0,0.0,0.0,0.0,0.0,0.0,0.0,0.0,0.0,0.0,0.0,0.0,0.0,0.0,0.0,0.0,0.0,0.0,0.0,0.0,0.0,0.0,0.0,0.0,0.0,0.0,0.0,0.0,0.0,0.0,0.0,0.0,0.0,0.0,0.0,0.0,0.0,0.0,0.0,0.0,0.0,0.0,0.0,0.0,0.0,0.0,0.0,0.0,0.0,0.0,0.0,0.0,0.0,0.0,0.0,0.0,0.0,0.0,0.0,0.0,0.0,0.0,0.0,0.0,0.0,0.0,0.0,0.0,0.0,0.0,0.0,0.0,0.0,0.0,0.0,0.0,0.0,0.0,0.0,0.0,0.0,0.0,0.0,0.0,0.0,0.0,0.0,0.0,0.0,0.0,0.0,0.0,0.0,0.0,0.0,0.0,0.0,0.0,0.0,0.0,0.0,0.0,0.0,0.0,0.0,0.0,0.0,0.0,-4.7277,-5.2476,-5.364,-5.0213,-4.1131,-3.5013,0.0,0.0,0.0,0.0,0.0,0.0,0.0,0.0,0.0,0.0,0.0,0.0,0.0,0.0,0.0,0.0,0.0,0.0,0.0,0.0,0.0,0.0,0.0,0.0,0.0,0.0,0.0,0.0,0.0,0.0,0.0,0.0,0.0,0.0,0.0,0.0,0.0,0.0,0.0,0.0,0.0,0.0,0.0,0.0,0.0,0.0,0.0,0.0,0.0,0.0,0.0,0.0,0.0,0.0,0.0,0.0,0.0,0.0,0.0,0.0,0.0,0.0,0.0,0.0,0.0,0.0,0.0,0.0,0.0,0.0,0.0,0.0,0.0,0.0,0.0,0.0,0.0,0.0,0.0,0.0,0.0,0.0,0.0,0.0,0.0,0.0,0.0,0.0,0.0,0.0,0.0,0.0,0.0,0.0,0.0,0.0,0.0,0.0,0.0,0.0,0.0,0.0,0.0,0.0,0.0,0.0,0.0,0.0,0.0,-4.3953,-4.9321,-5.0486,-4.7072,-3.8124,-3.1993,0.0,0.0,0.0,0.0,0.0,0.0,0.0,0.0,0.0,0.0,0.0,0.0,0.0,0.0,0.0,0.0,0.0,0.0,0.0,0.0,0.0,0.0,0.0,0.0,0.0,0.0,0.0,0.0,0.0,0.0,0.0,0.0,0.0,0.0,0.0,0.0,0.0,0.0,0.0,0.0,0.0,0.0,0.0,0.0,0.0,0.0,0.0,0.0,0.0,0.0,0.0,0.0,0.0,0.0,0.0,0.0,0.0,0.0,0.0,0.0,0.0,0.0,0.0,0.0,0.0,0.0,0.0,0.0,0.0,0.0,0.0,0.0,0.0,0.0,0.0,0.0,0.0,0.0,0.0,0.0,0.0,0.0,0.0,0.0,0.0,0.0,0.0,0.0,0.0,0.0,0.0,0.0,0.0,0.0,0.0,0.0,0.0,0.0,0.0,0.0,0.0,0.0,0.0,0.0,0.0,0.0,0.0,0.0,0.0,-3.4178,-4.0676,-4.3275,-4.106,-3.3957,-2.9295,-2.7447,0.0,0.0,0.0,0.0,0.0,0.0,0.0,0.0,0.0,0.0,0.0,0.0,0.0,0.0,0.0,0.0,0.0,0.0,0.0,0.0,0.0,0.0,0.0,0.0,0.0,0.0,0.0,0.0,0.0,0.0,0.0,0.0,0.0,0.0,0.0,0.0,0.0,0.0,0.0,0.0,0.0,0.0,0.0,0.0,0.0,0.0,0.0,0.0,0.0,0.0,0.0,0.0,0.0,0.0,0.0,0.0,0.0,0.0,0.0,0.0,0.0,0.0,0.0,0.0,0.0,0.0,0.0,0.0,0.0,0.0,0.0,0.0,0.0,0.0,0.0,0.0,0.0,0.0,0.0,0.0,0.0,0.0,0.0,0.0,0.0,0.0,0.0,0.0,0.0,0.0,0.0,0.0,0.0,0.0,0.0,0.0,0.0,0.0,0.0,0.0,0.0,0.0,0.0,0.0,0.0,0.0,0.0,0.0,-2.8818,-3.531,-3.7811,-3.5503,-2.9786,-2.5683,0.0,0.0,0.0,0.0,0.0,0.0,0.0,0.0,0.0,0.0,0.0,0.0,0.0,0.0,0.0,0.0,0.0,0.0,0.0,0.0,0.0,0.0,0.0,0.0,0.0,0.0,0.0,0.0,0.0,0.0,0.0,0.0,0.0,0.0,0.0,0.0,0.0,0.0,0.0,0.0,0.0,0.0,0.0,0.0,0.0,0.0,0.0,0.0,0.0,0.0,0.0,0.0,0.0,0.0,0.0,0.0,0.0,0.0,0.0,0.0,0.0,0.0,0.0,0.0,0.0,0.0,0.0,0.0,0.0,0.0,0.0,0.0,0.0,0.0,0.0,0.0,0.0,0.0,0.0,0.0,0.0,0.0,0.0,0.0,0.0,0.0,0.0,0.0,0.0,0.0,0.0,0.0,0.0,0.0,0.0,0.0,0.0,0.0,0.0,0.0,0.0,0.0,0.0,0.0,0.0,0.0,0.0,0.0,-2.3219,-3.0168,-3.4246,-3.4636,-3.1387,-2.589,-2.1033,0.0,0.0,0.0,0.0,0.0,0.0,0.0,0.0,0.0,0.0,0.0,0.0,0.0,0.0,0.0,0.0,0.0,0.0,0.0,0.0,0.0,0.0,0.0,0.0,0.0,0.0,0.0,0.0,0.0,0.0,0.0,0.0,0.0,0.0,0.0,0.0,0.0,0.0,0.0,0.0,0.0,0.0,0.0,0.0,0.0,0.0,0.0,0.0,0.0,0.0,0.0,0.0,0.0,0.0,0.0,0.0,0.0,0.0,0.0,0.0,0.0,0.0,0.0,0.0,0.0,0.0,0.0,0.0,0.0,0.0,0.0,0.0,0.0,0.0,0.0,0.0,0.0,0.0,0.0,0.0,0.0,0.0,0.0,0.0,0.0,0.0,0.0,0.0,0.0,0.0,0.0,0.0,0.0,0.0,0.0,0.0,0.0,0.0,0.0,0.0,0.0,0.0,0.0,0.0,0.0,0.0,0.0,0.0,0.0,-2.2997,0.0,-2.7885,0.0,-2.3816,-2.1355,0.0,0.0,0.0,0.0,0.0,0.0,0.0,0.0,0.0,0.0,0.0,0.0,0.0,0.0,0.0,0.0,0.0,0.0,0.0,0.0,0.0,0.0,0.0,0.0,0.0,0.0,0.0,0.0,0.0,0.0,0.0,0.0,0.0,0.0,0.0,0.0,0.0,0.0,0.0,0.0,0.0,0.0,0.0,0.0,0.0,0.0,0.0,0.0,0.0,0.0,0.0,0.0,0.0,0.0,0.0,0.0,0.0,0.0,0.0,0.0,0.0,0.0,0.0,0.0,0.0,0.0,0.0,0.0,0.0,0.0,0.0,0.0,0.0,0.0,0.0,0.0,0.0,0.0,0.0,0.0,0.0,0.0,0.0,0.0,0.0,0.0,0.0,0.0,0.0,0.0,0.0,0.0,0.0,0.0,0.0,0.0,0.0,0.0,0.0,0.0,0.0,0.0,0.0,0.0,0.0,0.0,0.0,0.0,0.0,-2.1987,-2.2742,-2.3656,-2.464,-2.159,-1.9986,0.0,0.0,0.0,0.0,0.0,0.0,0.0,0.0,0.0,0.0,0.0,0.0,0.0,0.0,0.0,0.0,0.0,0.0,0.0,0.0,0.0,0.0,0.0,0.0,0.0,0.0,0.0,0.0,0.0,0.0,0.0,0.0,0.0,0.0,0.0,0.0,0.0,0.0,0.0,0.0,0.0,0.0,0.0,0.0,0.0,0.0,0.0,0.0,0.0,0.0,0.0,0.0,0.0,0.0,0.0,0.0,0.0,0.0,0.0,0.0,0.0,0.0,0.0,0.0,0.0,0.0,0.0,0.0,0.0,0.0,0.0,0.0,0.0,0.0,0.0,0.0,0.0,0.0,0.0,0.0,0.0,0.0,0.0,0.0,0.0,0.0,0.0,0.0,0.0,0.0,0.0,0.0,0.0,0.0,0.0,0.0,0.0,0.0,0.0,0.0,0.0,0.0,0.0,0.0,0.0,0.0,0.0,0.0,0.0,0.0,-2.2758,-2.1892,-2.3885,-1.9262,-1.7137,0.0,0.0,0.0,0.0,0.0,0.0,0.0,0.0,0.0,0.0,0.0,0.0,0.0,0.0,0.0,0.0,0.0,0.0,0.0,0.0,0.0,0.0,0.0,0.0,0.0,0.0,0.0,0.0,0.0,0.0,0.0,0.0,0.0,0.0,0.0,0.0,0.0,0.0,0.0,0.0,0.0,0.0,0.0,0.0,0.0,0.0,0.0,0.0,0.0,0.0,0.0,0.0,0.0,0.0,0.0,0.0,0.0,0.0,0.0,0.0,0.0,0.0,0.0,0.0,0.0,0.0,0.0,0.0,0.0,0.0,0.0,0.0,0.0,0.0,0.0,0.0,0.0,0.0,0.0,0.0,0.0,0.0,0.0,0.0,0.0,0.0,0.0,0.0,0.0,0.0,0.0,0.0,0.0,0.0,0.0,0.0,0.0,0.0,0.0,0.0,0.0,0.0,0.0,0.0,0.0,0.0,0.0,0.0,0.0,0.0,-1.9013,0.0,-2.1123,-1.9393,-1.7815,-1.6749,0.0,0.0,0.0,0.0,0.0,0.0,0.0,0.0,0.0,0.0,0.0,0.0,0.0,0.0,0.0,0.0,0.0,0.0,0.0,0.0,0.0,0.0,0.0,0.0,0.0,0.0,0.0,0.0,0.0,0.0,0.0,0.0,0.0,0.0,0.0,0.0,0.0,0.0,0.0,0.0,0.0,0.0,0.0,0.0,0.0,0.0,0.0,0.0,0.0,0.0,0.0,0.0,0.0,0.0,0.0,0.0,0.0,0.0,0.0,0.0,0.0,0.0,0.0,0.0,0.0,0.0,0.0,0.0,0.0,0.0,0.0,0.0,0.0,0.0,0.0,0.0,0.0,0.0,0.0,0.0,0.0,0.0,0.0,0.0,0.0,0.0,0.0,0.0,0.0,0.0,0.0,0.0,0.0,0.0,0.0,0.0,0.0,0.0,0.0,0.0,0.0,0.0,0.0,0.0,0.0,0.0,0.0,0.0,0.0,0.0,0.0,-2.0323,-1.9616,-1.8574,0.0,0.0,0.0,0.0,0.0,0.0,0.0,0.0,0.0,0.0,0.0,0.0,0.0,0.0,0.0,0.0,0.0,0.0,0.0,0.0,0.0,0.0,0.0,0.0,0.0,0.0,0.0,0.0,0.0,0.0,0.0,0.0,0.0,0.0,0.0,0.0,0.0,0.0,0.0,0.0,0.0,0.0,0.0,0.0,0.0,0.0,0.0,0.0,0.0,0.0,0.0,0.0,0.0,0.0,0.0,0.0,0.0,0.0,0.0,0.0,0.0,0.0,0.0,0.0,0.0,0.0,0.0,0.0,0.0,0.0,0.0,0.0,0.0,0.0,0.0,0.0,0.0,0.0,0.0,0.0,0.0,0.0,0.0,0.0,0.0,0.0,0.0,0.0,0.0,0.0,0.0,0.0,0.0,0.0,0.0,0.0,0.0,0.0,0.0,0.0,0.0,0.0,0.0,0.0,0.0,0.0,0.0,0.0,0.0,0.0,0.0,-1.761,-2.0086,-1.9725,0.0,-1.8424,0.0,0.0,0.0,0.0,0.0,0.0,0.0,0.0,0.0,0.0,0.0,0.0,0.0,0.0,0.0,0.0,0.0,0.0,0.0,0.0,0.0,0.0,0.0,0.0,0.0,0.0,0.0,0.0,0.0,0.0,0.0,0.0,0.0,0.0,0.0,0.0,0.0,0.0,0.0,0.0,0.0,0.0,0.0,0.0,0.0,0.0,0.0,0.0,0.0,0.0,0.0,0.0,0.0,0.0,0.0,0.0,0.0,0.0,0.0,0.0,0.0,0.0,0.0,0.0,0.0,0.0,0.0,0.0,0.0,0.0,0.0,0.0,0.0,0.0,0.0,0.0,0.0,0.0,0.0,0.0,0.0,0.0,0.0,0.0,0.0,0.0,0.0,0.0,0.0,0.0,0.0,0.0,0.0,0.0,0.0,0.0,0.0,0.0,0.0,0.0,0.0,0.0,0.0,0.0,0.0,0.0,0.0,0.0,0.0,0.0,0.0,0.0,-1.8891,-1.8529,-1.5709,0.0,0.0,0.0,0.0,0.0,0.0,0.0,0.0,0.0,0.0,0.0,0.0,0.0,0.0,0.0,0.0,0.0,0.0,0.0,0.0,0.0,0.0,0.0,0.0,0.0,0.0,0.0,0.0,0.0,0.0,0.0,0.0,0.0,0.0,0.0,0.0,0.0,0.0,0.0,0.0,0.0,0.0,0.0,0.0,0.0,0.0,0.0,0.0,0.0,0.0,0.0,0.0,0.0,0.0,0.0,0.0,0.0,0.0,0.0,0.0,0.0,0.0,0.0,0.0,0.0,0.0,0.0,0.0,0.0,0.0,0.0,0.0,0.0,0.0,0.0,0.0,0.0,0.0,0.0,0.0,0.0,0.0,0.0,0.0,0.0,0.0,0.0,0.0,0.0,0.0,0.0,0.0,0.0,0.0,0.0,0.0,0.0,0.0,0.0,0.0,0.0,0.0,0.0,0.0,0.0,0.0,0.0,0.0,0.0,0.0,-1.8245,-1.6057,-1.8809,-1.8632,-1.5027,0.0,0.0,0.0,0.0,0.0,0.0,0.0,0.0,0.0,0.0,0.0,0.0,0.0,0.0,0.0,0.0,0.0,0.0,0.0,0.0,0.0,0.0,0.0,0.0,0.0,0.0,0.0,0.0,0.0,0.0,0.0,0.0,0.0,0.0,0.0,0.0,0.0,0.0,0.0,0.0,0.0,0.0,0.0,0.0,0.0,0.0,0.0,0.0,0.0,0.0,0.0,0.0,0.0,0.0,0.0,0.0,0.0,0.0,0.0,0.0,0.0,0.0,0.0,0.0,0.0,0.0,0.0,0.0,0.0,0.0,0.0,0.0,0.0,0.0,0.0,0.0,0.0,0.0,0.0,0.0,0.0,0.0,0.0,0.0,0.0,0.0,0.0,0.0,0.0,0.0,0.0,0.0,0.0,0.0,0.0,0.0,0.0,0.0,0.0,0.0,0.0,0.0,0.0,0.0,0.0,0.0,0.0,0.0,0.0,0.0,0.0,0.0,0.0,0.0,-1.579,0.0,0.0,0.0,0.0,0.0,0.0,0.0,0.0,0.0,0.0,0.0,0.0,0.0,0.0,0.0,0.0,0.0,0.0,0.0,0.0,0.0,0.0,0.0,0.0,0.0,0.0,0.0,0.0,0.0,0.0,0.0,0.0,0.0,0.0,0.0,0.0,0.0,0.0,0.0,0.0,0.0,0.0,0.0,0.0,0.0,0.0,0.0,0.0,0.0,0.0,0.0,0.0,0.0,0.0,0.0,0.0,0.0,0.0,0.0,0.0,0.0,0.0,0.0,0.0,0.0,0.0,0.0,0.0,0.0,0.0,0.0,0.0,0.0,0.0,0.0,0.0,0.0,0.0,0.0,0.0,0.0,0.0,0.0,0.0,0.0,0.0,0.0,0.0,0.0,0.0,0.0,0.0,0.0,0.0,0.0,0.0,0.0,0.0,0.0,0.0,0.0,0.0,0.0,0.0,0.0,0.0,0.0,0.0,0.0,0.0,0.0,0.0,0.0,0.0,0.0,0.0,0.0,0.0,0.0,0.0,0.0,0.0,0.0,0.0,0.0,0.0,0.0,0.0,0.0,0.0,0.0,0.0,0.0,0.0,0.0,0.0,0.0,0.0,0.0,0.0,0.0,0.0,0.0,0.0,0.0,0.0,0.0,0.0,0.0,0.0,0.0,0.0,0.0,0.0,0.0,0.0,0.0,0.0,0.0,0.0,0.0,0.0,0.0,0.0,0.0,0.0,0.0,0.0,0.0,0.0,0.0,0.0,0.0,0.0,0.0,0.0,0.0,0.0,0.0,0.0,0.0,0.0,0.0,0.0,0.0,0.0,0.0,0.0,0.0,0.0,0.0,0.0,0.0,0.0,0.0,0.0,0.0,0.0,0.0,0.0,0.0,0.0,0.0,0.0,0.0,0.0,0.0,0.0,0.0,0.0,0.0,0.0,0.0,0.0,0.0,0.0,0.0,0.0,0.0,0.0,0.0,0.0,0.0,0.0,0.0,0.0,0.0,0.0,0.0,0.0,0.0,0.0,0.0,0.0,0.0,0.0,0.0,0.0,0.0,0.0,0.0,0.0,0.0,0.0,0.0,0.0,0.0,0.0,0.0,0.0,0.0,0.0,0.0,0.0,0.0,0.0,0.0,0.0,0.0,0.0,0.0,0.0,0.0,0.0,0.0,0.0,0.0,0.0,0.0,0.0,0.0,0.0,0.0,0.0,0.0,0.0,0.0,0.0,0.0,0.0,0.0,0.0,0.0,0.0,0.0,0.0,0.0,0.0,0.0,0.0,0.0,0.0,0.0,0.0,0.0,0.0,0.0,0.0,0.0,0.0,0.0,0.0,0.0,0.0,0.0,0.0,0.0,0.0,0.0,0.0,0.0,0.0,0.0,0.0,0.0,0.0,0.0,0.0,0.0,0.0,0.0,0.0,0.0,0.0,0.0,0.0,0.0,0.0,0.0,0.0,0.0,0.0,0.0,0.0,0.0,0.0,0.0,0.0,0.0,0.0,0.0,0.0,0.0,0.0,0.0,0.0,0.0,0.0,0.0,0.0,0.0,0.0,0.0,0.0,0.0,0.0,0.0,0.0,0.0,0.0,0.0,0.0,0.0,0.0,0.0,0.0,0.0,0.0,0.0,0.0,0.0,0.0,0.0,0.0,0.0,0.0,0.0,0.0,0.0,0.0,0.0,0.0,0.0,0.0,0.0,0.0,0.0,0.0,0.0,0.0,0.0,0.0,0.0,0.0,0.0,0.0,0.0,0.0,0.0,0.0,0.0,0.0,0.0,0.0,0.0,0.0,0.0,0.0,0.0,0.0,0.0,0.0,0.0,0.0,0.0,0.0,0.0,0.0,0.0,0.0,0.0,0.0,0.0,0.0,0.0,0.0,0.0,0.0,0.0,0.0,0.0,0.0,0.0,0.0,0.0,0.0,0.0,0.0,0.0,0.0,0.0,0.0,0.0,0.0,0.0,0.0,0.0,0.0,0.0,0.0,0.0,0.0,0.0,0.0,0.0,0.0,0.0,0.0,0.0,0.0,0.0,0.0,0.0,0.0,0.0,0.0,0.0,0.0,0.0,0.0,0.0,0.0,0.0,0.0,0.0,0.0,0.0,0.0,0.0,0.0,0.0,0.0,0.0,0.0,0.0,0.0,0.0,0.0,0.0,0.0,0.0,0.0,0.0,0.0,0.0,0.0,0.0,0.0,0.0,0.0,0.0,0.0,0.0,0.0,0.0,0.0,0.0,0.0,0.0,0.0,0.0,0.0,0.0,0.0,0.0,0.0,0.0,0.0,0.0,0.0,0.0,0.0,0.0,0.0,0.0,0.0,0.0,0.0,0.0,0.0,0.0,0.0,0.0,0.0,0.0,0.0,0.0,0.0,0.0,0.0,0.0,0.0,0.0,0.0,0.0,0.0,0.0,0.0,0.0,0.0,0.0,0.0,0.0,0.0,0.0,0.0,0.0,0.0,0.0,0.0,0.0,0.0,0.0,0.0,0.0,0.0,0.0,0.0,0.0,0.0,0.0,0.0,0.0,0.0,0.0,0.0,0.0,0.0,0.0,0.0,0.0,0.0,0.0,0.0,0.0,0.0,0.0,0.0,0.0,0.0,0.0,0.0,0.0,0.0,0.0,0.0,0.0,0.0,0.0,0.0,0.0,0.0,0.0,0.0,0.0,0.0,0.0,0.0,0.0,0.0,0.0,0.0,0.0,0.0,0.0,0.0,0.0,0.0,0.0,0.0,0.0,0.0,0.0,0.0,0.0,0.0,0.0,0.0,0.0,0.0,0.0,0.0,0.0,0.0,0.0,0.0,0.0,0.0,0.0,0.0,0.0,0.0,0.0,0.0,0.0,0.0,0.0,0.0,0.0,0.0,0.0,0.0,0.0,0.0,0.0,0.0,0.0,0.0,0.0,0.0,0.0,0.0,0.0,0.0,0.0,0.0,0.0,0.0,0.0,0.0,0.0,0.0,0.0,0.0,0.0,0.0,0.0,0.0,0.0,0.0,0.0,0.0,0.0,0.0,0.0,0.0,0.0,0.0,0.0,0.0,0.0,0.0,0.0,0.0,0.0,0.0,0.0,0.0,0.0,0.0,0.0,0.0,0.0,0.0,0.0,0.0,0.0,0.0,0.0,0.0,0.0,0.0,0.0,0.0,0.0,0.0,0.0,0.0,0.0,0.0,0.0,0.0,0.0,0.0,0.0,0.0,0.0,0.0,0.0,0.0,0.0,0.0,0.0,0.0,0.0,0.0,0.0,0.0,0.0,0.0,0.0,0.0,0.0,0.0,0.0,0.0,0.0,0.0,0.0,0.0,0.0,0.0,0.0,0.0,0.0,0.0,0.0,0.0,0.0,0.0,0.0,0.0,0.0,0.0,0.0,0.0,0.0,0.0,0.0,0.0,0.0,0.0,0.0,0.0,0.0,0.0,0.0,0.0,0.0,0.0,0.0,0.0,0.0,0.0,0.0,0.0,0.0,0.0,0.0,0.0,0.0,0.0,0.0,0.0,0.0,0.0,0.0,0.0,0.0,0.0,0.0,0.0,0.0,0.0,0.0,0.0,0.0,0.0,0.0,0.0,0.0,0.0,0.0,0.0,0.0,0.0,0.0,0.0,0.0,0.0,0.0,0.0,0.0,0.0,0.0,0.0,0.0,0.0,0.0,0.0,0.0,0.0,0.0,0.0,0.0,0.0,0.0,0.0,0.0,0.0,0.0,0.0,0.0,0.0,0.0,0.0,0.0,0.0,0.0,0.0,0.0,0.0,0.0,0.0,0.0,0.0,0.0,0.0,0.0,0.0,0.0,0.0,0.0,0.0,0.0,0.0,0.0,0.0,0.0,0.0,0.0,0.0,0.0,0.0,0.0,0.0,0.0,0.0,0.0,0.0,0.0,0.0,0.0,0.0,0.0,0.0,0.0,0.0,0.0,0.0,0.0,0.0,0.0,0.0,0.0,0.0,0.0,0.0,0.0,0.0,0.0,0.0,0.0,0.0,0.0,0.0,0.0,0.0,0.0,0.0,0.0,0.0,0.0,0.0,0.0,0.0,0.0,0.0,0.0,0.0,0.0,0.0,0.0,0.0,0.0,0.0,0.0,0.0,0.0,0.0,0.0,0.0,0.0,0.0,0.0,0.0,0.0,0.0,0.0,0.0,0.0,0.0,0.0,0.0,0.0,0.0,0.0,0.0,0.0,0.0,0.0,0.0,0.0,0.0,0.0,0.0,0.0,0.0,0.0,0.0,0.0,0.0,0.0,0.0,0.0,0.0,0.0,0.0,0.0,0.0,0.0,0.0,0.0,0.0,0.0,0.0,0.0,0.0,0.0,0.0,0.0,0.0,0.0,0.0,0.0,0.0,0.0,0.0]}],[{"header":{"parameterUnit":"kt","parameterCategory":2,"dx":1,"dy":1,"la1":29.587661999999998,"la2":31.0,"lo1":-88.76705300000003,"lo2":-86.6583820000003,"nx":115,"ny":88,"refTime":"2022-09-24T18:00:00:Z","depth":0,"parameterNumber":2,"parameterNumberName":"V-component_of_WINDS"},"data":[9.5494,9.454,9.443,9.432,9.4357,9.5466,9.6309,9.6529,9.6574,9.6545,9.6509,9.6545,9.6488,9.6401,9.6372,9.6401,9.6496,9.6525,9.6545,9.6509,9.6525,9.6517,9.6517,9.6451,9.6459,9.6401,9.6313,9.6231,9.632,9.6261,9.6231,9.6261,9.6594,9.6706,9.6697,9.6834,9.702,9.6994,9.702,9.7125,9.7099,9.7005,9.6734,9.6789,9.7005,9.6925,9.6816,9.6706,9.6678,9.6602,9.6459,9.6342,9.6372,9.6401,9.6364,9.6394,9.6269,9.6386,9.6407,9.6464,9.6521,9.677,9.677,9.6824,9.6904,9.6984,9.701,9.6984,9.6797,9.6529,9.6415,9.597,9.5852,9.5821,9.579,9.5727,9.5695,9.5695,9.5695,9.5759,9.5681,9.4153,9.1965,9.0853,9.0102,8.87,8.7423,8.6748,8.66,8.6547,8.652,8.6529,8.6502,8.6393,8.631,8.627,8.6576,8.7106,8.8036,8.9942,9.0596,8.9608,8.9433,8.9816,8.8849,8.7078,8.691,8.6996,8.6924,8.7003,8.6518,8.6221,8.6351,8.6255,8.5846,9.52,9.5971,9.4687,9.41,9.4146,9.4254,9.5076,9.6247,9.632,9.6261,9.6144,9.6217,9.6261,9.6231,9.6231,9.6297,9.6071,9.5509,9.5845,9.5889,9.5925,9.5765,9.5772,9.6108,9.6181,9.6151,9.6231,9.6201,9.6237,9.6237,9.6237,9.6237,9.6261,9.629,9.629,9.6379,9.6459,9.6517,9.6537,9.6659,9.6602,9.6553,9.6408,9.632,9.635,9.635,9.632,9.629,9.629,9.6231,9.6231,9.6177,9.6177,9.614,9.614,9.611,9.6012,9.5976,9.6,9.597,9.5933,9.5903,9.5847,9.5909,9.5994,9.6085,9.6137,9.6078,9.5933,9.5816,9.5816,9.5695,9.5695,9.5664,9.5627,9.5596,9.5596,9.5632,9.5632,9.5664,9.5301,9.4828,9.3183,9.1644,9.035,8.8842,8.7705,8.7022,8.6466,8.642,8.6393,8.6365,8.6718,8.6597,8.6322,8.649,8.6867,8.7332,8.7955,8.9925,9.1018,8.9828,8.9362,8.9844,8.8908,8.7075,8.658,8.6513,8.7034,8.7296,8.6787,8.6318,8.6287,8.5885,8.554,9.5222,9.4978,9.4254,9.3457,9.3044,9.4493,9.5005,9.5085,9.5829,9.5726,9.496,9.5617,9.5142,9.3536,9.4485,9.4478,9.3427,9.3646,9.3901,9.3682,9.3383,9.412,9.4558,9.4734,9.5215,9.6091,9.6164,9.6164,9.6237,9.6237,9.6237,9.6237,9.6237,9.6231,9.6231,9.6237,9.6231,9.6237,9.6261,9.635,9.6408,9.635,9.6231,9.6237,9.6201,9.6231,9.617,9.6073,9.6043,9.6012,9.5951,9.592,9.592,9.592,9.592,9.5889,9.5858,9.5759,9.5722,9.5722,9.5691,9.5722,9.5659,9.5627,9.5691,9.5596,9.5691,9.5722,9.5568,9.5532,9.5532,9.5503,9.5503,9.5471,9.5402,9.5366,9.5402,9.5402,9.5402,9.5438,9.529,9.4746,9.3577,9.2007,9.0421,8.8851,8.7207,8.629,8.6282,8.6225,8.629,8.6444,8.7245,8.7375,8.6887,8.6973,8.6985,8.7358,8.787,8.8851,8.9212,8.9009,8.8806,8.8201,8.7381,8.6305,8.5909,8.577,8.6138,8.6505,8.6437,8.63,8.5934,8.5531,8.5188,9.5494,9.4441,9.4002,9.3141,9.2332,9.4558,9.5033,9.4412,9.5331,9.4791,9.4054,9.4754,9.4456,9.3434,9.4412,9.3901,9.2697,9.2916,9.1858,9.1785,9.1748,9.2588,9.2989,9.3208,9.4047,9.5106,9.569,9.5653,9.6091,9.6237,9.6237,9.6237,9.6237,9.6237,9.6237,9.6237,9.6237,9.6237,9.611,9.6012,9.6073,9.6073,9.6079,9.6079,9.6079,9.6049,9.5982,9.5883,9.5816,9.5748,9.5659,9.5627,9.5632,9.5664,9.5664,9.5632,9.5632,9.56,9.5568,9.5467,9.5435,9.5435,9.5467,9.5467,9.5467,9.5373,9.5376,9.5409,9.5442,9.5438,9.5435,9.5373,9.5343,9.5241,9.5172,9.5138,9.5068,9.5068,9.5068,9.5138,9.5277,9.4515,9.353,9.2074,9.0458,8.8892,8.7397,8.6192,8.6257,8.7005,8.7187,8.7569,8.8246,8.7829,8.7622,8.7349,8.6534,8.6688,8.6805,8.6877,8.7053,8.7569,8.8083,8.709,8.6271,8.5629,8.5163,8.5055,8.5055,8.5238,8.5277,8.5423,8.5169,8.513,8.4859,9.6091,9.5763,9.4369,9.3573,9.3566,9.3901,9.4814,9.5799,9.4445,9.3657,9.3584,9.3693,9.4366,9.436,9.49,9.4346,9.2741,9.2259,9.1675,9.1282,9.0653,9.0945,9.1347,9.1675,9.2697,9.3463,9.4193,9.5033,9.5836,9.6237,9.6237,9.6237,9.6237,9.617,9.617,9.617,9.614,9.6079,9.592,9.5759,9.5727,9.5727,9.5659,9.5727,9.5727,9.5727,9.5691,9.5659,9.5627,9.5627,9.5596,9.5596,9.5564,9.56,9.5564,9.5568,9.5471,9.5442,9.5373,9.5271,9.5205,9.5172,9.5068,9.5135,9.5169,9.5172,9.5138,9.5172,9.5241,9.5238,9.5271,9.5241,9.5208,9.5138,9.5105,9.5071,9.5035,9.5035,9.5035,9.5071,9.5174,9.503,9.387,9.1838,9.0159,8.975,8.8403,8.6679,8.694,8.8246,8.8624,8.9,8.8509,8.7692,8.7557,8.7205,8.625,8.5619,8.5342,8.545,8.5837,8.6489,8.7213,8.6533,8.5679,8.5005,8.4686,8.4686,8.4754,8.4719,8.4719,8.4652,8.4652,8.4688,8.455,9.3047,9.4061,9.3479,9.4027,9.5076,9.5215,9.5387,9.5488,9.4117,9.3395,9.3365,9.325,9.3172,9.3305,9.3984,9.3279,9.1013,9.0961,9.0187,8.9056,8.8217,8.9166,8.9704,9.0033,9.1493,9.2916,9.3938,9.4529,9.5799,9.6237,9.6201,9.617,9.6237,9.6104,9.6043,9.6012,9.5945,9.5821,9.5727,9.5664,9.5664,9.5627,9.5627,9.5664,9.5664,9.5664,9.5664,9.5572,9.5507,9.5507,9.534,9.5304,9.5304,9.5304,9.5304,9.5304,9.5241,9.5241,9.5208,9.5105,9.5035,9.5035,9.5035,9.5035,9.5035,9.5035,9.5035,9.5035,9.5035,9.5035,9.5035,9.5035,9.5035,9.5035,9.5035,9.5035,9.5035,9.5035,9.5035,9.5035,9.5035,9.5035,9.3879,9.1778,9.0292,8.9853,8.8794,8.7305,8.772,8.8721,8.9094,8.907,8.8216,8.7508,8.7407,8.7162,8.6629,8.6136,8.5324,8.4721,8.476,8.5293,8.5791,8.5507,8.5048,8.4869,8.4583,8.455,8.4516,8.455,8.4583,8.4483,8.4415,8.4415,8.4485,9.102,9.1958,9.2027,9.2907,9.4279,9.4625,9.4066,9.3104,9.2087,9.1607,9.1706,9.167,9.1328,9.0876,9.2056,9.088,8.9622,8.8506,8.766,8.7423,8.7633,8.8071,8.87,8.9693,9.1268,9.2762,9.379,9.4379,9.5721,9.6049,9.6049,9.6043,9.5982,9.5914,9.5821,9.5759,9.5596,9.5499,9.5435,9.5402,9.5435,9.5402,9.5402,9.5402,9.5402,9.5402,9.5402,9.534,9.5343,9.531,9.5174,9.5071,9.5035,9.5035,9.5035,9.5035,9.5035,9.5035,9.5035,9.5035,9.5035,9.5035,9.5035,9.5035,9.5035,9.5035,9.5035,9.5035,9.5035,9.5035,9.5035,9.5035,9.5035,9.5035,9.5035,9.5035,9.5035,9.5035,9.5035,9.5035,9.5035,9.4963,9.446,9.2399,9.0453,8.9916,8.9194,8.8224,8.8089,8.8569,8.8795,8.8406,8.7769,8.7451,8.7313,8.6538,8.654,8.6399,8.5367,8.4586,8.4588,8.4588,8.4552,8.4621,8.4764,8.4693,8.4516,8.4516,8.4516,8.4516,8.4239,8.4242,8.4245,8.4279,8.4315,9.0934,8.9954,8.9951,9.0098,9.0279,9.1296,9.0046,8.7474,8.7502,8.784,8.8061,8.8461,8.9311,9.0578,9.0918,9.0017,8.8638,8.8495,8.7563,8.7029,8.7248,8.8114,8.8923,8.9812,9.1287,9.2607,9.349,9.4102,9.5518,9.5664,9.5664,9.5659,9.5727,9.5664,9.5568,9.5471,9.534,9.5238,9.5169,9.5205,9.5205,9.5172,9.5172,9.5205,9.5135,9.5172,9.5172,9.5138,9.5105,9.5105,9.5071,9.5071,9.5035,9.5035,9.5035,9.5035,9.5035,9.5035,9.5035,9.5035,9.5035,9.5035,9.5035,9.5035,9.5035,9.5035,9.5035,9.5035,9.5035,9.5035,9.5035,9.5035,9.5035,9.5035,9.5035,9.4999,9.4999,9.4999,9.4999,9.5035,9.5035,9.4893,9.4462,9.2844,9.0651,9.0042,8.9257,8.8328,8.7736,8.8243,8.8059,8.7633,8.7034,8.7001,8.6437,8.5481,8.5238,8.4959,8.4249,8.4107,8.4347,8.4417,8.4313,8.4279,8.4415,8.4516,8.4483,8.4483,8.4378,8.403,8.361,8.3436,8.2583,8.2975,8.3896,8.8468,8.8647,8.9454,9.0142,9.058,9.0327,8.9688,8.875,8.8146,8.851,8.9117,8.8406,8.8905,9.0118,9.058,8.9926,8.7709,8.7756,8.7153,8.6423,8.6708,8.752,8.8275,8.9001,9.0961,9.2431,9.3164,9.3686,9.5063,9.5238,9.5235,9.5333,9.5532,9.5337,9.5138,9.5105,9.5037,9.4967,9.4899,9.4899,9.4899,9.4933,9.4967,9.4933,9.4967,9.5001,9.5001,9.5035,9.5035,9.5035,9.5035,9.5035,9.5035,9.5035,9.5035,9.5035,9.5035,9.5037,9.5001,9.5001,9.4933,9.4967,9.5035,9.5035,9.5035,9.5001,9.5001,9.5001,9.5035,9.5035,9.4999,9.5035,9.5035,9.4999,9.4963,9.489,9.4854,9.4712,9.4712,9.4963,9.4965,9.4969,9.4613,9.2671,9.0632,8.9882,8.9169,8.8182,8.7262,8.7328,8.7249,8.6151,8.5337,8.5343,8.4956,8.432,8.3967,8.35,8.3318,8.3244,8.3501,8.3754,8.3861,8.3931,8.3823,8.3855,8.4135,8.3963,8.3365,8.2976,8.2516,8.173,8.114,8.1925,8.3177,8.714,8.6799,8.8178,8.9251,8.995,8.9389,8.9135,8.8949,8.8178,8.8299,8.902,8.8457,8.8558,8.9172,8.9489,8.897,8.7552,8.7513,8.7036,8.6413,8.7407,8.7609,8.8076,8.913,9.0644,9.172,9.2653,9.3335,9.4267,9.4374,9.4516,9.4759,9.4793,9.476,9.4339,9.4374,9.4516,9.4516,9.4516,9.441,9.4195,9.4231,9.4231,9.4087,9.4303,9.4481,9.4552,9.4762,9.4831,9.4969,9.4969,9.4899,9.4831,9.4795,9.4831,9.4831,9.4831,9.4901,9.4969,9.462,9.4656,9.4763,9.4728,9.4763,9.4831,9.4865,9.4865,9.4831,9.4796,9.4432,9.4284,9.414,9.3777,9.3813,9.3774,9.3738,9.3707,9.3707,9.389,9.3998,9.4144,9.3934,9.4189,9.2826,9.0398,8.915,8.8116,8.7159,8.5917,8.5914,8.5838,8.4528,8.3894,8.379,8.3719,8.3608,8.3279,8.2876,8.2648,8.2315,8.2497,8.2873,8.2881,8.2711,8.2867,8.287,8.2021,8.1347,8.1516,8.1225,8.02,7.9338,7.93,8.0262,8.1533,8.7007,8.4718,8.6277,8.7421,8.8191,8.8113,8.8284,8.8451,8.7257,8.7063,8.7653,8.759,8.7683,8.789,8.8246,8.7948,8.7542,8.7625,8.7362,8.6981,8.8011,8.8151,8.8684,8.9638,9.1088,9.0837,9.1622,9.2443,9.2711,9.3221,9.3453,9.368,9.3867,9.3755,9.2751,9.3182,9.3453,9.3526,9.3529,9.3225,9.3029,9.3104,9.3029,9.3069,9.334,9.3678,9.3828,9.4049,9.4195,9.4339,9.441,9.4339,9.4231,9.4267,9.4303,9.441,9.4446,9.4623,9.4657,9.3942,9.3438,9.3226,9.2869,9.3264,9.3908,9.4087,9.3692,9.3224,9.3619,9.333,9.2895,9.2386,9.1663,9.1369,9.1221,9.1149,9.1125,9.1095,9.171,9.2106,9.2217,9.2435,9.2904,9.2583,8.9868,8.8193,8.7054,8.5775,8.4427,8.4038,8.3896,8.3118,8.2726,8.2683,8.2733,8.2724,8.2466,8.2272,8.1828,8.1064,8.0961,8.0886,8.1029,8.1441,8.1165,8.0708,7.9748,7.8744,7.8154,7.7709,7.7075,7.7231,7.7577,7.8148,7.8939,8.6923,8.5683,8.7884,8.8488,8.7973,8.8849,8.934,8.916,8.8055,8.7673,8.7841,8.7806,8.7772,8.7782,8.7897,8.7783,8.7279,8.7235,8.718,8.7553,8.8159,8.8484,8.92,9.0106,9.1015,9.17,9.2109,9.2004,9.2004,9.2326,9.2421,9.2509,9.259,9.259,9.2262,9.263,9.2831,9.2831,9.2791,9.263,9.2549,9.2549,9.2468,9.2468,9.259,9.2866,9.295,9.3108,9.3263,9.3337,9.3263,9.3225,9.3225,9.3376,9.3493,9.368,9.3902,9.423,9.3221,9.159,8.9423,9.0194,9.02,9.0428,9.0473,9.0617,9.1081,9.101,9.0938,9.0616,9.0365,9.036,8.9891,8.9279,8.913,8.902,8.8956,8.8749,8.9396,9.0077,9.0151,9.0224,9.0653,9.0617,8.8474,8.7252,8.601,8.4626,8.3136,8.2291,8.2015,8.1588,8.1223,8.1367,8.16,8.0984,8.0403,8.0206,7.9589,7.915,7.8712,7.8062,7.8044,7.8583,7.8679,7.8419,7.7792,7.7079,7.5873,7.4599,7.4552,7.4885,7.5322,7.6137,7.6751,8.5979,8.4976,8.6977,8.77,8.759,8.8347,8.9014,8.9416,8.8891,8.8516,8.8469,8.8563,8.8563,8.861,8.8706,8.8432,8.7855,8.791,8.7811,8.7895,8.793,8.825,8.8474,8.9127,8.9943,9.0211,9.093,9.1118,9.1207,9.1472,9.1446,9.1236,9.1138,9.1182,9.1446,9.1585,9.1834,9.192,9.192,9.1706,9.1628,9.1542,9.1585,9.1542,9.1663,9.1962,9.1976,9.2137,9.2303,9.2386,9.2315,9.2268,9.2262,9.2268,9.1958,9.1442,9.1613,9.1457,9.0488,8.8736,8.7013,8.7339,8.7385,8.7759,8.8323,8.8456,8.85,8.8576,8.8935,8.8797,8.8264,8.8157,8.8084,8.7584,8.7262,8.7188,8.6942,8.659,8.6947,8.7872,8.805,8.8192,8.844,8.8617,8.7422,8.6181,8.4904,8.3521,8.1854,8.0656,8.0079,7.9585,7.897,7.8965,7.8984,7.8705,7.841,7.7756,7.7102,7.6865,7.6603,7.5945,7.5707,7.5803,7.6027,7.5737,7.5446,7.5221,7.4712,7.3792,7.3287,7.312,7.3504,7.4199,7.474,8.4308,8.3025,8.4078,8.5434,8.6743,8.681,8.7793,8.9005,8.9242,8.9145,8.8964,8.9197,8.9354,8.9518,8.943,8.9444,8.9594,8.9717,8.9011,8.8796,8.9033,8.8386,8.817,8.8684,8.9293,8.8738,8.9468,9.0003,9.0037,9.0609,9.0285,8.9812,8.9969,8.9812,9.0097,9.0621,9.0849,9.0974,9.0974,9.0609,9.0297,9.0204,9.0251,9.0191,9.0517,9.0939,9.1049,9.1081,9.1124,9.1191,9.0628,9.0316,9.0003,9.0116,8.9596,8.9022,8.9026,8.8163,8.6806,8.5504,8.5609,8.5695,8.5618,8.5535,8.5707,8.6635,8.7005,8.6694,8.6656,8.6603,8.6153,8.5806,8.5525,8.5278,8.5207,8.5243,8.5136,8.4745,8.5061,8.5733,8.6158,8.6444,8.6691,8.6356,8.5328,8.4003,8.276,8.242,8.0754,7.922,7.8472,7.7213,7.6598,7.6479,7.6427,7.6389,7.6374,7.5866,7.5299,7.4978,7.448,7.4346,7.4036,7.4044,7.3628,7.3136,7.2784,7.2926,7.2918,7.262,7.2657,7.2825,7.3126,7.3136,7.3287,8.2281,8.0598,8.1874,8.2775,8.3482,8.573,8.6942,8.7643,8.8576,8.9034,8.9068,8.9068,8.9118,8.9216,8.9216,8.9299,8.9265,8.9446,8.9286,8.9184,8.9252,8.9076,8.8803,8.8645,8.9223,8.9369,8.947,8.9572,8.9655,8.962,8.9558,8.925,8.9314,8.9329,8.9509,8.9765,8.9853,8.9995,9.0029,8.999,8.9799,8.9847,8.9847,8.9894,8.9955,9.0131,8.9973,8.929,8.8558,8.8341,8.7621,8.713,8.7005,8.721,8.681,8.6453,8.6393,8.5264,8.3022,8.1952,8.1288,8.1299,8.1489,8.247,8.2652,8.2554,8.2831,8.3616,8.3863,8.3744,8.3381,8.3612,8.3518,8.3527,8.3393,8.3428,8.3497,8.356,8.3871,8.4184,8.4363,8.4652,8.4644,8.4228,8.3337,8.1968,8.132,8.1076,7.9752,7.8157,7.6593,7.4423,7.4165,7.4293,7.4676,7.5065,7.4457,7.4077,7.3708,7.3229,7.2423,7.2113,7.2407,7.1971,7.1458,7.1301,7.1669,7.1267,7.0965,7.1736,7.234,7.2499,7.2474,7.2149,7.1987,8.0449,7.9408,8.0117,8.088,8.1854,8.3465,8.5006,8.6363,8.7355,8.7962,8.8348,8.8568,8.8719,8.8735,8.8969,8.9052,8.9068,8.9167,8.9216,8.9231,8.9231,8.928,8.9363,8.925,8.9118,8.9261,8.9397,8.9397,8.9363,8.9167,8.9052,8.9052,8.9052,8.8948,8.8229,8.8892,8.8922,8.8815,8.9169,8.9393,8.9461,8.9461,8.9495,8.9461,8.8781,8.8571,8.8163,8.7035,8.6241,8.5956,8.5327,8.4576,8.4637,8.4616,8.4349,8.3955,8.3717,8.2292,8.0057,7.9718,7.9752,7.9697,7.98,8.0015,8.0325,8.0777,8.112,8.1263,8.1472,8.183,8.2183,8.2279,8.2358,8.2402,8.2563,8.2598,8.2559,8.2555,8.2555,8.252,8.2551,8.2868,8.2964,8.2835,8.2339,8.1431,8.1137,8.0727,7.9549,7.7544,7.5065,7.2684,7.2583,7.2474,7.3178,7.358,7.2885,7.2549,7.218,7.1845,7.0764,7.053,7.0965,7.0831,7.0623,7.0589,7.063,7.0682,7.0967,7.1494,7.1977,7.2144,7.2235,7.1726,7.0626,7.873,7.8649,7.841,7.9265,8.0617,8.0968,8.2681,8.5247,8.5866,8.6533,8.7641,8.8005,8.8178,8.8229,8.8618,8.8769,8.8819,8.8769,8.8819,8.8836,8.8919,8.8935,8.9019,8.9003,8.8953,8.9151,8.9052,8.8969,8.8819,8.8819,8.8819,8.8903,8.8752,8.8293,8.7362,8.797,8.797,8.7121,8.8068,8.8595,8.8358,8.8339,8.8256,8.7986,8.7324,8.6743,8.6539,8.5306,8.4447,8.4332,8.4009,8.3732,8.3786,8.3595,8.2645,8.1505,8.0364,7.9492,7.9559,7.9492,7.9492,7.9492,7.9538,7.9492,7.9733,8.0059,8.0359,8.0437,8.0872,8.1256,8.1416,8.1624,8.1713,8.1761,8.1802,8.1761,8.1761,8.1795,8.172,8.1644,8.1438,8.1514,8.1597,8.1555,8.1514,8.1213,8.0872,8.0471,7.9406,7.6926,7.4461,7.3086,7.2574,7.1628,7.1829,7.1628,7.1267,7.1032,7.0898,7.0798,7.053,7.053,7.053,7.0448,7.044,7.0399,7.0357,7.0542,7.1,7.1074,7.0794,7.1106,7.1593,7.0746,6.9572,7.6138,7.6138,7.6085,7.6784,7.7936,7.9149,8.1149,8.3479,8.486,8.6106,8.7383,8.7588,8.7641,8.7641,8.7745,8.7798,8.7798,8.8057,8.8229,8.8382,8.8382,8.8635,8.8769,8.8753,8.8568,8.8803,8.8753,8.8551,8.8263,8.8126,8.8211,8.8347,8.8398,8.7778,8.6765,8.685,8.6131,8.599,8.6511,8.6613,8.5868,8.5598,8.5598,8.5462,8.5361,8.5158,8.4941,8.3482,8.268,8.2262,8.155,8.0625,8.0512,8.0398,8.0264,7.9995,7.9727,7.9526,7.9492,7.9492,7.9492,7.9492,7.9492,7.9492,7.9584,7.9676,7.9812,7.9936,8.0205,8.0427,8.0743,8.0786,8.0838,8.1009,8.1086,8.1086,8.1086,8.1052,8.1009,8.0752,8.0437,8.0427,8.0481,8.0481,8.0427,8.0122,7.9773,7.9441,7.8442,7.6058,7.4198,7.3035,7.1954,7.0833,7.0432,7.0432,7.0399,7.0399,7.0365,7.0365,7.0406,7.0448,7.0406,7.0357,7.0275,7.0066,7.0099,7.019,7.0296,7.0158,6.9669,6.9594,6.9846,6.9341,6.8836,7.5345,7.5121,7.5153,7.5388,7.5876,7.693,7.8657,8.0818,8.2672,8.4382,8.5761,8.6793,8.7144,8.7251,8.7304,8.7324,8.7483,8.7641,8.7745,8.7816,8.7868,8.8023,8.816,8.8039,8.8108,8.816,8.816,8.7902,8.7693,8.7693,8.7745,8.785,8.785,8.6767,8.5381,8.5481,8.4843,8.3647,8.4319,8.4774,8.4281,8.4214,8.431,8.4136,8.378,8.3308,8.2923,8.1605,8.0852,8.0684,8.0021,7.9593,7.9559,7.9593,7.9559,7.9559,7.9526,7.9492,7.9492,7.9492,7.9446,7.9492,7.9492,7.9492,7.9492,7.9526,7.9572,7.9709,7.9788,7.9981,8.0271,8.0315,8.0359,8.0491,8.0491,8.0491,8.0457,8.0457,8.0281,8.0004,7.9588,7.9363,7.9428,7.9239,7.9262,7.9026,7.869,7.8039,7.7289,7.5279,7.3356,7.2311,7.1316,7.0474,7.0183,7.0183,7.0183,7.0191,7.0191,7.0191,7.0191,7.0191,7.0191,7.0066,6.9898,6.9642,6.9676,6.9676,6.9547,6.945,6.9189,6.8969,6.8625,6.8355,6.8297,7.4665,7.436,7.4328,7.4328,7.4297,7.4711,7.6163,7.812,7.9979,8.177,8.3723,8.504,8.5716,8.6188,8.6352,8.6339,8.6096,8.588,8.6039,8.6091,8.6144,8.6614,8.6752,8.6852,8.6846,8.6906,8.6774,8.6992,8.7278,8.7377,8.7483,8.7416,8.7184,8.5755,8.4211,8.3762,8.3097,8.1492,8.2247,8.2713,8.2627,8.266,8.2958,8.2501,8.1712,8.1229,8.0861,8.007,7.9434,7.9387,7.948,7.948,7.9387,7.9341,7.9295,7.9248,7.9215,7.9215,7.9215,7.9261,7.9354,7.9354,7.9341,7.9341,7.94,7.9434,7.9434,7.9526,7.9709,7.9846,8.0004,8.0004,8.0004,7.997,7.997,8.0004,7.979,7.9228,7.8465,7.8027,7.8249,7.827,7.7869,7.7568,7.7345,7.701,7.6798,7.6363,7.575,7.4347,7.2706,7.1754,7.0751,7.0253,6.9964,6.9931,6.9931,6.9931,6.9931,6.9931,6.9846,6.9846,6.9676,6.9417,6.92,6.9156,6.9233,6.9276,6.9189,6.9057,6.8836,6.8645,6.816,6.7667,6.7574,7.2419,7.236,7.233,7.2733,7.3238,7.3407,7.4748,7.6638,7.7185,7.8955,8.0937,8.1444,8.2764,8.3429,8.3218,8.3108,8.3217,8.2952,8.3351,8.3446,8.3466,8.4191,8.4929,8.4929,8.4553,8.4504,8.4396,8.5408,8.6368,8.7111,8.6442,8.7045,8.6216,8.442,8.2946,8.215,8.0906,7.9693,8.0508,8.0789,8.004,8.0787,8.062,8.0018,7.9286,7.93,7.9214,7.9228,7.9108,7.8853,7.9261,7.9215,7.8981,7.8839,7.8745,7.8554,7.8745,7.8792,7.8697,7.8792,7.8887,7.8839,7.8853,7.8867,7.9041,7.9101,7.9114,7.9287,7.948,7.9492,7.9584,7.9416,7.9416,7.945,7.9517,7.9492,7.8873,7.6806,7.5927,7.5434,7.6003,7.6215,7.5936,7.6003,7.5425,7.4992,7.4914,7.4681,7.4282,7.3362,7.2322,7.1338,7.0327,6.9722,6.9709,6.9718,6.9633,6.9633,6.9623,6.9537,6.9331,6.9156,6.8859,6.867,6.8523,6.8613,6.8613,6.8613,6.8613,6.869,6.8433,6.7977,6.7481,6.7009,6.6626,7.1772,7.1624,7.1624,7.1711,7.1976,7.2152,7.304,7.4463,7.5402,7.6871,7.8373,7.937,8.0469,8.1752,8.0873,8.0824,8.1283,8.133,8.1788,8.243,8.2277,8.2745,8.3451,8.1672,8.0859,8.1504,8.1481,8.2103,8.3093,8.3473,8.4005,8.3958,8.3506,8.2494,8.1029,8.0438,7.9322,7.8565,7.8811,7.8894,7.8446,7.9023,7.8659,7.7678,7.7488,7.7582,7.7701,7.8374,7.8773,7.8745,7.8697,7.8506,7.8168,7.8216,7.8232,7.8168,7.8265,7.8232,7.8329,7.8458,7.8407,7.8506,7.7886,7.8194,7.8573,7.8121,7.8248,7.8841,7.9055,7.9041,7.9008,7.8541,7.7974,7.784,7.724,7.6727,7.6436,7.5401,7.4413,7.4323,7.4169,7.4203,7.4212,7.4655,7.4212,7.3107,7.304,7.2665,7.23,7.1793,7.1021,7.067,6.9726,6.9353,6.945,6.9407,6.9364,6.9276,6.9189,6.9013,6.8596,6.8238,6.805,6.776,6.7481,6.7653,6.7885,6.7838,6.7806,6.7885,6.7714,6.7293,6.6818,6.6335,6.5844,7.1295,7.1085,7.1085,7.0904,7.0783,7.0934,7.1474,7.2274,7.3573,7.4596,7.5763,7.6898,7.8173,7.945,7.8319,7.8365,7.9118,7.9213,8.0261,8.1508,8.0951,8.0809,8.0061,7.7473,7.69,7.8299,7.8641,7.9146,7.9938,8.0648,8.0675,8.0948,8.1046,8.0275,7.9405,7.9001,7.8252,7.7657,7.7151,7.7037,7.6989,7.6645,7.6007,7.5267,7.5293,7.5661,7.6345,7.7446,7.8009,7.7866,7.7495,7.7349,7.7562,7.7727,7.7497,7.7169,7.7038,7.7005,7.6889,7.661,7.6937,7.6738,7.6123,7.6306,7.7507,7.6592,7.6705,7.7449,7.7814,7.7562,7.7429,7.6685,7.6332,7.6033,7.5334,7.4413,7.3561,7.3206,7.2885,7.2906,7.2951,7.3194,7.296,7.2684,7.2276,7.1428,7.0934,7.0527,7.0121,6.9715,6.9529,6.9637,6.9002,6.9035,6.9013,6.8969,6.8958,6.8913,6.869,6.8433,6.7584,6.7135,6.7227,6.6977,6.6514,6.6722,6.7041,6.7009,6.7025,6.7056,6.6961,6.6577,6.614,6.5646,6.5175,7.0173,7.0111,7.0111,7.0111,7.0141,7.0111,7.0296,7.0418,7.0962,7.1773,7.2766,7.328,7.4679,7.5923,7.5227,7.5067,7.5518,7.5456,7.5308,7.5459,7.5672,7.5594,7.5902,7.4095,7.4592,7.5979,7.6452,7.7188,7.7952,7.8994,7.9555,7.9164,7.8859,7.872,7.8204,7.7392,7.7151,7.6599,7.5625,7.4809,7.4282,7.3441,7.2797,7.2412,7.2446,7.3256,7.462,7.5661,7.584,7.5468,7.537,7.571,7.6884,7.7079,7.6293,7.4871,7.4497,7.4127,7.2928,7.3093,7.3191,7.3724,7.3624,7.3697,7.4553,7.4559,7.4585,7.5285,7.4957,7.5198,7.5165,7.4945,7.47,7.4456,7.4402,7.2797,7.0703,6.9748,6.9748,6.9704,6.977,6.9781,6.9748,6.9671,6.9726,7.0043,6.9757,6.9516,6.9231,6.8969,6.888,6.878,6.869,6.8678,6.8555,6.8413,6.8238,6.7985,6.7506,6.6666,6.5819,6.5437,6.593,6.6034,6.5201,6.5201,6.5741,6.6157,6.6352,6.6255,6.5782,6.5614,6.5396,6.4685,6.4273,7.0018,7.0018,7.0018,7.0018,7.0018,7.0018,7.0018,6.9988,7.0082,7.0499,7.0854,7.1188,7.2088,7.3414,7.2526,7.265,7.3619,7.3584,7.3516,7.3639,7.4429,7.3707,7.2258,7.1656,7.1804,7.2795,7.2826,7.3547,7.4417,7.4856,7.5292,7.5511,7.5435,7.5517,7.5774,7.4547,7.3872,7.3829,7.2851,7.2087,7.1779,7.1126,7.0524,6.9932,7.0149,7.0653,7.1848,7.3352,7.3678,7.2776,7.2189,7.2361,7.3358,7.3102,7.2044,7.0578,7.1204,7.1272,7.0346,7.1073,7.1926,7.2398,7.1985,7.2397,7.307,7.2795,7.2985,7.3695,7.4005,7.4005,7.4005,7.4005,7.3609,7.2849,7.1734,7.0479,6.9142,6.9002,6.909,6.9134,6.9145,6.9233,6.9233,6.9211,6.9156,6.899,6.8812,6.8645,6.8555,6.86,6.86,6.842,6.8329,6.8101,6.7977,6.6988,6.6478,6.6034,6.5453,6.4282,6.3462,6.2796,6.3243,6.3535,6.3453,6.3529,6.4041,6.4439,6.4652,6.4537,6.4511,6.4212,6.3982,6.3486,6.3273,6.9708,6.9708,6.9708,6.9708,6.9708,6.9708,6.9708,6.9708,6.9803,6.9865,6.9894,6.9926,7.0765,7.1541,7.0834,7.1016,7.2071,7.2557,7.277,7.3011,7.416,7.2765,7.0622,7.005,7.0173,7.0448,7.0599,7.0332,7.0515,7.105,7.1249,7.1231,7.1592,7.1961,7.2184,7.1365,7.0899,7.0899,6.9981,6.9346,6.9158,6.871,6.816,6.7345,6.7647,6.8095,6.8809,7.0494,7.0921,6.9618,6.9179,6.9523,7.0607,7.0243,6.9386,6.8219,6.8532,6.8596,6.8066,6.8715,6.9769,7.0461,6.9547,7.0104,7.1533,7.0748,7.0966,7.1942,7.2348,7.225,7.2283,7.225,7.1823,7.0762,6.9796,6.8808,6.86,6.8723,6.8812,6.878,6.8792,6.8803,6.8803,6.8747,6.86,6.851,6.8375,6.8206,6.8023,6.8023,6.7931,6.7838,6.7696,6.7495,6.6909,6.5624,6.4626,6.4153,6.2991,6.1771,6.0862,6.0377,6.0749,6.1133,6.1277,6.1389,6.1961,6.2342,6.2371,6.2259,6.2,6.1479,6.1531,6.1683,6.132,6.9078,6.9107,6.9078,6.8986,6.8986,6.9024,6.9024,6.9112,6.9279,6.9345,6.9525,6.9741,7.0044,7.0138,7.0385,7.0477,7.0568,7.1113,7.1384,7.1324,7.1384,7.1292,7.0386,7.005,6.99,6.9872,6.9841,6.9311,6.8367,6.8783,6.8595,6.787,6.8351,6.8551,6.887,6.8644,6.8709,6.888,6.7782,6.6893,6.6439,6.5355,6.46,6.4539,6.4715,6.5259,6.6232,6.7314,6.7317,6.6281,6.6989,6.789,6.9168,6.9573,6.8386,6.709,6.7247,6.6504,6.5455,6.5691,6.5946,6.6582,6.6561,6.6377,6.7948,6.8152,6.8354,6.9225,6.9284,6.9166,6.9277,6.9309,6.9199,6.8841,6.8504,6.8284,6.8206,6.8192,6.8114,6.8114,6.8069,6.7977,6.816,6.7977,6.7792,6.7653,6.7606,6.7481,6.7387,6.7387,6.723,6.7056,6.6864,6.6532,6.5914,6.4508,6.2841,6.1981,6.0241,5.902,5.7933,5.8085,5.8398,5.8923,5.9217,5.9327,5.9515,5.9676,5.9736,5.9936,5.9551,5.8619,5.8477,5.8708,5.8607,6.737,6.6745,6.7528,6.7757,6.7571,6.7714,6.82,6.884,6.8271,6.8387,6.9121,6.9271,6.943,6.9649,6.9959,7.0205,7.0388,7.0753,7.0813,7.0601,7.0601,7.051,7.0388,7.0111,6.9634,6.8864,6.8505,6.7678,6.6503,6.6503,6.6416,6.6267,6.641,6.6696,6.6865,6.6204,6.578,6.5792,6.4764,6.3941,6.3658,6.3221,6.2928,6.3006,6.3584,6.4078,6.4419,6.446,6.4204,6.3863,6.3918,6.4399,6.4798,6.456,6.4347,6.4454,6.4553,6.456,6.4416,6.4325,6.4685,6.5345,6.5496,6.5813,6.6255,6.6481,6.6914,6.7699,6.7885,6.8069,6.8465,6.8633,6.8114,6.7293,6.7199,6.7104,6.7056,6.7151,6.7151,6.6866,6.6754,6.6771,6.6802,6.6707,6.6722,6.6914,6.6818,6.6722,6.6977,6.6913,6.6786,6.6547,6.585,6.5044,6.4567,6.3108,6.1282,5.9436,5.7709,5.6673,5.6005,5.6298,5.6358,5.6857,5.7126,5.7234,5.8079,5.7911,5.7514,5.7725,5.7883,5.7207,5.6783,5.6665,5.6434,6.5014,6.4591,6.5154,6.5637,6.6215,6.6332,6.7453,6.884,6.8084,6.8171,6.8898,6.8986,6.9112,6.9305,6.9649,6.9897,7.0082,7.0479,7.0479,7.0296,7.0266,7.0266,7.0205,6.9959,6.9096,6.7916,6.7086,6.6028,6.5006,6.4625,6.4392,6.4304,6.4275,6.442,6.4445,6.3712,6.3299,6.3323,6.2557,6.2171,6.2196,6.2226,6.2281,6.2306,6.2868,6.3213,6.313,6.2736,6.2287,6.1896,6.1667,6.1439,6.1095,6.0814,6.124,6.2051,6.2468,6.303,6.3456,6.3645,6.3908,6.4325,6.4501,6.4788,6.5132,6.5163,6.5614,6.6626,6.6914,6.7199,6.7746,6.8055,6.7387,6.5813,6.5862,6.6041,6.5683,6.5961,6.5992,6.5745,6.5664,6.5701,6.5719,6.504,6.5027,6.524,6.4818,6.4616,6.506,6.4871,6.5107,6.4916,6.4016,6.2965,6.2147,6.0915,5.9044,5.7117,5.5915,5.4906,5.4817,5.4895,5.4739,5.4851,5.4967,5.546,5.6496,5.6596,5.5905,5.578,5.5718,5.5567,5.5362,5.5028,5.4709,6.1943,6.2661,6.1816,6.279,6.4516,6.4807,6.6457,6.8218,6.8437,6.8166,6.8224,6.868,6.853,6.8932,6.9071,6.9188,6.9062,6.9217,6.9463,6.9649,6.9744,6.9744,6.9897,6.9649,6.8821,6.7498,6.5938,6.4595,6.3343,6.3198,6.2675,6.16,6.1686,6.1802,6.1424,6.1626,6.1622,6.1874,6.1901,6.1895,6.2141,6.2141,6.2141,6.2141,6.2167,6.2137,6.1777,6.1998,6.1459,6.0426,6.0207,5.9593,5.8825,5.955,6.0302,6.0621,6.1572,6.2192,6.2306,6.2574,6.2658,6.2658,6.2604,6.319,6.3742,6.369,6.4056,6.5214,6.5695,6.5992,6.6303,6.669,6.6192,6.4593,6.4745,6.4753,6.4327,6.4665,6.5062,6.4764,6.4357,6.4726,6.4632,6.3557,6.275,6.2604,6.2073,6.1665,6.2075,6.2184,6.1812,6.178,6.1341,6.0758,5.9822,5.8671,5.676,5.5169,5.4361,5.3972,5.404,5.404,5.402,5.4118,5.429,5.4402,5.5454,5.4983,5.4303,5.4014,5.3387,5.319,5.3343,5.3491,5.3127,5.8628,5.9325,5.9925,6.0373,6.0774,6.1612,6.279,6.4006,6.3968,6.4456,6.5291,6.5255,6.6018,6.7184,6.7462,6.6806,6.5434,6.5756,6.6445,6.732,6.7771,6.8403,6.9154,6.9649,6.8973,6.7408,6.6297,6.4507,6.2435,6.1975,6.1658,6.1281,6.1223,6.1223,6.1223,6.1223,6.1252,6.1364,6.142,6.1476,6.1532,6.1532,6.1587,6.1587,6.1502,6.1094,6.0163,6.0461,6.0035,5.8801,5.7992,5.7446,5.718,5.8213,5.9334,6.0249,6.1488,6.2226,6.2196,6.2306,6.2276,6.2196,6.2276,6.2386,6.2628,6.2628,6.3083,6.3742,6.416,6.4542,6.5051,6.5152,6.4326,6.2818,6.2716,6.2483,6.1429,6.1167,6.1298,6.156,6.1288,6.0843,6.0611,6.0128,6.0049,6.024,6.0038,6.0,6.0341,6.0517,6.0487,6.0201,5.9246,5.8549,5.7939,5.6578,5.4723,5.4371,5.3796,5.3748,5.3748,5.3748,5.3728,5.3853,5.3929,5.3954,5.3747,5.3309,5.3051,5.2857,5.2569,5.2389,5.2287,5.2134,5.2355,5.6115,5.5996,5.6771,5.7611,5.8331,5.9157,6.0633,6.2337,6.2187,6.2729,6.3466,6.3454,6.4078,6.5356,6.4705,6.4051,6.3467,6.3632,6.4207,6.506,6.5536,6.6311,6.7235,6.7595,6.7241,6.628,6.5129,6.334,6.1144,6.0828,6.0771,6.0884,6.097,6.1026,6.1083,6.097,6.1026,6.1083,6.1139,6.111,6.1252,6.1223,6.099,6.0554,6.0496,5.997,5.869,5.8905,5.8397,5.7169,5.6503,5.5878,5.5576,5.6193,5.7426,5.913,6.0481,6.1337,6.1777,6.1976,6.1976,6.1921,6.2005,6.2031,6.1972,6.1535,6.1459,6.2045,6.2281,6.2192,6.2418,6.2112,6.1492,6.0617,6.0488,6.029,5.9648,5.9137,5.8986,5.9207,5.8986,5.858,5.869,5.8012,5.7767,5.8009,5.7772,5.7768,5.8139,5.8314,5.8132,5.7879,5.7096,5.6268,5.5959,5.4479,5.365,5.365,5.3621,5.3621,5.3601,5.3552,5.3366,5.3433,5.3602,5.3597,5.3316,5.2908,5.2865,5.2642,5.2389,5.2236,5.2134,5.2134,5.2134,5.4268,5.3106,5.2637,5.4663,5.7688,5.774,5.9764,6.2412,6.279,6.2999,6.2934,6.2892,6.3095,6.2903,6.1324,6.1403,6.286,6.2897,6.2967,6.318,6.3268,6.3724,6.4357,6.4106,6.4076,6.4167,6.2931,6.1385,5.9759,5.9795,5.9941,6.0229,6.0315,6.0572,6.0714,6.0572,6.0543,6.0799,6.0711,6.091,6.1166,6.1052,6.0242,5.9112,5.9105,5.8607,5.7585,5.7411,5.6829,5.5549,5.5484,5.493,5.3853,5.3786,5.4981,5.7201,5.8627,5.9766,6.084,6.1208,6.1321,6.1073,6.112,6.152,6.1198,6.0072,5.9625,6.0107,6.0224,5.9609,5.8456,5.8545,5.8508,5.855,5.844,5.8482,5.8747,5.8067,5.8291,5.8274,5.7995,5.7725,5.7851,5.7003,5.6334,5.6089,5.5457,5.5075,5.5396,5.5372,5.5419,5.536,5.4997,5.4302,5.3826,5.365,5.365,5.3601,5.3552,5.3572,5.3552,5.3424,5.3189,5.307,5.2871,5.2772,5.275,5.2679,5.2607,5.2462,5.2208,5.1952,5.1719,5.1952,5.1719,5.2978,5.2662,5.253,5.3394,5.4896,5.5672,5.6799,5.8195,5.9073,5.9529,5.9718,5.9404,5.9318,5.9299,5.8903,5.8855,5.9399,5.9424,5.9935,6.0917,6.1273,6.2003,6.2967,6.3335,6.3107,6.24,6.1751,6.1003,6.0019,5.9721,5.9622,5.9651,5.971,5.9825,6.0085,6.0085,6.0315,6.0684,5.9875,6.0044,6.0737,5.92,5.7444,5.6257,5.6857,5.6877,5.5902,5.5815,5.5338,5.429,5.4203,5.4028,5.365,5.3621,5.4407,5.6015,5.7294,5.8167,5.8516,5.8652,5.8652,5.8598,5.8598,5.8734,5.8647,5.8331,5.8127,5.8198,5.7491,5.6928,5.6372,5.7279,5.7492,5.6852,5.6915,5.6522,5.5852,5.5597,5.5558,5.5597,5.5735,5.542,5.5243,5.487,5.4508,5.4537,5.4206,5.404,5.404,5.4088,5.4088,5.4107,5.404,5.3826,5.3699,5.365,5.3552,5.3453,5.3297,5.3189,5.3107,5.2116,5.1587,5.151,5.1314,5.1216,5.1167,5.1843,5.2145,5.21,5.1896,5.1504,5.1329,5.0965,5.0702,5.2647,5.2861,5.2415,5.2931,5.411,5.5145,5.6103,5.6934,5.7642,5.8066,5.7985,5.692,5.6488,5.6568,5.6568,5.6568,5.6568,5.6568,5.7032,5.7778,5.811,5.8725,5.962,5.9899,6.0089,5.9908,5.9222,5.8771,5.8464,5.7728,5.7554,5.7795,5.7795,5.7727,5.7609,5.808,5.8261,5.8342,5.8202,5.8035,5.7698,5.5785,5.4449,5.4253,5.474,5.4818,5.4302,5.4259,5.3964,5.3392,5.3355,5.3305,5.3355,5.3355,5.3652,5.4462,5.5728,5.6736,5.7334,5.7282,5.7363,5.7498,5.7445,5.7445,5.7469,5.7003,5.648,5.6008,5.5229,5.4814,5.4901,5.5635,5.5962,5.5368,5.5212,5.5047,5.4477,5.4244,5.4166,5.4244,5.4166,5.4098,5.3923,5.3748,5.3621,5.3621,5.3621,5.3699,5.3621,5.3621,5.3621,5.3621,5.3621,5.3621,5.3621,5.3552,5.3433,5.3198,5.2732,5.2288,5.1911,5.0983,4.9981,4.9904,4.9712,4.9568,4.95,5.0136,5.0559,5.041,5.0294,5.0875,5.0909,5.0597,4.9416,5.2769,5.3258,5.2279,5.2839,5.4274,5.5372,5.6446,5.7422,5.7593,5.7617,5.7301,5.5519,5.4689,5.4616,5.4299,5.4128,5.4198,5.3954,5.3905,5.4167,5.4206,5.4728,5.5788,5.5438,5.5906,5.7078,5.6006,5.5853,5.6318,5.5202,5.4744,5.5196,5.5242,5.4883,5.4365,5.5171,5.5267,5.4702,5.5692,5.5121,5.2744,5.1648,5.1668,5.2763,5.2705,5.2679,5.2876,5.2692,5.2657,5.2757,5.2736,5.2786,5.2786,5.2757,5.2786,5.2843,5.3845,5.5118,5.6416,5.656,5.6579,5.6992,5.6713,5.6713,5.6922,5.5889,5.4679,5.3839,5.3511,5.354,5.3502,5.3668,5.3883,5.4001,5.3923,5.3796,5.4195,5.3894,5.3748,5.4001,5.3796,5.3601,5.3601,5.3552,5.3552,5.3552,5.3601,5.3621,5.3621,5.3621,5.365,5.3424,5.325,5.3201,5.3297,5.3177,5.2856,5.2871,5.194,5.1257,5.0731,4.9808,4.8501,4.8321,4.801,4.7915,4.7924,4.8121,4.8309,4.8593,4.9026,4.9764,5.057,5.0409,4.9178,5.1857,5.2011,5.1717,5.1846,5.2292,5.3298,5.4372,5.5323,5.5372,5.5372,5.5323,5.486,5.464,5.4372,5.2207,5.1171,5.0803,4.8758,4.8941,5.0974,5.1187,5.2476,5.4654,5.4819,5.5075,5.5569,5.5101,5.4977,5.5383,5.4815,5.4478,5.4565,5.3822,5.3434,5.3426,5.2943,5.2852,5.3083,5.1681,5.0543,4.9792,4.9536,4.994,5.0941,5.0099,5.0529,5.2235,5.1168,5.0986,5.1993,5.1919,5.1891,5.2095,5.1942,5.1919,5.2072,5.2224,5.2506,5.3047,5.3338,5.352,5.3651,5.3747,5.395,5.4101,5.2945,5.207,5.2049,5.2225,5.2427,5.2686,5.2858,5.3136,5.3412,5.3334,5.3346,5.3748,5.3748,5.3621,5.3699,5.3531,5.3305,5.3334,5.3185,5.3185,5.3383,5.3531,5.365,5.3621,5.3621,5.3256,5.2507,5.1552,5.1268,5.1846,5.1531,5.141,5.1857,5.1705,5.0941,4.9918,4.8774,4.7629,4.6521,4.6279,4.6232,4.6316,4.6976,4.7438,4.7293,4.7619,4.827,4.9028,4.9123,4.859,5.1779,5.217,5.1706,5.1779,5.2268,5.283,5.364,5.4445,5.2727,5.1889,5.1919,5.2624,5.2923,5.2753,5.1078,5.0211,5.0138,4.8544,4.869,5.0228,5.0457,5.1407,5.2871,5.3107,5.3314,5.3472,5.3289,5.331,5.3436,5.3216,5.2833,5.2253,5.1724,5.1079,5.03,5.0329,5.0238,5.0029,4.7755,4.6453,4.6359,4.6768,4.7613,4.8782,4.8656,4.9383,5.1227,5.0014,4.9584,5.0356,5.0304,5.0251,5.0382,5.0251,5.0356,5.0697,5.0409,5.0382,5.0909,5.1146,5.1536,5.2129,5.1998,5.1714,5.1297,5.1066,5.0805,5.0567,5.1273,5.1765,5.1845,5.1692,5.1779,5.2026,5.1927,5.1899,5.2046,5.2067,5.2375,5.2913,5.2498,5.2354,5.3128,5.3164,5.3136,5.3383,5.3581,5.3552,5.3305,5.2156,5.0963,5.027,4.9692,4.9559,4.9805,4.9685,4.958,4.9513,4.946,4.8865,4.7931,4.6762,4.5601,4.4752,4.4632,4.4614,4.4384,4.5054,4.5338,4.5334,4.5758,4.6692,4.7492,4.823,4.8592,5.1779,5.2561,5.151,5.1486,5.2262,5.2194,5.2702,5.3074,4.9938,4.8661,4.891,5.0266,5.0863,5.0839,5.0046,4.9696,4.9739,4.9285,4.9357,4.9696,5.0055,5.0429,5.0863,5.1175,5.1376,5.1352,5.1443,5.1443,5.1443,5.151,5.0924,4.9946,4.9735,4.8798,4.688,4.7675,4.776,4.6714,4.4628,4.3699,4.4049,4.4772,4.5797,4.7047,4.7831,4.8661,4.9607,4.8721,4.8176,4.8052,4.7998,4.7892,4.7788,4.7709,4.8029,4.8592,4.8242,4.8296,4.8913,4.8993,4.9574,5.0744,5.0577,4.9767,4.8538,4.9206,4.9445,4.8806,4.9623,5.0487,5.0432,4.9898,4.9756,5.0127,5.0029,4.9882,4.9952,4.998,5.0446,5.1559,5.0877,5.0797,5.194,5.2268,5.2337,5.2747,5.2448,5.266,5.1796,4.992,4.8196,4.7845,4.7801,4.7745,4.7772,4.7837,4.7665,4.7134,4.6774,4.6378,4.566,4.4834,4.4045,4.3205,4.335,4.325,4.2904,4.2868,4.3085,4.3083,4.409,4.5198,4.6278,4.7364,4.8344,5.0215,5.0223,4.9223,4.8543,4.813,4.8105,4.7859,4.7426,4.7935,0.0,0.0,5.0333,5.0433,5.0266,4.777,4.6659,4.6491,4.4065,4.4282,4.6635,4.6745,4.8074,5.0385,5.0501,5.0569,5.0569,5.0863,5.1022,5.1065,5.1401,5.0924,4.9857,4.9735,4.871,4.6733,4.5988,4.5523,4.5304,4.482,4.5503,4.7233,4.6709,4.7025,4.8412,4.7489,4.7066,4.744,4.6725,4.5986,4.5264,4.5003,4.4587,4.3828,4.36,4.4042,4.5237,4.5081,4.5081,4.542,4.542,4.5627,4.6089,4.7486,4.7492,4.5446,4.4977,4.4898,4.5028,4.5446,4.6116,4.6901,4.706,4.7493,4.8373,4.8393,4.8441,4.866,4.8708,4.8745,4.901,4.8762,4.8602,4.9008,4.9208,4.9163,4.941,4.9838,4.9731,4.9315,4.8041,4.665,4.6231,4.5524,4.5243,4.5773,4.5742,4.5621,4.6029,4.6231,4.5975,4.5062,4.4403,4.3673,4.2736,4.2574,4.2574,4.2482,4.2482,4.2436,4.2204,4.3282,4.458,4.5592,4.654,4.7474,4.8467,4.7687,4.7629,4.6512,0.0,4.5929,4.5159,4.3213,4.398,4.5772,4.8218,4.8967,4.9571,4.9975,4.8298,4.7546,4.7451,4.6,4.6118,4.7522,4.7741,4.8663,5.007,5.023,5.0389,5.0365,5.0501,5.066,5.066,5.0839,5.0061,4.8491,4.8491,4.7163,4.4687,4.4624,4.4624,4.4531,4.4266,4.4567,4.5495,4.5687,4.611,4.678,4.6466,0.0,0.0,0.0,0.0,0.0,0.0,0.0,0.0,0.0,0.0,4.1071,3.9182,3.8224,3.8664,3.871,3.9474,4.1239,4.2794,4.247,3.949,4.1942,4.2905,4.1483,4.3141,4.4457,4.4764,4.4565,4.4819,4.5627,4.582,4.5964,4.6204,4.6469,4.6937,4.7582,4.7028,4.6917,4.7713,4.7769,4.7769,4.7961,4.8198,4.8321,4.8,4.5711,4.3888,4.3796,4.3189,4.3109,4.361,4.3693,4.3801,4.3829,4.4257,4.4179,4.3477,4.3275,4.304,4.2364,4.2065,4.1945,4.1945,4.1878,4.1737,4.1749,4.2737,4.395,4.4634,4.5682,4.6778,4.6474,4.5064,4.5642,4.4429,4.2132,4.3554,4.2706,4.0337,4.0561,4.2495,4.5583,4.7062,4.807,4.8754,4.8346,4.8118,4.805,4.7913,4.8005,4.835,4.8762,4.9152,4.9524,4.9934,5.0138,5.0138,5.0206,5.0206,5.0206,5.0298,4.9386,4.7546,4.7522,4.6136,4.358,0.0,0.0,0.0,4.4,4.3656,4.3531,4.4479,4.5019,4.4825,4.5605,0.0,4.5966,4.5012,4.4358,4.404,4.3131,0.0,0.0,0.0,0.0,0.0,0.0,0.0,0.0,0.0,0.0,0.0,3.6492,3.6172,3.4082,3.855,4.0352,3.7434,4.0653,4.2834,4.2273,4.2089,4.2303,4.2917,4.3209,4.3428,4.3621,4.4118,4.4878,4.6129,4.5273,4.5149,4.6299,4.6548,4.6492,4.6505,4.6691,4.6595,4.615,4.3018,4.0958,4.1218,4.1444,4.1407,4.1711,4.2118,4.2124,4.1664,4.1945,4.2138,4.1884,4.1998,4.2158,4.1878,4.1711,4.1596,4.1455,4.136,4.1218,4.1097,4.2255,4.3204,4.3398,4.4501,4.5553,4.3858,4.2601,4.1994,4.1133,4.0146,3.9073,3.8816,3.9372,4.0357,4.181,4.364,4.5023,4.5554,4.5339,4.4697,4.4275,4.3873,4.3358,4.3795,4.511,4.5909,4.6976,4.8466,4.9019,4.9339,4.9339,4.9729,4.9842,4.9842,5.0206,4.9768,4.8645,4.8597,4.7928,4.6465,4.5493,4.499,4.499,4.5239,4.5374,4.5313,4.5518,4.5256,4.4628,4.5569,4.5351,4.387,4.4213,4.3423,4.0998,4.0392,3.9394,3.7801,3.7241,3.5727,0.0,3.2131,0.0,0.0,0.0,0.0,0.0,0.0,0.0,0.0,3.3672,3.3853,3.1725,3.6207,3.8735,3.7546,3.8986,4.0339,4.1088,4.1591,4.1901,4.1949,4.2371,4.2751,4.2959,4.2851,4.2797,4.3179,4.3449,4.3587,4.3539,4.352,4.3034,4.1417,4.0583,4.0085,4.0207,4.0256,4.0352,4.0763,4.0858,4.0785,4.0689,4.0832,4.0689,4.0737,4.1287,4.1617,4.1407,4.1455,4.1407,4.1006,4.1075,4.1123,4.091,4.1739,4.2242,4.1813,4.246,4.3241,4.0972,3.9594,3.97,3.8958,3.7656,3.6929,3.7406,3.8555,3.9087,3.9909,4.0977,4.2134,4.2925,4.3276,4.301,4.2809,4.2608,4.2317,4.2599,4.3191,4.3531,4.4154,4.4867,4.5527,4.5956,4.6158,4.6719,4.712,4.7476,4.7675,4.7291,4.6559,4.6559,4.5669,4.4135,4.4564,4.4769,4.4582,4.3998,4.3817,4.3939,4.4533,4.4644,4.4343,4.4536,4.438,4.3821,4.3071,4.216,4.104,3.9709,3.8663,3.7788,3.4784,3.2852,0.0,0.0,0.0,0.0,0.0,0.0,0.0,0.0,0.0,0.0,0.0,2.9607,3.1065,3.5494,3.6851,3.3531,3.5141,3.6614,3.7092,3.6532,3.7458,4.0857,4.0601,4.0761,4.2155,4.225,4.2158,4.2158,4.2224,4.2131,4.1737,4.1428,4.0976,4.0159,3.9378,3.9082,3.9354,3.9255,3.9279,3.9452,4.0013,4.0567,4.0928,4.0954,4.0906,4.1049,4.117,4.117,4.1218,4.1101,4.0984,4.0862,4.0862,4.0792,4.0503,4.0617,4.0779,4.0796,4.1213,4.173,3.8536,3.6978,3.666,3.575,3.4699,3.4679,3.5548,3.7006,3.7047,3.7426,3.8094,3.8364,3.8998,3.9828,3.9018,3.8958,3.9526,3.9397,3.9853,4.0899,4.1169,4.1632,4.2182,4.283,4.3365,4.383,4.4113,4.4636,4.5298,4.5263,4.4716,4.3759,4.2858,4.1718,4.035,4.1925,4.304,4.3723,4.2496,4.1975,4.2345,4.287,4.3282,4.3522,4.3078,4.3018,4.3318,4.1542,4.064,4.0862,3.8778,3.7468,3.7287,3.276,0.0,0.0,0.0,0.0,0.0,0.0,0.0,0.0,0.0,2.4673,1.8442,0.0,2.596,0.0,3.3966,3.5185,3.1976,3.2835,0.0,0.0,3.2231,3.289,3.7442,3.7955,3.8669,4.0626,4.1466,4.1925,4.1878,4.1711,4.1265,4.0378,3.9916,3.9598,3.9476,3.8609,3.8182,3.8508,3.8433,3.8359,3.8585,3.9525,4.0497,4.1144,4.1075,4.0954,4.1097,4.0958,4.0862,4.1006,4.0866,4.0722,4.067,4.06,4.0358,3.9967,3.9501,3.9354,3.9967,4.0137,4.0306,3.6954,3.5446,3.1641,3.0454,3.0963,3.0963,3.2107,3.3957,3.3957,3.4483,3.5121,3.3236,3.2694,3.3022,2.9966,0.0,3.1955,3.1367,3.3388,3.7358,3.8313,3.9882,4.2001,4.2742,4.3498,4.4028,4.3308,4.3353,4.4158,4.4015,4.2912,4.0889,3.7488,3.5969,3.6421,3.6922,3.9057,4.2593,4.1419,4.1073,4.1654,4.0819,4.0792,4.1759,4.1167,4.0982,4.1223,3.9519,3.8692,3.9003,3.6276,3.4516,3.3957,0.0,0.0,0.0,0.0,0.0,0.0,0.0,0.0,0.0,0.0,0.0,0.0,0.0,0.0,2.4835,2.9284,0.0,3.4803,3.3833,0.0,0.0,0.0,2.9489,2.9857,3.3725,3.642,3.6451,0.0,0.0,4.1643,4.1643,4.0906,3.8958,3.8659,3.8435,3.7929,3.7852,3.775,3.775,3.775,3.7929,3.8234,3.9082,3.9743,4.0111,4.0159,4.0136,3.999,4.033,4.0718,4.0699,4.077,4.067,4.0358,4.0161,3.9916,3.9403,3.9082,3.8858,3.8805,3.8779,3.8828,3.2809,3.0188,2.8535,2.803,2.8211,2.7778,2.8711,3.0399,2.9412,2.92,2.9474,2.8099,2.7247,2.6921,2.5594,0.0,0.0,0.0,2.874,3.2098,3.3122,3.4746,3.6718,3.8173,3.9077,3.9581,4.0085,4.0211,4.0058,4.0862,3.7753,3.1136,0.0,0.0,3.1291,3.4277,3.6611,3.8161,3.881,3.9208,3.9465,3.9106,3.9274,4.0027,3.984,3.9434,3.9035,3.8103,3.6632,3.4604,3.346,3.2008,0.0,0.0,0.0,0.0,0.0,0.0,0.0,0.0,0.0,0.0,0.0,1.9661,1.6136,0.0,0.0,0.0,2.2988,2.4059,2.583,2.7196,0.0,0.0,0.0,0.0,0.0,0.0,0.0,3.2731,3.5738,3.7768,3.83,3.9103,3.9427,3.8585,3.8485,3.8309,3.7801,0.0,3.7239,3.6494,3.6856,3.709,3.6631,3.7553,3.8556,3.9204,3.9918,4.0284,4.0159,4.0161,4.0235,4.0235,4.0261,4.0261,4.0235,3.9748,3.928,3.9107,3.8833,3.8609,3.8485,3.8485,3.8435,2.835,0.0,0.0,0.0,0.0,2.4188,2.48,2.5959,2.4775,2.4354,2.4344,2.313,0.0,0.0,0.0,0.0,0.0,0.0,2.5264,2.8111,2.9746,3.1436,3.3119,3.4447,3.5241,3.5555,3.6312,3.6158,3.5171,3.5736,3.1896,2.4069,0.0,0.0,0.0,0.0,3.3568,3.4825,3.6312,3.7208,3.7487,3.7466,3.7703,3.8195,3.7989,3.7594,3.701,3.5499,3.3686,3.1581,3.0306,0.0,0.0,0.0,0.0,0.0,0.0,0.0,0.0,0.0,0.0,0.0,0.0,0.0,0.0,0.0,0.0,0.0,0.0,0.0,1.9252,2.2052,2.3873,0.0,0.0,0.0,0.0,0.0,0.0,0.0,0.0,0.0,3.4043,3.5519,3.6947,0.0,0.0,3.7855,3.7444,3.6931,3.6413,3.5921,3.613,0.0,3.5333,3.647,3.763,3.8022,3.9032,3.9619,3.9081,3.9465,3.9669,3.9008,3.944,3.9822,3.9697,3.8783,3.8144,3.839,3.79,3.7483,3.7947,3.8189,3.8208,0.0,0.0,0.0,0.0,0.0,0.0,0.0,0.0,2.0559,2.0537,0.0,1.844,0.0,0.0,0.0,0.0,1.8369,2.0312,0.0,0.0,2.8971,3.1165,3.2545,3.2905,3.3025,3.2944,3.2331,3.1253,2.97,2.8192,0.0,0.0,0.0,0.0,0.0,0.0,2.9069,3.3311,3.4169,3.5032,3.5992,3.6038,3.6057,3.6038,3.5344,3.5042,3.5052,3.1235,2.9599,3.0972,2.6716,0.0,0.0,0.0,0.0,0.0,0.0,0.0,0.0,0.0,0.0,0.0,0.0,0.0,0.0,0.0,0.0,0.0,0.0,0.0,0.0,2.0368,0.0,0.0,0.0,0.0,0.0,0.0,0.0,0.0,0.0,0.0,2.9217,3.0852,3.3261,3.6514,0.0,0.0,0.0,0.0,3.5289,3.6332,3.5553,3.4984,3.5273,3.6435,3.7047,3.6342,0.0,0.0,3.5778,3.7887,3.8945,3.6727,3.8172,3.9551,3.8538,3.6696,3.6041,3.7119,3.5803,3.5286,3.6536,3.6706,3.7349,0.0,0.0,0.0,0.0,0.0,0.0,0.0,0.0,0.0,1.572,1.5212,1.3916,0.0,0.0,0.0,0.0,0.0,0.0,0.0,0.0,2.3438,2.5474,2.6287,2.9181,2.9709,0.0,2.8438,2.6436,0.0,0.0,0.0,0.0,0.0,0.0,0.0,0.0,2.7861,2.9902,3.2698,3.4341,3.4673,3.4673,3.4787,3.4881,3.4169,3.2953,3.1171,3.0355,2.951,0.0,0.0,0.0,0.0,0.0,0.0,0.0,0.0,0.0,0.0,0.0,0.0,0.0,0.0,0.0,0.0,0.0,0.0,0.0,0.0,0.0,0.0,0.0,1.8307,0.0,0.0,0.0,0.0,0.0,0.0,0.0,0.0,0.0,2.3548,2.8003,3.1849,3.3421,3.5522,3.6931,3.6828,0.0,0.0,0.0,0.0,0.0,0.0,0.0,3.4613,3.4526,3.4101,3.3647,3.3167,3.414,3.4968,3.4758,0.0,0.0,3.1066,2.9539,2.9125,2.9452,2.9402,2.9379,2.988,3.0786,3.1696,0.0,0.0,0.0,0.0,0.0,0.0,0.0,0.0,0.0,1.1913,1.1645,0.0,0.0,0.0,0.0,0.0,0.0,0.0,0.0,0.0,0.0,0.0,2.1931,2.4764,0.0,0.0,0.0,0.0,0.0,0.0,0.0,0.0,0.0,0.0,0.0,0.0,2.7145,2.818,3.1865,3.3874,3.4008,3.4008,3.4074,3.4256,3.3586,3.1992,2.9252,0.0,0.0,0.0,0.0,0.0,0.0,0.0,0.0,0.0,0.0,0.0,0.0,0.0,0.0,0.0,0.0,0.0,0.0,0.0,0.0,0.0,0.0,0.0,0.0,0.0,1.5366,0.0,0.0,0.0,0.0,0.0,0.0,0.0,0.0,0.0,0.0,0.0,2.7935,2.979,3.2833,3.5099,3.5637,3.5118,3.4523,0.0,0.0,0.0,0.0,0.0,0.0,0.0,0.0,0.0,0.0,0.0,0.0,0.0,0.0,3.0953,2.6663,2.5049,2.4446,2.476,0.0,0.0,0.0,0.0,0.0,0.0,0.0,0.0,0.0,0.0,0.0,0.0,0.0,0.0,0.0,0.9815,0.0,0.0,0.992,0.0,0.0,0.0,0.0,0.0,0.0,0.0,0.0,0.0,0.0,0.0,0.0,0.0,0.0,0.0,0.0,0.0,0.0,0.0,0.0,0.0,0.0,2.6644,2.8137,3.151,3.3552,3.3959,3.3941,3.3941,3.3971,3.3503,3.2058,2.9565,0.0,0.0,0.0,0.0,0.0,0.0,0.0,0.0,0.0,0.0,0.0,0.0,0.0,0.0,0.0,0.0,0.0,0.0,0.0,0.0,0.0,0.0,0.0,0.0,0.0,0.0,1.4294,1.5945,1.648,0.0,0.0,0.0,0.0,0.0,0.0,0.0,0.0,0.0,2.5817,2.89,3.132,3.2998,3.3845,3.4604,3.58,3.5042,3.4573,3.5173,3.5676,3.5105,0.0,0.0,0.0,0.0,0.0,0.0,0.0,0.0,0.0,0.0,0.0,0.0,0.0,0.0,0.0,0.0,0.0,0.0,0.0,0.0,0.0,0.0,0.0,0.0,0.0,0.0,0.0,0.0,0.0,0.0,0.0,0.0,0.0,0.0,0.0,0.0,0.0,0.0,0.0,0.0,0.0,0.0,0.0,0.0,0.0,0.0,0.0,0.0,0.0,0.0,0.0,0.0,0.0,0.0,2.4886,2.6684,2.944,3.1597,3.3136,3.3204,3.3133,3.3047,3.2385,3.1047,0.0,0.0,0.0,0.0,0.0,0.0,0.0,0.0,0.0,0.0,0.0,0.0,0.0,0.0,0.0,0.0,0.0,0.0,0.0,0.0,0.0,0.0,0.0,0.0,0.0,0.0,0.0,0.0,1.5056,1.4973,1.404,0.0,0.0,0.0,0.0,0.0,0.0,0.0,0.0,0.0,0.0,3.0206,3.1684,3.1689,3.2017,3.3386,3.2944,3.2884,3.4125,3.4033,3.3622,3.2851,0.0,0.0,0.0,0.0,0.0,0.0,0.0,0.0,0.0,0.0,0.0,0.0,0.0,0.0,0.0,0.0,0.0,0.0,0.0,0.0,0.0,0.0,0.0,0.0,0.0,0.0,0.0,0.0,0.0,0.0,0.0,0.0,0.0,0.0,0.0,0.0,0.0,0.0,0.0,0.0,0.0,0.0,0.0,0.0,0.0,0.0,0.0,0.0,0.0,0.0,0.0,0.0,0.0,2.3665,2.5093,2.7896,3.0242,3.2003,3.2309,3.2359,3.2292,3.162,3.0084,0.0,0.0,0.0,0.0,0.0,0.0,0.0,0.0,0.0,0.0,0.0,0.0,0.0,0.0,0.0,0.0,0.0,0.0,0.0,0.0,0.0,0.0,0.0,0.0,0.0,0.0,0.0,0.0,1.3426,1.36,1.3618,0.0,0.0,0.0,0.0,0.0,0.0,0.0,0.0,0.0,0.0,2.6638,2.8716,2.946,0.0,0.0,3.1773,3.1863,3.3298,3.3766,3.3401,3.1792,2.9431,0.0,0.0,0.0,0.0,0.0,0.0,0.0,0.0,0.0,0.0,0.0,0.0,0.0,0.0,0.0,0.0,0.0,0.0,0.0,0.0,0.0,0.0,0.0,0.0,0.0,0.0,0.0,0.0,0.0,0.0,0.0,0.0,0.0,0.0,0.0,0.0,0.0,0.0,0.0,0.0,0.0,0.0,0.0,0.0,0.0,0.0,0.0,0.0,0.0,0.0,0.0,0.0,0.0,2.3624,2.6769,2.9088,3.0472,3.1153,3.1469,3.146,3.0898,2.8958,0.0,0.0,0.0,0.0,0.0,0.0,0.0,0.0,0.0,0.0,0.0,0.0,0.0,0.0,0.0,0.0,0.0,0.0,0.0,0.0,0.0,0.0,0.0,0.0,0.0,0.0,0.0,0.0,0.0,0.0,0.0,0.0,0.0,0.0,0.0,0.0,0.0,0.0,0.0,0.0,0.0,2.1691,2.4847,2.7187,2.9356,0.0,3.1151,3.1135,3.2597,3.4147,3.379,2.9559,0.0,0.0,0.0,0.0,0.0,0.0,0.0,0.0,0.0,0.0,0.0,0.0,0.0,0.0,0.0,0.0,0.0,0.0,0.0,0.0,0.0,0.0,0.0,0.0,0.0,0.0,0.0,0.0,0.0,0.0,0.0,0.0,0.0,0.0,0.0,0.0,0.0,0.0,0.0,0.0,0.0,0.0,0.0,0.0,0.0,0.0,0.0,0.0,0.0,0.0,0.0,0.0,0.0,0.0,2.32,2.4785,2.6514,2.8352,2.9005,2.9409,2.9448,2.8573,0.0,0.0,0.0,0.0,0.0,0.0,0.0,0.0,0.0,0.0,0.0,0.0,0.0,0.0,0.0,0.0,0.0,0.0,0.0,0.0,0.0,0.0,0.0,0.0,0.0,0.0,0.0,0.822,0.0,0.0,0.0,0.0,0.0,0.0,0.0,0.0,0.0,0.0,0.0,0.0,0.0,0.0,2.0912,2.5009,2.5172,2.5987,0.0,0.0,2.8349,3.0127,3.0386,3.0174,0.0,0.0,0.0,0.0,0.0,0.0,0.0,0.0,0.0,0.0,0.0,0.0,0.0,0.0,0.0,0.0,0.0,0.0,0.0,0.0,0.0,0.0,0.0,0.0,0.0,0.0,0.0,0.0,0.0,0.0,0.0,0.0,0.0,0.0,0.0,0.0,0.0,0.0,0.0,0.0,0.0,0.0,0.0,0.0,0.0,0.0,0.0,0.0,0.0,0.0,0.0,0.0,0.0,0.0,2.0589,2.1822,2.2946,2.4203,2.5812,2.6499,2.7143,2.771,2.7298,2.6276,0.0,0.0,0.0,0.0,0.0,0.0,0.0,0.0,0.0,0.0,0.0,0.0,0.0,0.0,0.0,0.0,0.0,0.0,0.0,0.0,0.0,0.0,0.0,0.0,0.0,0.0,0.0,0.0,0.0,0.0,0.0,0.0,0.0,0.0,0.0,0.0,0.0,0.0,0.0,0.0,0.0,0.0,2.2883,2.2641,0.0,0.0,0.0,2.588,2.7877,0.0,0.0,0.0,0.0,0.0,0.0,0.0,0.0,0.0,0.0,0.0,0.0,0.0,0.0,0.0,0.0,0.0,0.0,0.0,0.0,0.0,0.0,0.0,0.0,0.0,0.0,0.0,0.0,0.0,0.0,0.0,0.0,0.0,0.0,0.0,0.0,0.0,0.0,0.0,0.0,0.0,0.0,0.0,0.0,0.0,0.0,0.0,0.0,0.0,0.0,0.0,0.0,0.0,0.0,0.0,0.0,0.0,2.0218,2.1279,2.2257,2.3152,2.3944,2.4838,2.5914,2.6266,2.5957,0.0,0.0,0.0,0.0,0.0,0.0,0.0,0.0,0.0,0.0,0.0,0.0,0.0,0.0,0.0,0.0,0.0,0.0,0.0,0.0,0.0,0.0,0.0,0.0,0.0,0.0,0.0,0.0,0.0,0.0,0.0,0.0,0.0,0.0,0.0,0.0,0.0,0.0,0.0,0.0,0.0,1.749,2.0226,2.0266,2.0483,0.0,0.0,2.3298,2.5525,2.6817,0.0,0.0,0.0,0.0,0.0,0.0,0.0,0.0,0.0,0.0,0.0,0.0,0.0,0.0,0.0,0.0,0.0,0.0,0.0,0.0,0.0,0.0,0.0,0.0,0.0,0.0,0.0,0.0,0.0,0.0,0.0,0.0,0.0,0.0,0.0,0.0,0.0,0.0,0.0,0.0,0.0,0.0,0.0,0.0,0.0,0.0,0.0,0.0,0.0,0.0,0.0,0.0,0.0,0.0,0.0,0.0,2.0162,1.9769,2.0138,2.1297,2.18,2.2426,2.3178,2.3069,2.2821,0.0,0.0,0.0,0.0,0.0,0.0,0.0,0.0,0.0,0.0,0.0,0.0,0.0,0.0,0.0,0.0,0.0,0.0,0.0,0.0,0.0,0.0,0.0,0.0,0.0,0.0,0.0,0.0,0.0,0.0,0.0,0.0,0.0,0.0,0.0,0.0,0.0,0.0,0.0,0.0,0.0,1.7692,2.1264,2.0074,0.0,0.0,0.0,0.0,2.2341,2.1798,0.0,0.0,0.0,0.0,0.0,0.0,0.0,0.0,0.0,0.0,0.0,0.0,0.0,0.0,0.0,0.0,0.0,0.0,0.0,0.0,0.0,0.0,0.0,0.0,0.0,0.0,0.0,0.0,0.0,0.0,0.0,0.0,0.0,0.0,0.0,0.0,0.0,0.0,0.0,0.0,0.0,0.0,0.0,0.0,0.0,0.0,0.0,0.0,0.0,0.0,0.0,0.0,0.0,0.0,0.0,0.0,2.0233,1.9908,1.9846,2.014,2.0341,2.0895,2.1808,2.1954,2.2223,0.0,0.0,0.0,0.0,0.0,0.0,0.0,0.0,0.0,0.0,0.0,0.0,0.0,0.0,0.0,0.0,0.0,0.0,0.0,0.0,0.0,0.0,0.0,0.0,0.0,0.0,0.0,0.0,0.0,0.0,0.0,0.0,0.0,0.0,0.0,0.0,0.0,0.0,0.0,0.0,1.4942,1.6438,2.0054,0.0,0.0,0.0,0.0,0.0,0.0,2.074,2.0303,0.0,0.0,0.0,0.0,0.0,0.0,0.0,0.0,0.0,0.0,0.0,0.0,0.0,0.0,0.0,0.0,0.0,0.0,0.0,0.0,0.0,0.0,0.0,0.0,0.0,0.0,0.0,0.0,0.0,0.0,0.0,0.0,0.0,0.0,0.0,0.0,0.0,0.0,0.0,0.0,0.0,0.0,0.0,0.0,0.0,0.0,0.0,0.0,0.0,0.0,0.0,0.0,0.0,0.0,0.0,2.018,2.0177,1.999,1.9443,1.9529,2.0147,2.1178,2.1727,2.2425,2.3317,0.0,0.0,0.0,0.0,0.0,0.0,0.0,0.0,0.0,0.0,0.0,0.0,0.0,0.0,0.0,0.0,0.0,0.0,0.0,0.0,0.0,0.0,0.0,0.0,0.0,0.0,0.0,0.0,0.0,0.0,0.0,0.0,0.0,0.0,0.0,0.0,0.0,0.0,0.0,1.3432,1.4998,0.0,0.0,0.0,0.0,0.0,0.0,0.0,0.0,2.0799,0.0,0.0,0.0,0.0,0.0,0.0,0.0,0.0,0.0,0.0,0.0,0.0,0.0,0.0,0.0,0.0,0.0,0.0,0.0,0.0,0.0,0.0,0.0,0.0,0.0,0.0,0.0,0.0,0.0,0.0,0.0,0.0,0.0,0.0,0.0,0.0,0.0,0.0,0.0,0.0,0.0,0.0,0.0,0.0,0.0,0.0,0.0,0.0,0.0,0.0,0.0,0.0,0.0,0.0,0.0,0.0,1.8812,1.8767,1.9431,2.0098,2.0516,2.0701,2.1558,2.1976,2.2074,0.0,0.0,0.0,0.0,0.0,0.0,0.0,0.0,0.0,0.0,0.0,0.0,0.0,0.0,0.0,0.0,0.0,0.0,0.0,0.0,0.0,0.0,0.0,0.0,0.0,0.0,0.0,0.0,0.0,0.0,0.0,0.0,0.0,0.0,0.0,0.0,0.0,0.0,0.8619,1.1912,0.0,0.0,0.0,0.0,0.0,0.0,0.0,0.0,2.0406,0.0,0.0,0.0,0.0,0.0,0.0,0.0,0.0,0.0,0.0,0.0,0.0,0.0,0.0,0.0,0.0,0.0,0.0,0.0,0.0,0.0,0.0,0.0,0.0,0.0,0.0,0.0,0.0,0.0,0.0,0.0,0.0,0.0,0.0,0.0,0.0,0.0,0.0,0.0,0.0,0.0,0.0,0.0,0.0,0.0,0.0,0.0,0.0,0.0,0.0,0.0,0.0,0.0,0.0,0.0,0.0,0.0,0.0,1.9325,1.9467,2.0011,2.0529,2.1151,2.1894,2.2122,0.0,0.0,0.0,0.0,0.0,0.0,0.0,0.0,0.0,0.0,0.0,0.0,0.0,0.0,0.0,0.0,0.0,0.0,0.0,0.0,0.0,0.0,0.0,0.0,0.0,0.0,0.0,0.0,0.0,0.0,0.0,0.0,0.0,0.0,0.0,0.0,0.0,0.0,0.0,0.0,0.0,0.0,0.0,0.0,0.0,0.0,0.0,0.0,0.0,0.0,0.0,0.0,0.0,0.0,0.0,0.0,0.0,0.0,0.0,0.0,0.0,0.0,0.0,0.0,0.0,0.0,0.0,0.0,0.0,0.0,0.0,0.0,0.0,0.0,0.0,0.0,0.0,0.0,0.0,0.0,0.0,0.0,0.0,0.0,0.0,0.0,0.0,0.0,0.0,0.0,0.0,0.0,0.0,0.0,0.0,0.0,0.0,0.0,0.0,0.0,0.0,0.0,0.0,0.0,0.0,0.0,0.0,0.0,1.967,1.8964,1.9763,2.0701,2.1666,2.2353,2.2468,0.0,0.0,0.0,0.0,0.0,0.0,0.0,0.0,0.0,0.0,0.0,0.0,0.0,0.0,0.0,0.0,0.0,0.0,0.0,0.0,0.0,0.0,0.0,0.0,0.0,0.0,0.0,0.0,0.0,0.0,0.0,0.0,0.0,0.0,0.0,0.0,0.0,0.0,0.0,0.0,0.0,0.0,0.0,0.0,0.0,0.0,0.0,0.0,1.9568,0.0,0.0,0.0,0.0,0.0,0.0,0.0,0.0,0.0,0.0,0.0,0.0,0.0,0.0,0.0,0.0,0.0,0.0,0.0,0.0,0.0,0.0,0.0,0.0,0.0,0.0,0.0,0.0,0.0,0.0,0.0,0.0,0.0,0.0,0.0,0.0,0.0,0.0,0.0,0.0,0.0,0.0,0.0,0.0,0.0,0.0,0.0,0.0,0.0,0.0,0.0,0.0,0.0,0.0,0.0,0.0,0.0,0.0,0.0,1.867,1.7381,1.9623,2.1239,2.1915,2.2802,2.2998,0.0,0.0,0.0,0.0,0.0,0.0,0.0,0.0,0.0,0.0,0.0,0.0,0.0,0.0,0.0,0.0,0.0,0.0,0.0,0.0,0.0,0.0,0.0,0.0,0.0,0.0,0.0,0.0,0.0,0.0,0.0,0.0,0.0,0.0,0.0,0.0,0.0,0.0,0.0,0.0,0.0,0.0,0.0,0.0,0.0,0.0,0.0,0.0,0.0,0.0,0.0,0.0,0.0,0.0,0.0,0.0,0.0,0.0,0.0,0.0,0.0,0.0,0.0,0.0,0.0,0.0,0.0,0.0,0.0,0.0,0.0,0.0,0.0,0.0,0.0,0.0,0.0,0.0,0.0,0.0,0.0,0.0,0.0,0.0,0.0,0.0,0.0,0.0,0.0,0.0,0.0,0.0,0.0,0.0,0.0,0.0,0.0,0.0,0.0,0.0,0.0,0.0,0.0,0.0,0.0,0.0,0.0,0.0,1.8531,1.7824,1.9505,2.042,2.0418,2.2383,2.2703,0.0,0.0,0.0,0.0,0.0,0.0,0.0,0.0,0.0,0.0,0.0,0.0,0.0,0.0,0.0,0.0,0.0,0.0,0.0,0.0,0.0,0.0,0.0,0.0,0.0,0.0,0.0,0.0,0.0,0.0,0.0,0.0,0.0,0.0,0.0,0.0,0.0,0.0,0.0,0.0,0.0,0.0,0.0,0.0,0.0,0.0,0.0,0.0,0.0,0.0,0.0,0.0,0.0,0.0,0.0,0.0,0.0,0.0,0.0,0.0,0.0,0.0,0.0,0.0,0.0,0.0,0.0,0.0,0.0,0.0,0.0,0.0,0.0,0.0,0.0,0.0,0.0,0.0,0.0,0.0,0.0,0.0,0.0,0.0,0.0,0.0,0.0,0.0,0.0,0.0,0.0,0.0,0.0,0.0,0.0,0.0,0.0,0.0,0.0,0.0,0.0,0.0,0.0,0.0,0.0,0.0,0.0,0.0,0.0,1.7735,1.8776,1.9127,1.8774,2.1298,2.1773,0.0,0.0,0.0,0.0,0.0,0.0,0.0,0.0,0.0,0.0,0.0,0.0,0.0,0.0,0.0,0.0,0.0,0.0,0.0,0.0,0.0,0.0,0.0,0.0,0.0,0.0,0.0,0.0,0.0,0.0,0.0,0.0,0.0,0.0,0.0,0.0,0.0,0.0,0.0,0.0,0.0,0.0,0.0,0.0,0.0,0.0,0.0,0.0,0.0,0.0,0.0,0.0,0.0,0.0,0.0,0.0,0.0,0.0,0.0,0.0,0.0,0.0,0.0,0.0,0.0,0.0,0.0,0.0,0.0,0.0,0.0,0.0,0.0,0.0,0.0,0.0,0.0,0.0,0.0,0.0,0.0,0.0,0.0,0.0,0.0,0.0,0.0,0.0,0.0,0.0,0.0,0.0,0.0,0.0,0.0,0.0,0.0,0.0,0.0,0.0,0.0,0.0,0.0,0.0,0.0,0.0,0.0,0.0,0.0,1.6106,1.7103,1.7569,1.7307,1.9425,1.9943,0.0,0.0,0.0,0.0,0.0,0.0,0.0,0.0,0.0,0.0,0.0,0.0,0.0,0.0,0.0,0.0,0.0,0.0,0.0,0.0,0.0,0.0,0.0,0.0,0.0,0.0,0.0,0.0,0.0,0.0,0.0,0.0,0.0,0.0,0.0,0.0,0.0,0.0,0.0,0.0,0.0,0.0,0.0,0.0,0.0,0.0,0.0,0.0,0.0,0.0,0.0,0.0,0.0,0.0,0.0,0.0,0.0,0.0,0.0,0.0,0.0,0.0,0.0,0.0,0.0,0.0,0.0,0.0,0.0,0.0,0.0,0.0,0.0,0.0,0.0,0.0,0.0,0.0,0.0,0.0,0.0,0.0,0.0,0.0,0.0,0.0,0.0,0.0,0.0,0.0,0.0,0.0,0.0,0.0,0.0,0.0,0.0,0.0,0.0,0.0,0.0,0.0,0.0,0.0,0.0,0.0,0.0,0.0,0.0,1.8125,1.8591,1.8536,1.8013,1.9163,1.9161,1.7824,0.0,0.0,0.0,0.0,0.0,0.0,0.0,0.0,0.0,0.0,0.0,0.0,0.0,0.0,0.0,0.0,0.0,0.0,0.0,0.0,0.0,0.0,0.0,0.0,0.0,0.0,0.0,0.0,0.0,0.0,0.0,0.0,0.0,0.0,0.0,0.0,0.0,0.0,0.0,0.0,0.0,0.0,0.0,0.0,0.0,0.0,0.0,0.0,0.0,0.0,0.0,0.0,0.0,0.0,0.0,0.0,0.0,0.0,0.0,0.0,0.0,0.0,0.0,0.0,0.0,0.0,0.0,0.0,0.0,0.0,0.0,0.0,0.0,0.0,0.0,0.0,0.0,0.0,0.0,0.0,0.0,0.0,0.0,0.0,0.0,0.0,0.0,0.0,0.0,0.0,0.0,0.0,0.0,0.0,0.0,0.0,0.0,0.0,0.0,0.0,0.0,0.0,0.0,0.0,0.0,0.0,0.0,0.0,1.8359,1.8089,1.7732,1.7364,1.8387,1.8193,0.0,0.0,0.0,0.0,0.0,0.0,0.0,0.0,0.0,0.0,0.0,0.0,0.0,0.0,0.0,0.0,0.0,0.0,0.0,0.0,0.0,0.0,0.0,0.0,0.0,0.0,0.0,0.0,0.0,0.0,0.0,0.0,0.0,0.0,0.0,0.0,0.0,0.0,0.0,0.0,0.0,0.0,0.0,0.0,0.0,0.0,0.0,0.0,0.0,0.0,0.0,0.0,0.0,0.0,0.0,0.0,0.0,0.0,0.0,0.0,0.0,0.0,0.0,0.0,0.0,0.0,0.0,0.0,0.0,0.0,0.0,0.0,0.0,0.0,0.0,0.0,0.0,0.0,0.0,0.0,0.0,0.0,0.0,0.0,0.0,0.0,0.0,0.0,0.0,0.0,0.0,0.0,0.0,0.0,0.0,0.0,0.0,0.0,0.0,0.0,0.0,0.0,0.0,0.0,0.0,0.0,0.0,0.0,1.5884,1.6125,1.5024,1.4791,1.4887,1.7014,1.6919,0.0,0.0,0.0,0.0,0.0,0.0,0.0,0.0,0.0,0.0,0.0,0.0,0.0,0.0,0.0,0.0,0.0,0.0,0.0,0.0,0.0,0.0,0.0,0.0,0.0,0.0,0.0,0.0,0.0,0.0,0.0,0.0,0.0,0.0,0.0,0.0,0.0,0.0,0.0,0.0,0.0,0.0,0.0,0.0,0.0,0.0,0.0,0.0,0.0,0.0,0.0,0.0,0.0,0.0,0.0,0.0,0.0,0.0,0.0,0.0,0.0,0.0,0.0,0.0,0.0,0.0,0.0,0.0,0.0,0.0,0.0,0.0,0.0,0.0,0.0,0.0,0.0,0.0,0.0,0.0,0.0,0.0,0.0,0.0,0.0,0.0,0.0,0.0,0.0,0.0,0.0,0.0,0.0,0.0,0.0,0.0,0.0,0.0,0.0,0.0,0.0,0.0,0.0,0.0,0.0,0.0,0.0,0.0,0.0,1.5805,0.0,1.6838,0.0,1.7343,1.6572,0.0,0.0,0.0,0.0,0.0,0.0,0.0,0.0,0.0,0.0,0.0,0.0,0.0,0.0,0.0,0.0,0.0,0.0,0.0,0.0,0.0,0.0,0.0,0.0,0.0,0.0,0.0,0.0,0.0,0.0,0.0,0.0,0.0,0.0,0.0,0.0,0.0,0.0,0.0,0.0,0.0,0.0,0.0,0.0,0.0,0.0,0.0,0.0,0.0,0.0,0.0,0.0,0.0,0.0,0.0,0.0,0.0,0.0,0.0,0.0,0.0,0.0,0.0,0.0,0.0,0.0,0.0,0.0,0.0,0.0,0.0,0.0,0.0,0.0,0.0,0.0,0.0,0.0,0.0,0.0,0.0,0.0,0.0,0.0,0.0,0.0,0.0,0.0,0.0,0.0,0.0,0.0,0.0,0.0,0.0,0.0,0.0,0.0,0.0,0.0,0.0,0.0,0.0,0.0,0.0,0.0,0.0,0.0,0.0,1.4519,1.5303,1.6719,1.8779,1.7679,1.6994,0.0,0.0,0.0,0.0,0.0,0.0,0.0,0.0,0.0,0.0,0.0,0.0,0.0,0.0,0.0,0.0,0.0,0.0,0.0,0.0,0.0,0.0,0.0,0.0,0.0,0.0,0.0,0.0,0.0,0.0,0.0,0.0,0.0,0.0,0.0,0.0,0.0,0.0,0.0,0.0,0.0,0.0,0.0,0.0,0.0,0.0,0.0,0.0,0.0,0.0,0.0,0.0,0.0,0.0,0.0,0.0,0.0,0.0,0.0,0.0,0.0,0.0,0.0,0.0,0.0,0.0,0.0,0.0,0.0,0.0,0.0,0.0,0.0,0.0,0.0,0.0,0.0,0.0,0.0,0.0,0.0,0.0,0.0,0.0,0.0,0.0,0.0,0.0,0.0,0.0,0.0,0.0,0.0,0.0,0.0,0.0,0.0,0.0,0.0,0.0,0.0,0.0,0.0,0.0,0.0,0.0,0.0,0.0,0.0,0.0,1.2974,1.4387,1.6724,1.7922,1.802,0.0,0.0,0.0,0.0,0.0,0.0,0.0,0.0,0.0,0.0,0.0,0.0,0.0,0.0,0.0,0.0,0.0,0.0,0.0,0.0,0.0,0.0,0.0,0.0,0.0,0.0,0.0,0.0,0.0,0.0,0.0,0.0,0.0,0.0,0.0,0.0,0.0,0.0,0.0,0.0,0.0,0.0,0.0,0.0,0.0,0.0,0.0,0.0,0.0,0.0,0.0,0.0,0.0,0.0,0.0,0.0,0.0,0.0,0.0,0.0,0.0,0.0,0.0,0.0,0.0,0.0,0.0,0.0,0.0,0.0,0.0,0.0,0.0,0.0,0.0,0.0,0.0,0.0,0.0,0.0,0.0,0.0,0.0,0.0,0.0,0.0,0.0,0.0,0.0,0.0,0.0,0.0,0.0,0.0,0.0,0.0,0.0,0.0,0.0,0.0,0.0,0.0,0.0,0.0,0.0,0.0,0.0,0.0,0.0,0.0,1.2614,0.0,1.5171,1.6165,1.6468,1.6104,0.0,0.0,0.0,0.0,0.0,0.0,0.0,0.0,0.0,0.0,0.0,0.0,0.0,0.0,0.0,0.0,0.0,0.0,0.0,0.0,0.0,0.0,0.0,0.0,0.0,0.0,0.0,0.0,0.0,0.0,0.0,0.0,0.0,0.0,0.0,0.0,0.0,0.0,0.0,0.0,0.0,0.0,0.0,0.0,0.0,0.0,0.0,0.0,0.0,0.0,0.0,0.0,0.0,0.0,0.0,0.0,0.0,0.0,0.0,0.0,0.0,0.0,0.0,0.0,0.0,0.0,0.0,0.0,0.0,0.0,0.0,0.0,0.0,0.0,0.0,0.0,0.0,0.0,0.0,0.0,0.0,0.0,0.0,0.0,0.0,0.0,0.0,0.0,0.0,0.0,0.0,0.0,0.0,0.0,0.0,0.0,0.0,0.0,0.0,0.0,0.0,0.0,0.0,0.0,0.0,0.0,0.0,0.0,0.0,0.0,0.0,1.4066,1.5222,1.5899,0.0,0.0,0.0,0.0,0.0,0.0,0.0,0.0,0.0,0.0,0.0,0.0,0.0,0.0,0.0,0.0,0.0,0.0,0.0,0.0,0.0,0.0,0.0,0.0,0.0,0.0,0.0,0.0,0.0,0.0,0.0,0.0,0.0,0.0,0.0,0.0,0.0,0.0,0.0,0.0,0.0,0.0,0.0,0.0,0.0,0.0,0.0,0.0,0.0,0.0,0.0,0.0,0.0,0.0,0.0,0.0,0.0,0.0,0.0,0.0,0.0,0.0,0.0,0.0,0.0,0.0,0.0,0.0,0.0,0.0,0.0,0.0,0.0,0.0,0.0,0.0,0.0,0.0,0.0,0.0,0.0,0.0,0.0,0.0,0.0,0.0,0.0,0.0,0.0,0.0,0.0,0.0,0.0,0.0,0.0,0.0,0.0,0.0,0.0,0.0,0.0,0.0,0.0,0.0,0.0,0.0,0.0,0.0,0.0,0.0,0.0,1.2047,1.3263,1.483,0.0,1.6016,0.0,0.0,0.0,0.0,0.0,0.0,0.0,0.0,0.0,0.0,0.0,0.0,0.0,0.0,0.0,0.0,0.0,0.0,0.0,0.0,0.0,0.0,0.0,0.0,0.0,0.0,0.0,0.0,0.0,0.0,0.0,0.0,0.0,0.0,0.0,0.0,0.0,0.0,0.0,0.0,0.0,0.0,0.0,0.0,0.0,0.0,0.0,0.0,0.0,0.0,0.0,0.0,0.0,0.0,0.0,0.0,0.0,0.0,0.0,0.0,0.0,0.0,0.0,0.0,0.0,0.0,0.0,0.0,0.0,0.0,0.0,0.0,0.0,0.0,0.0,0.0,0.0,0.0,0.0,0.0,0.0,0.0,0.0,0.0,0.0,0.0,0.0,0.0,0.0,0.0,0.0,0.0,0.0,0.0,0.0,0.0,0.0,0.0,0.0,0.0,0.0,0.0,0.0,0.0,0.0,0.0,0.0,0.0,0.0,0.0,0.0,0.0,1.3979,1.464,1.4269,0.0,0.0,0.0,0.0,0.0,0.0,0.0,0.0,0.0,0.0,0.0,0.0,0.0,0.0,0.0,0.0,0.0,0.0,0.0,0.0,0.0,0.0,0.0,0.0,0.0,0.0,0.0,0.0,0.0,0.0,0.0,0.0,0.0,0.0,0.0,0.0,0.0,0.0,0.0,0.0,0.0,0.0,0.0,0.0,0.0,0.0,0.0,0.0,0.0,0.0,0.0,0.0,0.0,0.0,0.0,0.0,0.0,0.0,0.0,0.0,0.0,0.0,0.0,0.0,0.0,0.0,0.0,0.0,0.0,0.0,0.0,0.0,0.0,0.0,0.0,0.0,0.0,0.0,0.0,0.0,0.0,0.0,0.0,0.0,0.0,0.0,0.0,0.0,0.0,0.0,0.0,0.0,0.0,0.0,0.0,0.0,0.0,0.0,0.0,0.0,0.0,0.0,0.0,0.0,0.0,0.0,0.0,0.0,0.0,0.0,1.1567,1.2127,1.3447,1.3882,1.3382,0.0,0.0,0.0,0.0,0.0,0.0,0.0,0.0,0.0,0.0,0.0,0.0,0.0,0.0,0.0,0.0,0.0,0.0,0.0,0.0,0.0,0.0,0.0,0.0,0.0,0.0,0.0,0.0,0.0,0.0,0.0,0.0,0.0,0.0,0.0,0.0,0.0,0.0,0.0,0.0,0.0,0.0,0.0,0.0,0.0,0.0,0.0,0.0,0.0,0.0,0.0,0.0,0.0,0.0,0.0,0.0,0.0,0.0,0.0,0.0,0.0,0.0,0.0,0.0,0.0,0.0,0.0,0.0,0.0,0.0,0.0,0.0,0.0,0.0,0.0,0.0,0.0,0.0,0.0,0.0,0.0,0.0,0.0,0.0,0.0,0.0,0.0,0.0,0.0,0.0,0.0,0.0,0.0,0.0,0.0,0.0,0.0,0.0,0.0,0.0,0.0,0.0,0.0,0.0,0.0,0.0,0.0,0.0,0.0,0.0,0.0,0.0,0.0,0.0,1.3016,0.0,0.0,0.0,0.0,0.0,0.0,0.0,0.0,0.0,0.0,0.0,0.0,0.0,0.0,0.0,0.0,0.0,0.0,0.0,0.0,0.0,0.0,0.0,0.0,0.0,0.0,0.0,0.0,0.0,0.0,0.0,0.0,0.0,0.0,0.0,0.0,0.0,0.0,0.0,0.0,0.0,0.0,0.0,0.0,0.0,0.0,0.0,0.0,0.0,0.0,0.0,0.0,0.0,0.0,0.0,0.0,0.0,0.0,0.0,0.0,0.0,0.0,0.0,0.0,0.0,0.0,0.0,0.0,0.0,0.0,0.0,0.0,0.0,0.0,0.0,0.0,0.0,0.0,0.0,0.0,0.0,0.0,0.0,0.0,0.0,0.0,0.0,0.0,0.0,0.0,0.0,0.0,0.0,0.0,0.0,0.0,0.0,0.0,0.0,0.0,0.0,0.0,0.0,0.0,0.0,0.0,0.0,0.0,0.0,0.0,0.0,0.0,0.0,0.0,0.0,0.0,0.0,0.0,0.0,0.0,0.0,0.0,0.0,0.0,0.0,0.0,0.0,0.0,0.0,0.0,0.0,0.0,0.0,0.0,0.0,0.0,0.0,0.0,0.0,0.0,0.0,0.0,0.0,0.0,0.0,0.0,0.0,0.0,0.0,0.0,0.0,0.0,0.0,0.0,0.0,0.0,0.0,0.0,0.0,0.0,0.0,0.0,0.0,0.0,0.0,0.0,0.0,0.0,0.0,0.0,0.0,0.0,0.0,0.0,0.0,0.0,0.0,0.0,0.0,0.0,0.0,0.0,0.0,0.0,0.0,0.0,0.0,0.0,0.0,0.0,0.0,0.0,0.0,0.0,0.0,0.0,0.0,0.0,0.0,0.0,0.0,0.0,0.0,0.0,0.0,0.0,0.0,0.0,0.0,0.0,0.0,0.0,0.0,0.0,0.0,0.0,0.0,0.0,0.0,0.0,0.0,0.0,0.0,0.0,0.0,0.0,0.0,0.0,0.0,0.0,0.0,0.0,0.0,0.0,0.0,0.0,0.0,0.0,0.0,0.0,0.0,0.0,0.0,0.0,0.0,0.0,0.0,0.0,0.0,0.0,0.0,0.0,0.0,0.0,0.0,0.0,0.0,0.0,0.0,0.0,0.0,0.0,0.0,0.0,0.0,0.0,0.0,0.0,0.0,0.0,0.0,0.0,0.0,0.0,0.0,0.0,0.0,0.0,0.0,0.0,0.0,0.0,0.0,0.0,0.0,0.0,0.0,0.0,0.0,0.0,0.0,0.0,0.0,0.0,0.0,0.0,0.0,0.0,0.0,0.0,0.0,0.0,0.0,0.0,0.0,0.0,0.0,0.0,0.0,0.0,0.0,0.0,0.0,0.0,0.0,0.0,0.0,0.0,0.0,0.0,0.0,0.0,0.0,0.0,0.0,0.0,0.0,0.0,0.0,0.0,0.0,0.0,0.0,0.0,0.0,0.0,0.0,0.0,0.0,0.0,0.0,0.0,0.0,0.0,0.0,0.0,0.0,0.0,0.0,0.0,0.0,0.0,0.0,0.0,0.0,0.0,0.0,0.0,0.0,0.0,0.0,0.0,0.0,0.0,0.0,0.0,0.0,0.0,0.0,0.0,0.0,0.0,0.0,0.0,0.0,0.0,0.0,0.0,0.0,0.0,0.0,0.0,0.0,0.0,0.0,0.0,0.0,0.0,0.0,0.0,0.0,0.0,0.0,0.0,0.0,0.0,0.0,0.0,0.0,0.0,0.0,0.0,0.0,0.0,0.0,0.0,0.0,0.0,0.0,0.0,0.0,0.0,0.0,0.0,0.0,0.0,0.0,0.0,0.0,0.0,0.0,0.0,0.0,0.0,0.0,0.0,0.0,0.0,0.0,0.0,0.0,0.0,0.0,0.0,0.0,0.0,0.0,0.0,0.0,0.0,0.0,0.0,0.0,0.0,0.0,0.0,0.0,0.0,0.0,0.0,0.0,0.0,0.0,0.0,0.0,0.0,0.0,0.0,0.0,0.0,0.0,0.0,0.0,0.0,0.0,0.0,0.0,0.0,0.0,0.0,0.0,0.0,0.0,0.0,0.0,0.0,0.0,0.0,0.0,0.0,0.0,0.0,0.0,0.0,0.0,0.0,0.0,0.0,0.0,0.0,0.0,0.0,0.0,0.0,0.0,0.0,0.0,0.0,0.0,0.0,0.0,0.0,0.0,0.0,0.0,0.0,0.0,0.0,0.0,0.0,0.0,0.0,0.0,0.0,0.0,0.0,0.0,0.0,0.0,0.0,0.0,0.0,0.0,0.0,0.0,0.0,0.0,0.0,0.0,0.0,0.0,0.0,0.0,0.0,0.0,0.0,0.0,0.0,0.0,0.0,0.0,0.0,0.0,0.0,0.0,0.0,0.0,0.0,0.0,0.0,0.0,0.0,0.0,0.0,0.0,0.0,0.0,0.0,0.0,0.0,0.0,0.0,0.0,0.0,0.0,0.0,0.0,0.0,0.0,0.0,0.0,0.0,0.0,0.0,0.0,0.0,0.0,0.0,0.0,0.0,0.0,0.0,0.0,0.0,0.0,0.0,0.0,0.0,0.0,0.0,0.0,0.0,0.0,0.0,0.0,0.0,0.0,0.0,0.0,0.0,0.0,0.0,0.0,0.0,0.0,0.0,0.0,0.0,0.0,0.0,0.0,0.0,0.0,0.0,0.0,0.0,0.0,0.0,0.0,0.0,0.0,0.0,0.0,0.0,0.0,0.0,0.0,0.0,0.0,0.0,0.0,0.0,0.0,0.0,0.0,0.0,0.0,0.0,0.0,0.0,0.0,0.0,0.0,0.0,0.0,0.0,0.0,0.0,0.0,0.0,0.0,0.0,0.0,0.0,0.0,0.0,0.0,0.0,0.0,0.0,0.0,0.0,0.0,0.0,0.0,0.0,0.0,0.0,0.0,0.0,0.0,0.0,0.0,0.0,0.0,0.0,0.0,0.0,0.0,0.0,0.0,0.0,0.0,0.0,0.0,0.0,0.0,0.0,0.0,0.0,0.0,0.0,0.0,0.0,0.0,0.0,0.0,0.0,0.0,0.0,0.0,0.0,0.0,0.0,0.0,0.0,0.0,0.0,0.0,0.0,0.0,0.0,0.0,0.0,0.0,0.0,0.0,0.0,0.0,0.0,0.0,0.0,0.0,0.0,0.0,0.0,0.0,0.0,0.0,0.0,0.0,0.0,0.0,0.0,0.0,0.0,0.0,0.0,0.0,0.0,0.0,0.0,0.0,0.0,0.0,0.0,0.0,0.0,0.0,0.0,0.0,0.0,0.0,0.0,0.0,0.0,0.0,0.0,0.0,0.0,0.0,0.0,0.0,0.0,0.0,0.0,0.0,0.0,0.0,0.0,0.0,0.0,0.0,0.0,0.0,0.0,0.0,0.0,0.0,0.0,0.0,0.0,0.0,0.0,0.0,0.0,0.0,0.0,0.0,0.0,0.0,0.0,0.0,0.0,0.0,0.0,0.0,0.0,0.0,0.0,0.0,0.0,0.0,0.0,0.0,0.0,0.0,0.0,0.0,0.0,0.0,0.0,0.0,0.0,0.0,0.0,0.0,0.0,0.0,0.0,0.0,0.0,0.0,0.0,0.0,0.0,0.0,0.0,0.0,0.0,0.0,0.0,0.0,0.0,0.0,0.0,0.0,0.0,0.0,0.0,0.0,0.0,0.0,0.0,0.0,0.0,0.0,0.0,0.0,0.0,0.0,0.0,0.0,0.0,0.0,0.0,0.0,0.0,0.0,0.0,0.0,0.0,0.0,0.0,0.0,0.0,0.0,0.0,0.0,0.0,0.0,0.0,0.0,0.0,0.0,0.0,0.0,0.0,0.0,0.0,0.0,0.0,0.0,0.0,0.0,0.0,0.0,0.0,0.0,0.0,0.0,0.0,0.0,0.0,0.0,0.0,0.0,0.0,0.0,0.0,0.0,0.0,0.0,0.0,0.0,0.0,0.0,0.0,0.0,0.0,0.0,0.0,0.0,0.0,0.0,0.0,0.0,0.0,0.0,0.0,0.0,0.0,0.0,0.0,0.0,0.0,0.0,0.0,0.0,0.0,0.0,0.0,0.0,0.0,0.0,0.0,0.0,0.0,0.0,0.0,0.0,0.0,0.0,0.0,0.0,0.0,0.0,0.0,0.0,0.0,0.0,0.0,0.0,0.0,0.0,0.0,0.0,0.0,0.0,0.0,0.0,0.0,0.0,0.0,0.0,0.0,0.0,0.0,0.0,0.0,0.0,0.0,0.0,0.0,0.0,0.0,0.0,0.0,0.0,0.0,0.0,0.0,0.0,0.0,0.0,0.0,0.0,0.0]}]]]